[[[{"header":{"parameterUnit":"kt","parameterCategory":2,"dx":1,"dy":1,"la1":29.587661999999998,"la2":31.0,"lo1":-88.76705300000003,"lo2":-86.6583820000003,"nx":115,"ny":88,"refTime":"2022-10-06T00:00:00:Z","depth":0,"parameterNumber":1,"parameterNumberName":"U-component_of_WINDS"},"data":[-5.9844,-5.96,-5.9546,-5.9407,-5.9341,-5.9275,-5.9247,-5.9284,-5.9325,-5.9346,-5.9025,-5.9046,-5.8906,-5.8516,-5.892,-5.8883,-5.8598,-5.8469,-5.8369,-5.8197,-5.7744,-5.7703,-5.7858,-5.8051,-5.7734,-5.7134,-5.6567,-5.6368,-5.6136,-5.5074,-5.4343,-5.4165,-5.071,-5.0373,-5.1226,-4.9756,-4.7669,-4.8087,-4.6986,-4.5447,-4.5373,-4.5098,-4.4929,-4.3166,-4.1099,-3.957,-3.7652,-3.5654,-3.4835,-3.3914,-3.292,-3.1852,-3.1106,-3.0426,-2.9786,-2.9213,-2.8708,-2.7768,-2.6636,-2.6333,-2.5623,-2.405,-2.3863,-2.342,-2.3008,-2.2156,-2.185,-2.21,-2.1782,-2.1356,-2.0159,-1.9892,-1.9248,-1.8067,-1.7484,-1.6883,-1.6472,-1.6588,-1.6279,-1.5957,-1.5957,-1.5658,-1.4839,-1.441,-1.4096,-1.3677,-1.2931,-1.2069,-1.0211,-1.0528,-1.0634,-0.8451,-0.6185,-0.8265,-1.0144,-1.0258,-0.9611,-0.8448,-0.6272,-0.3803,-0.2176,-0.1837,-0.1861,-0.2122,-0.3122,-0.3451,0.0443,0.449,0.6735,1.0229,1.1093,1.1319,1.1761,1.2367,1.3305,-5.9574,-5.9515,-5.9493,-5.9359,-5.9172,-5.9233,-5.9229,-5.9232,-5.921,-5.9189,-5.9196,-5.9072,-5.9082,-5.9005,-5.9052,-5.8696,-5.8407,-5.8137,-5.7983,-5.7858,-5.769,-5.7515,-5.7552,-5.7658,-5.7405,-5.6855,-5.6126,-5.6151,-5.6278,-5.5364,-5.4573,-5.4248,-5.3551,-5.2864,-5.2072,-5.1129,-5.0409,-5.0374,-4.9524,-4.8683,-4.857,-4.8464,-4.647,-4.5293,-4.4185,-4.3023,-4.0681,-3.8774,-3.7605,-3.6364,-3.4716,-3.3758,-3.2858,-3.2432,-3.1606,-3.0848,-3.0331,-2.8901,-2.753,-2.7177,-2.6206,-2.5228,-2.4963,-2.483,-2.483,-2.4262,-2.3612,-2.344,-2.2935,-2.2148,-2.0421,-1.9363,-1.8688,-1.7803,-1.7599,-1.7306,-1.7217,-1.7217,-1.6369,-1.5428,-1.5738,-1.6266,-1.5647,-1.5117,-1.4701,-1.4492,-1.3855,-1.3112,-1.2577,-1.2558,-1.3062,-1.1722,-1.0705,-1.0981,-1.2041,-1.1954,-1.1302,-1.0266,-0.9721,-0.8983,-0.8042,-0.642,-0.602,-0.7122,-0.754,-0.7459,-0.4236,0.27,0.6573,1.033,1.0212,0.9604,0.985,1.0021,1.151,-5.9445,-5.9336,-5.9301,-5.9213,-5.9119,-5.9131,-5.8976,-5.8827,-5.8977,-5.8977,-5.8795,-5.8933,-5.8675,-5.7993,-5.8241,-5.802,-5.7727,-5.769,-5.7587,-5.7333,-5.714,-5.7101,-5.6982,-5.6901,-5.6814,-5.6766,-5.607,-5.5754,-5.6059,-5.5329,-5.4573,-5.4138,-5.316,-5.2391,-5.1948,-5.1387,-5.1123,-5.1785,-5.0195,-4.9311,-4.8901,-4.9112,-4.81,-4.6081,-4.5043,-4.389,-4.1933,-4.0324,-3.9134,-3.7728,-3.6754,-3.5684,-3.5323,-3.4604,-3.408,-3.331,-3.2144,-3.1227,-3.046,-2.9719,-2.8942,-2.8001,-2.737,-2.612,-2.6101,-2.5662,-2.5075,-2.4669,-2.4263,-2.3882,-2.2134,-2.1476,-2.0782,-1.9923,-1.9607,-1.9005,-1.8601,-1.8399,-1.7573,-1.6858,-1.6909,-1.7319,-1.6858,-1.632,-1.632,-1.6114,-1.5945,-1.5416,-1.4459,-1.4011,-1.5139,-1.5287,-1.5714,-1.6093,-1.4813,-1.3706,-1.3049,-1.2652,-1.2191,-1.132,-1.0302,-0.9763,-0.9244,-0.8868,-0.8995,-0.9638,-0.461,0.3625,0.8243,0.8306,0.8007,0.693,0.7493,0.7384,0.895,-5.935,-5.9252,-5.9126,-5.9089,-5.9089,-5.9089,-5.8858,-5.8516,-5.8733,-5.8471,-5.8181,-5.8439,-5.8218,-5.7588,-5.7758,-5.7658,-5.733,-5.7294,-5.7094,-5.685,-5.6639,-5.6553,-5.6413,-5.6509,-5.6288,-5.6187,-5.6013,-5.5706,-5.5179,-5.452,-5.3949,-5.3744,-5.316,-5.2302,-5.1883,-5.1454,-5.132,-5.1752,-5.0571,-4.9718,-4.9427,-4.9646,-4.9174,-4.722,-4.5915,-4.4786,-4.2696,-4.1151,-4.0057,-3.8784,-3.8585,-3.8485,-3.8485,-3.7236,-3.6776,-3.6388,-3.4372,-3.3203,-3.2419,-3.1706,-3.0564,-2.9719,-2.8872,-2.7878,-2.719,-2.6723,-2.6318,-2.5908,-2.5489,-2.5164,-2.4683,-2.4397,-2.3936,-2.2998,-2.2196,-2.1264,-2.026,-1.9762,-1.9262,-1.8918,-1.8802,-1.8556,-1.8168,-1.7938,-1.8141,-1.7979,-1.783,-1.7537,-1.6678,-1.6957,-1.8169,-1.8513,-1.9366,-1.8528,-1.7041,-1.5799,-1.5252,-1.4848,-1.4462,-1.3482,-1.23,-1.1407,-1.0511,-1.0316,-0.9747,-0.8362,-0.4608,0.2978,0.5331,0.5212,0.4155,-0.0129,-0.026,0.2735,0.5221,-5.9119,-5.9097,-5.9074,-5.9066,-5.9089,-5.9028,-5.9005,-5.8957,-5.8137,-5.7621,-5.7406,-5.7658,-5.7727,-5.7443,-5.748,-5.7332,-5.7137,-5.7014,-5.685,-5.6413,-5.6323,-5.6233,-5.6278,-5.6278,-5.5836,-5.5477,-5.5194,-5.494,-5.3858,-5.3455,-5.3371,-5.3193,-5.283,-5.2491,-5.1949,-5.162,-5.162,-5.1752,-5.0912,-5.0006,-5.0006,-4.9469,-4.8543,-4.7379,-4.6789,-4.5632,-4.312,-4.1712,-4.0988,-3.9328,-3.8485,-3.8485,-3.8059,-3.7416,-3.6808,-3.5985,-3.5187,-3.4325,-3.3719,-3.3158,-3.1783,-3.0568,-2.9493,-2.8748,-2.8428,-2.8103,-2.8161,-2.785,-2.7196,-2.6842,-2.6055,-2.5544,-2.4945,-2.3953,-2.352,-2.3003,-2.215,-2.1527,-2.1153,-2.0939,-2.0677,-2.0335,-1.9937,-1.9628,-1.9687,-1.944,-1.9381,-1.9715,-1.9732,-2.0546,-2.1011,-2.105,-2.0623,-1.9511,-1.8419,-1.7922,-1.7441,-1.7067,-1.6598,-1.5749,-1.4445,-1.3156,-1.1844,-1.1736,-1.1614,-0.919,-0.6899,-0.3254,-0.013,-0.0,-0.2352,-0.7095,-0.6568,-0.2878,-0.0653,-5.9089,-5.9028,-5.8747,-5.8606,-5.858,-5.8387,-5.8234,-5.8063,-5.7307,-5.7079,-5.7104,-5.7002,-5.6925,-5.6946,-5.6941,-5.6896,-5.6718,-5.6682,-5.6553,-5.6323,-5.6323,-5.6059,-5.5789,-5.5574,-5.5279,-5.4871,-5.452,-5.4248,-5.3971,-5.3489,-5.3073,-5.3013,-5.2491,-5.2174,-5.2047,-5.2015,-5.1949,-5.1718,-5.1114,-5.022,-5.0006,-4.9759,-4.8238,-4.725,-4.7959,-4.5769,-4.285,-4.2267,-4.0798,-3.8958,-3.8485,-3.8485,-3.8284,-3.8059,-3.7655,-3.7224,-3.6171,-3.5229,-3.4878,-3.4374,-3.304,-3.1781,-3.0747,-3.0376,-3.015,-3.0007,-3.0069,-2.97,-2.9048,-2.8299,-2.7369,-2.6445,-2.5555,-2.4793,-2.4625,-2.4575,-2.3907,-2.3341,-2.308,-2.2866,-2.2471,-2.2118,-2.1837,-2.1526,-2.1284,-2.1743,-2.2062,-2.2229,-2.2697,-2.352,-2.3689,-2.3317,-2.2239,-2.1048,-2.0355,-1.9854,-1.9483,-1.9114,-1.8579,-1.7669,-1.6598,-1.5461,-1.46,-1.4014,-1.3383,-1.1574,-0.9624,-0.6907,-0.5235,-0.6559,-0.8156,-0.8673,-0.7073,-0.5496,-0.5764,-5.9822,-5.9724,-5.8882,-5.8462,-5.8218,-5.7619,-5.737,-5.7261,-5.6677,-5.6562,-5.6932,-5.6531,-5.6473,-5.6368,-5.6323,-5.6368,-5.6368,-5.6323,-5.6233,-5.6233,-5.6233,-5.5658,-5.5294,-5.5093,-5.4626,-5.4193,-5.3892,-5.3721,-5.343,-5.3073,-5.2707,-5.2707,-5.2238,-5.2014,-5.2048,-5.2311,-5.2541,-5.2405,-5.1406,-5.0555,-5.0021,-4.892,-4.7929,-4.7009,-4.7488,-4.5577,-4.312,-4.2267,-4.0893,-3.9057,-3.8585,-3.8485,-3.8485,-3.8485,-3.8059,-3.7857,-3.7224,-3.6608,-3.6688,-3.6044,-3.4999,-3.3901,-3.2628,-3.2711,-3.2958,-3.2915,-3.2478,-3.1558,-3.0676,-2.9452,-2.8336,-2.7686,-2.7003,-2.6609,-2.6517,-2.605,-2.5156,-2.4716,-2.4719,-2.4368,-2.3627,-2.3299,-2.3365,-2.3175,-2.3487,-2.4518,-2.5047,-2.5022,-2.5331,-2.6011,-2.6255,-2.564,-2.4567,-2.3341,-2.267,-2.1874,-2.1582,-2.1077,-2.018,-1.9156,-1.8307,-1.7574,-1.7299,-1.6355,-1.5029,-1.3477,-1.2072,-1.0307,-0.8245,-0.9994,-1.0163,-0.8787,-0.797,-0.864,-0.9047,-6.1542,-6.128,-5.9762,-5.877,-5.8174,-5.7246,-5.6537,-5.6421,-5.6386,-5.6386,-5.6413,-5.6421,-5.6341,-5.6368,-5.6323,-5.6323,-5.6278,-5.6233,-5.5836,-5.5574,-5.5741,-5.5128,-5.4784,-5.4644,-5.4048,-5.3455,-5.3073,-5.283,-5.2143,-5.244,-5.2341,-5.2047,-5.2014,-5.2377,-5.287,-5.3429,-5.3851,-5.3262,-5.2229,-5.1115,-5.0192,-4.8459,-4.7889,-4.7503,-4.7048,-4.5358,-4.3485,-4.207,-4.0703,-3.9426,-3.8485,-3.8485,-3.8485,-3.8485,-3.7655,-3.7019,-3.6688,-3.7224,-3.7756,-3.7732,-3.6909,-3.5998,-3.4879,-3.4415,-3.441,-3.447,-3.3927,-3.3098,-3.1835,-3.0626,-2.9417,-2.8861,-2.831,-2.8303,-2.8152,-2.7529,-2.6522,-2.6289,-2.6362,-2.6219,-2.5359,-2.5177,-2.5389,-2.5086,-2.5314,-2.6162,-2.6648,-2.6917,-2.7443,-2.829,-2.7956,-2.7336,-2.6664,-2.5598,-2.4764,-2.3998,-2.3572,-2.281,-2.1862,-2.0634,-1.9897,-1.9146,-1.8708,-1.7959,-1.6639,-1.5612,-1.4728,-1.3239,-1.1375,-1.0522,-1.0568,-0.9503,-0.9385,-1.0422,-1.0429,-6.2632,-6.2388,-6.0271,-5.9267,-5.9012,-5.854,-5.7536,-5.6439,-5.6323,-5.6323,-5.6323,-5.6323,-5.6323,-5.6323,-5.6323,-5.6197,-5.5658,-5.5609,-5.5194,-5.4679,-5.4923,-5.4358,-5.3824,-5.3595,-5.3507,-5.2645,-5.2238,-5.237,-5.2212,-5.2903,-5.287,-5.2344,-5.1916,-5.3034,-5.4382,-5.4937,-5.5251,-5.4357,-5.325,-5.1999,-5.0906,-5.0015,-4.9091,-4.8712,-4.8069,-4.6595,-4.4164,-4.2337,-4.1082,-3.9328,-3.8485,-3.8485,-3.8485,-3.8485,-3.8284,-3.7982,-3.7756,-3.7958,-3.8059,-3.7958,-3.7756,-3.7553,-3.7326,-3.7051,-3.6925,-3.5998,-3.5281,-3.4257,-3.2936,-3.1924,-3.0996,-2.9929,-2.9554,-2.9423,-2.9309,-2.929,-2.8642,-2.8494,-2.853,-2.8734,-2.8327,-2.8179,-2.8085,-2.7533,-2.695,-2.7646,-2.8235,-2.8921,-2.9483,-2.9389,-2.9258,-2.9032,-2.8519,-2.7966,-2.7309,-2.6079,-2.5137,-2.4559,-2.3214,-2.1738,-2.1103,-2.049,-2.0147,-1.9542,-1.84,-1.7505,-1.6994,-1.5234,-1.2359,-1.1001,-1.1139,-1.1206,-1.097,-1.1186,-1.139,-6.4018,-6.3807,-6.1462,-6.0541,-6.0674,-5.9918,-5.8584,-5.727,-5.6654,-5.6323,-5.6359,-5.6354,-5.6308,-5.5919,-5.5658,-5.5314,-5.494,-5.4888,-5.452,-5.4005,-5.4228,-5.3571,-5.3309,-5.3395,-5.3543,-5.2903,-5.3297,-5.3693,-5.3297,-5.4316,-5.4053,-5.3659,-5.3955,-5.4547,-5.5895,-5.6875,-5.6829,-5.5841,-5.4469,-5.3162,-5.1958,-5.1066,-5.0276,-4.9678,-4.9451,-4.783,-4.4978,-4.4231,-4.2428,-4.0264,-3.929,-3.9217,-3.9168,-3.8534,-3.8509,-3.8485,-3.8485,-3.8485,-3.816,-3.7857,-3.7655,-3.8083,-3.8284,-3.816,-3.8385,-3.7428,-3.6794,-3.5924,-3.4168,-3.2806,-3.1948,-3.0724,-3.0387,-3.0294,-2.9974,-2.9955,-3.0162,-3.0162,-2.9974,-2.9974,-2.9974,-2.9577,-2.9389,-2.8772,-2.8605,-2.9071,-2.9164,-2.9709,-2.9917,-2.9936,-2.9955,-2.9955,-2.9974,-2.9974,-2.9501,-2.7611,-2.633,-2.5775,-2.471,-2.2985,-2.2214,-2.1686,-2.113,-2.0386,-1.9703,-1.9034,-1.8004,-1.6618,-1.3604,-1.2141,-1.2851,-1.3109,-1.2517,-1.2206,-1.2194,-6.5723,-6.5468,-6.3296,-6.272,-6.2817,-6.0626,-5.9305,-5.8651,-5.7367,-5.668,-5.667,-5.6734,-5.6301,-5.5349,-5.494,-5.4554,-5.4303,-5.4138,-5.3835,-5.3507,-5.376,-5.3369,-5.3347,-5.3958,-5.4689,-5.4618,-5.4974,-5.5533,-5.5965,-5.6191,-5.6125,-5.5895,-5.6059,-5.6722,-5.6585,-5.79,-5.8451,-5.8153,-5.6325,-5.4735,-5.3175,-5.1669,-5.0951,-5.0494,-5.0177,-4.9089,-4.6857,-4.5889,-4.448,-4.2317,-4.1272,-4.0614,-4.0412,-3.9571,-3.8826,-3.8656,-3.8582,-3.8582,-3.8509,-3.8558,-3.8433,-3.8534,-3.8485,-3.8485,-3.8485,-3.8079,-3.7499,-3.6305,-3.458,-3.3196,-3.2128,-3.0948,-3.0929,-3.0724,-3.0181,-3.0068,-3.0442,-3.0534,-3.0162,-2.9974,-2.9974,-2.9974,-2.9974,-2.9974,-2.9974,-3.0012,-2.9993,-2.9955,-2.9955,-2.9955,-2.9955,-2.9974,-2.9974,-2.9974,-2.9728,-2.8453,-2.76,-2.7099,-2.6008,-2.4192,-2.3124,-2.2402,-2.1616,-2.0959,-2.0604,-2.0594,-1.9347,-1.8095,-1.6304,-1.4763,-1.5151,-1.5002,-1.4101,-1.3461,-1.3029,-6.6935,-6.6638,-6.4125,-6.3191,-6.3218,-6.2169,-6.1171,-6.0221,-5.9021,-5.8344,-5.8034,-5.8344,-5.7406,-5.561,-5.4923,-5.4516,-5.3844,-5.3609,-5.3026,-5.318,-5.3654,-5.3729,-5.4124,-5.4917,-5.5946,-5.587,-5.6294,-5.6557,-5.6684,-5.7473,-5.7164,-5.7262,-5.8163,-5.8845,-5.9174,-5.9732,-5.959,-5.898,-5.7836,-5.6875,-5.4906,-5.3761,-5.33,-5.23,-5.1448,-5.0152,-4.8859,-4.7726,-4.6422,-4.4996,-4.363,-4.286,-4.2193,-4.1454,-4.0107,-3.9363,-3.9046,-3.9241,-3.8997,-3.8997,-3.929,-3.8875,-3.8704,-3.8656,-3.8135,-3.7255,-3.7372,-3.6349,-3.4361,-3.2478,-3.2149,-3.1032,-3.077,-3.1227,-3.0639,-3.041,-3.0767,-3.0554,-3.0162,-2.9993,-2.9974,-2.9974,-2.9974,-2.9974,-3.0088,-3.0335,-3.0373,-3.0448,-3.0314,-3.0314,-3.0297,-3.0259,-3.024,-3.0183,-3.005,-2.9529,-2.8967,-2.836,-2.7132,-2.5278,-2.3871,-2.2708,-2.188,-2.1477,-2.1593,-2.1802,-2.1333,-2.0679,-1.9266,-1.7714,-1.7525,-1.7611,-1.6631,-1.616,-1.5219,-6.7283,-6.6884,-6.5094,-6.4288,-6.4253,-6.3931,-6.304,-6.1898,-6.0637,-5.9888,-5.9567,-5.9218,-5.7962,-5.645,-5.5765,-5.5092,-5.4413,-5.4318,-5.4191,-5.409,-5.4316,-5.4843,-5.5467,-5.6256,-5.721,-5.7308,-5.7835,-5.7999,-5.786,-5.8887,-5.8303,-5.7466,-5.8117,-5.9161,-5.9323,-5.8774,-5.8707,-5.8126,-5.7532,-5.6955,-5.5421,-5.5078,-5.4444,-5.3669,-5.2641,-5.1857,-5.0616,-4.9742,-4.8597,-4.7395,-4.6096,-4.508,-4.4224,-4.3187,-4.172,-4.0309,-4.0493,-4.0462,-4.0169,-4.034,-4.0486,-3.9827,-3.9754,-3.9851,-3.9894,-3.7994,-3.7445,-3.7174,-3.6043,-3.4754,-3.3663,-3.2275,-3.1023,-3.1274,-3.1331,-3.1157,-3.0964,-3.0428,-3.0144,-3.005,-3.0031,-3.0145,-3.0126,-3.0088,-3.041,-3.0733,-3.073,-3.0863,-3.1014,-3.0953,-3.1042,-3.1062,-3.123,-3.1189,-3.1303,-3.0891,-3.0342,-2.9342,-2.8346,-2.6953,-2.5688,-2.4146,-2.2749,-2.2217,-2.2113,-2.2265,-2.2497,-2.2652,-2.233,-2.1238,-2.0641,-2.0056,-1.9729,-1.9402,-1.7239,-6.7036,-6.6423,-6.5865,-6.5644,-6.5608,-6.5656,-6.4833,-6.3432,-6.2062,-6.1563,-6.1393,-5.9684,-5.8433,-5.7311,-5.6587,-5.6281,-5.6228,-5.636,-5.5998,-5.6031,-5.635,-5.6206,-5.6479,-5.7188,-5.8132,-5.8371,-5.863,-5.9358,-6.0158,-5.9299,-5.8579,-5.7477,-5.7577,-5.7328,-5.7422,-5.7766,-5.7594,-5.7335,-5.6721,-5.5943,-5.5235,-5.4605,-5.3991,-5.3767,-5.3572,-5.3049,-5.1812,-5.1502,-5.0898,-4.9782,-4.8526,-4.7513,-4.6855,-4.5367,-4.3771,-4.2349,-4.2147,-4.1926,-4.2145,-4.2316,-4.2121,-4.195,-4.1779,-4.1549,-4.1174,-3.962,-3.9779,-4.0585,-3.7969,-3.679,-3.5826,-3.478,-3.3126,-3.2811,-3.2479,-3.2185,-3.1718,-3.1081,-3.0831,-3.0335,-3.0335,-3.0676,-3.0752,-3.0885,-3.117,-3.1587,-3.1638,-3.1581,-3.1593,-3.1676,-3.1734,-3.1874,-3.2137,-3.2271,-3.2423,-3.1819,-3.1051,-3.014,-2.9422,-2.8526,-2.7028,-2.578,-2.4188,-2.3472,-2.2854,-2.2735,-2.285,-2.3105,-2.3477,-2.3789,-2.3657,-2.2577,-2.1984,-2.1512,-1.9412,-6.6412,-6.5901,-6.5767,-6.5715,-6.5715,-6.5732,-6.5482,-6.5093,-6.4579,-6.4437,-6.3816,-6.1521,-5.9141,-5.7655,-5.7356,-5.7177,-5.6525,-5.6393,-5.6393,-5.6396,-5.6518,-5.6691,-5.6988,-5.7105,-5.7536,-5.7495,-5.823,-5.8158,-5.8105,-5.7936,-5.7766,-5.7248,-5.681,-5.6955,-5.7043,-5.6898,-5.681,-5.681,-5.6454,-5.5943,-5.5421,-5.4984,-5.4444,-5.3865,-5.3572,-5.3473,-5.3177,-5.3078,-5.3049,-5.2089,-5.1028,-5.034,-5.0099,-4.7819,-4.5707,-4.4432,-4.3691,-4.3512,-4.4171,-4.461,-4.4366,-4.361,-4.2975,-4.2857,-4.2242,-4.1549,-4.1562,-4.1867,-3.9402,-3.7847,-3.6788,-3.554,-3.4261,-3.3613,-3.3581,-3.3222,-3.2945,-3.3049,-3.2911,-3.1989,-3.1379,-3.1549,-3.1815,-3.1853,-3.2081,-3.248,-3.2395,-3.2319,-3.23,-3.2262,-3.241,-3.2596,-3.2763,-3.2935,-3.2631,-3.2027,-3.1552,-3.0944,-3.0737,-2.9701,-2.7683,-2.6187,-2.5112,-2.4324,-2.3722,-2.3439,-2.3245,-2.3659,-2.3918,-2.3918,-2.3931,-2.3957,-2.3827,-2.3513,-2.2021,-6.6001,-6.5715,-6.5715,-6.5715,-6.5715,-6.5715,-6.5715,-6.5734,-6.5697,-6.5481,-6.4693,-6.2534,-6.0743,-5.9774,-5.9623,-5.9167,-5.854,-5.9018,-5.8854,-5.8574,-5.7899,-5.7668,-5.7536,-5.7357,-5.7161,-5.7242,-5.7074,-5.6721,-5.5729,-5.5638,-5.5638,-5.5546,-5.5576,-5.5729,-5.5361,-5.5546,-5.5638,-5.5729,-5.5668,-5.5268,-5.486,-5.4605,-5.4348,-5.3699,-5.3669,-5.3572,-5.3572,-5.3572,-5.3572,-5.3375,-5.2247,-5.1755,-5.0999,-4.9476,-4.7035,-4.5702,-4.5286,-4.5684,-4.6149,-4.6929,-4.6611,-4.5733,-4.5005,-4.4669,-4.4459,-4.3831,-4.3188,-4.3034,-4.0515,-3.8906,-3.8269,-3.6332,-3.4841,-3.3952,-3.3981,-3.3702,-3.3633,-3.4196,-3.4261,-3.331,-3.2537,-3.303,-3.341,-3.3448,-3.3619,-3.3808,-3.3751,-3.3638,-3.3524,-3.3353,-3.3297,-3.3384,-3.3517,-3.3638,-3.3049,-3.2764,-3.2559,-3.2689,-3.2351,-3.0776,-2.8674,-2.6859,-2.5422,-2.4642,-2.4009,-2.3879,-2.3905,-2.3918,-2.3918,-2.3918,-2.3918,-2.3931,-2.3944,-2.3775,-2.3331,-6.5715,-6.5715,-6.5715,-6.5715,-6.5715,-6.5715,-6.5663,-6.5593,-6.5645,-6.5228,-6.4223,-6.2796,-6.1838,-6.1654,-6.2152,-6.1858,-6.155,-6.178,-6.1648,-6.0039,-5.921,-5.865,-5.844,-5.7422,-5.6423,-5.6274,-5.6454,-5.5453,-5.448,-5.4029,-5.3865,-5.3962,-5.4029,-5.3767,-5.4126,-5.4222,-5.3572,-5.3669,-5.3767,-5.3767,-5.3767,-5.3767,-5.3767,-5.3669,-5.3572,-5.3572,-5.3572,-5.3572,-5.3375,-5.3276,-5.2044,-5.0951,-4.9742,-4.9166,-4.7477,-4.67,-4.7173,-4.8515,-4.8124,-4.8515,-4.849,-4.7636,-4.7368,-4.7417,-4.6732,-4.5901,-4.4794,-4.4888,-4.2582,-4.0715,-3.9356,-3.7297,-3.5756,-3.5016,-3.4851,-3.4747,-3.414,-3.4708,-3.4598,-3.3875,-3.365,-3.4112,-3.4473,-3.4758,-3.5004,-3.5004,-3.4966,-3.4871,-3.4758,-3.4549,-3.4498,-3.4376,-3.4451,-3.4435,-3.4036,-3.4169,-3.4156,-3.4419,-3.3532,-3.2063,-3.0299,-2.8506,-2.6704,-2.5034,-2.4179,-2.3905,-2.3918,-2.3918,-2.3918,-2.3918,-2.3918,-2.3918,-2.3918,-2.3918,-2.3918,-6.5715,-6.5715,-6.5715,-6.5715,-6.5715,-6.5715,-6.5415,-6.4981,-6.5377,-6.4837,-6.3376,-6.1899,-6.133,-6.1837,-6.2318,-6.2648,-6.2648,-6.372,-6.2753,-6.093,-5.9562,-5.8534,-5.7177,-5.5638,-5.4664,-5.4944,-5.4849,-5.4126,-5.3699,-5.3746,-5.363,-5.3572,-5.3572,-5.3572,-5.3572,-5.3572,-5.3572,-5.3572,-5.3572,-5.3572,-5.3572,-5.3572,-5.3572,-5.3572,-5.3572,-5.3572,-5.3572,-5.3572,-5.3177,-5.2247,-5.1588,-5.1163,-5.047,-4.9488,-4.8395,-4.8006,-4.9613,-4.954,-4.9296,-4.9564,-4.9881,-4.8783,-4.8856,-4.8448,-4.7785,-4.7026,-4.5907,-4.5058,-4.3749,-4.2543,-4.0269,-3.9233,-3.7554,-3.607,-3.5842,-3.6331,-3.5348,-3.5103,-3.496,-3.4781,-3.4679,-3.472,-3.4777,-3.5004,-3.5004,-3.5004,-3.5004,-3.5004,-3.5004,-3.5004,-3.5004,-3.5004,-3.5004,-3.5004,-3.5004,-3.5004,-3.5004,-3.4872,-3.3886,-3.2491,-3.1119,-2.9612,-2.8089,-2.6155,-2.5177,-2.3905,-2.3918,-2.3918,-2.3918,-2.3918,-2.3918,-2.3918,-2.3918,-2.3918,-2.3918,-6.5715,-6.5715,-6.5715,-6.5715,-6.5715,-6.5715,-6.5468,-6.5087,-6.4643,-6.3963,-6.2883,-6.1486,-6.0873,-6.1231,-6.1605,-6.1792,-6.2043,-6.3227,-6.2644,-6.0726,-5.9125,-5.8071,-5.8106,-5.508,-5.4263,-5.4386,-5.4502,-5.4427,-5.3688,-5.4182,-5.4211,-5.3804,-5.3572,-5.3572,-5.3572,-5.3572,-5.3572,-5.3572,-5.3572,-5.3572,-5.3572,-5.3572,-5.3572,-5.3572,-5.3572,-5.3572,-5.3572,-5.3572,-5.2979,-5.1737,-5.0882,-5.0367,-4.9882,-4.9403,-4.9318,-4.992,-5.0736,-5.0809,-5.037,-5.0589,-5.098,-4.9906,-4.9637,-4.9429,-4.9143,-4.7931,-4.6708,-4.5111,-4.401,-4.1842,-4.0329,-3.8385,-3.6909,-3.5513,-3.5606,-3.5586,-3.5343,-3.5737,-3.5397,-3.4965,-3.4871,-3.489,-3.5004,-3.5004,-3.5004,-3.5004,-3.5004,-3.5004,-3.5004,-3.5004,-3.5004,-3.5004,-3.5004,-3.5004,-3.5004,-3.5004,-3.5004,-3.4721,-3.3886,-3.2374,-3.071,-2.8783,-2.7406,-2.6437,-2.5461,-2.4062,-2.3918,-2.3918,-2.3918,-2.3918,-2.3918,-2.3918,-2.3918,-2.3918,-2.3918,-6.5715,-6.5715,-6.5715,-6.5715,-6.5715,-6.5522,-6.5361,-6.502,-6.379,-6.3152,-6.289,-6.1419,-6.0784,-6.1253,-6.1188,-6.1221,-6.1747,-6.2819,-6.2694,-6.1137,-5.9054,-5.7989,-5.7837,-5.5194,-5.4456,-5.5258,-5.5433,-5.4735,-5.4182,-5.4793,-5.4648,-5.3804,-5.3572,-5.3572,-5.3572,-5.3572,-5.3572,-5.3572,-5.3572,-5.3572,-5.3572,-5.3572,-5.3572,-5.3572,-5.3572,-5.3572,-5.3572,-5.3601,-5.2979,-5.1504,-5.0039,-4.9048,-4.8588,-4.9069,-4.9797,-5.0565,-5.1175,-5.1504,-5.1126,-5.1528,-5.1552,-5.1357,-5.0638,-5.0651,-5.0563,-4.9614,-4.7785,-4.5714,-4.348,-4.1262,-4.0499,-3.8979,-3.6579,-3.5644,-3.5756,-3.5513,-3.5117,-3.5136,-3.5136,-3.5004,-3.5004,-3.5004,-3.5004,-3.5004,-3.5004,-3.5004,-3.5004,-3.5004,-3.5004,-3.5004,-3.5004,-3.5004,-3.5004,-3.5004,-3.5004,-3.5004,-3.5004,-3.4588,-3.4037,-3.2509,-3.0863,-2.8506,-2.6578,-2.573,-2.4763,-2.4062,-2.3918,-2.3918,-2.3918,-2.3918,-2.3918,-2.3918,-2.3918,-2.3918,-2.3918,-6.5715,-6.5715,-6.5715,-6.5715,-6.5575,-6.5052,-6.4352,-6.3755,-6.3263,-6.2883,-6.2616,-6.1287,-6.1463,-6.2372,-6.3325,-6.3358,-6.3029,-6.3607,-6.2962,-6.162,-5.9296,-5.8327,-5.7246,-5.5342,-5.424,-5.5462,-5.549,-5.4867,-5.4286,-5.4764,-5.4882,-5.3961,-5.3728,-5.3572,-5.3572,-5.3572,-5.3572,-5.3572,-5.3572,-5.3572,-5.3572,-5.3572,-5.3572,-5.3572,-5.3572,-5.3572,-5.3572,-5.3572,-5.295,-5.1532,-4.9316,-4.7898,-4.7554,-4.8372,-4.9613,-5.0003,-5.0906,-5.1406,-5.137,-5.1552,-5.1552,-5.1552,-5.1175,-5.1278,-5.1156,-5.0135,-4.8771,-4.7368,-4.6026,-4.4216,-4.2481,-4.0746,-3.9484,-3.777,-3.7018,-3.639,-3.5381,-3.5004,-3.5004,-3.5004,-3.5004,-3.5004,-3.5004,-3.5004,-3.5004,-3.5004,-3.5004,-3.5004,-3.5004,-3.5004,-3.5004,-3.5004,-3.5004,-3.5004,-3.5004,-3.5004,-3.5004,-3.4739,-3.4455,-3.3217,-3.1833,-2.9353,-2.7125,-2.573,-2.462,-2.4205,-2.3918,-2.3918,-2.3918,-2.3918,-2.3918,-2.3918,-2.3918,-2.3918,-2.3918,-6.5715,-6.5715,-6.5715,-6.5715,-6.561,-6.4813,-6.4293,-6.3713,-6.2483,-6.2015,-6.2211,-6.2904,-6.2408,-6.1792,-6.2306,-6.2865,-6.2654,-6.2173,-6.1169,-5.9865,-5.8296,-5.7329,-5.669,-5.5122,-5.3408,-5.3446,-5.4614,-5.4586,-5.4101,-5.4557,-5.5014,-5.4664,-5.3891,-5.3589,-5.3572,-5.3572,-5.3572,-5.363,-5.3572,-5.3572,-5.3572,-5.3572,-5.3572,-5.3572,-5.3572,-5.3572,-5.3601,-5.3572,-5.2449,-5.0544,-4.8838,-4.7568,-4.7231,-4.7736,-4.9003,-5.0091,-5.0803,-5.0711,-5.1297,-5.1552,-5.1552,-5.1552,-5.1552,-5.145,-5.1275,-5.0435,-4.9296,-4.8249,-4.705,-4.5616,-4.2975,-4.2049,-4.0155,-3.8026,-3.7514,-3.678,-3.5381,-3.5004,-3.5004,-3.5004,-3.5004,-3.5004,-3.5004,-3.5004,-3.5004,-3.5004,-3.5004,-3.5004,-3.5004,-3.5004,-3.5004,-3.5004,-3.5004,-3.5004,-3.5004,-3.5004,-3.5004,-3.4872,-3.4171,-3.2643,-3.1665,-2.9683,-2.751,-2.6183,-2.4803,-2.4374,-2.4152,-2.3931,-2.3918,-2.3983,-2.4009,-2.3944,-2.3983,-2.4165,-2.4191,-6.5715,-6.5715,-6.5715,-6.5715,-6.5522,-6.4642,-6.4234,-6.4019,-6.1702,-6.133,-6.2339,-6.4018,-6.3368,-6.1221,-6.1879,-6.1681,-6.1932,-6.0647,-5.8778,-5.762,-5.6154,-5.6186,-5.6379,-5.4678,-5.3063,-5.2721,-5.3865,-5.4006,-5.3701,-5.4173,-5.4863,-5.4367,-5.3155,-5.3037,-5.2936,-5.265,-5.2836,-5.3424,-5.3079,-5.3047,-5.3201,-5.3315,-5.3315,-5.3389,-5.3381,-5.3424,-5.3293,-5.3177,-5.1783,-4.9504,-4.816,-4.7365,-4.6684,-4.6904,-4.7999,-4.9507,-4.9772,-5.0052,-5.0638,-5.1053,-5.137,-5.1102,-5.1283,-5.149,-5.1367,-5.0423,-4.9147,-4.7634,-4.6953,-4.5733,-4.3488,-4.1677,-3.9818,-3.8154,-3.7405,-3.6909,-3.5381,-3.5004,-3.5004,-3.5004,-3.5004,-3.5004,-3.5004,-3.5004,-3.5004,-3.5004,-3.5004,-3.5004,-3.5004,-3.5004,-3.5004,-3.5004,-3.5004,-3.5004,-3.5004,-3.5004,-3.5004,-3.4872,-3.3047,-3.1272,-3.0646,-2.9124,-2.7692,-2.6374,-2.5113,-2.4771,-2.4659,-2.4477,-2.4191,-2.4152,-2.4152,-2.4425,-2.462,-2.449,-2.4516,-6.5715,-6.5715,-6.5715,-6.5715,-6.5415,-6.4019,-6.3336,-6.3014,-6.1436,-6.1352,-6.254,-6.4176,-6.355,-6.2635,-6.2931,-6.3029,-6.098,-6.0451,-5.9574,-5.8339,-5.6582,-5.5473,-5.5724,-5.4297,-5.3324,-5.2534,-5.2812,-5.2934,-5.2894,-5.3718,-5.3413,-5.2486,-5.1752,-5.1477,-5.1688,-5.0782,-5.1117,-5.2418,-5.2132,-5.2107,-5.2843,-5.2843,-5.2843,-5.2873,-5.3009,-5.2616,-5.1999,-5.1635,-5.0466,-4.7608,-4.7668,-4.6934,-4.5695,-4.6392,-4.7197,-4.7613,-4.8788,-4.9223,-4.9052,-5.0321,-5.0906,-5.0247,-5.0809,-5.1504,-5.0955,-5.0121,-4.8323,-4.5945,-4.6125,-4.5774,-4.4463,-4.3175,-4.0848,-3.8174,-3.7507,-3.669,-3.5513,-3.5004,-3.5004,-3.5004,-3.5004,-3.5004,-3.5004,-3.5004,-3.5004,-3.5004,-3.5004,-3.5004,-3.5004,-3.5004,-3.5004,-3.5004,-3.5004,-3.5004,-3.5042,-3.5042,-3.5061,-3.4929,-3.2714,-3.1523,-3.0868,-2.8748,-2.7484,-2.6778,-2.6105,-2.5663,-2.5373,-2.5022,-2.4659,-2.4581,-2.4762,-2.51,-2.5399,-2.5053,-2.5001,-6.6536,-6.5627,-6.5217,-6.5016,-6.4792,-6.3174,-6.2381,-6.2141,-6.1131,-6.0991,-6.1517,-6.224,-6.2076,-6.1616,-6.2175,-6.2109,-6.1578,-5.9762,-5.9031,-5.8566,-5.66,-5.5253,-5.4718,-5.4749,-5.3276,-5.1342,-5.2033,-5.2147,-5.1811,-5.246,-5.2969,-5.2582,-5.1586,-5.1037,-5.1099,-5.0526,-5.0905,-5.1613,-5.1925,-5.2299,-5.3232,-5.2806,-5.2832,-5.3163,-5.2227,-5.1725,-5.118,-5.0606,-4.9545,-4.8226,-4.7393,-4.6858,-4.617,-4.6026,-4.6123,-4.6928,-4.7441,-4.8173,-4.8344,-4.9003,-4.9345,-4.9149,-4.9223,-4.954,-4.9508,-4.8507,-4.7299,-4.533,-4.5304,-4.5362,-4.4718,-4.3558,-4.1092,-3.8406,-3.7546,-3.7018,-3.588,-3.5726,-3.5517,-3.5156,-3.5004,-3.5004,-3.5004,-3.5004,-3.5004,-3.5042,-3.5175,-3.5137,-3.5118,-3.5004,-3.5004,-3.5004,-3.5004,-3.5156,-3.5251,-3.527,-3.5289,-3.5156,-3.3632,-3.2711,-3.0902,-2.7697,-2.7204,-2.737,-2.6778,-2.6386,-2.6217,-2.597,-2.5542,-2.5334,-2.5425,-2.5645,-2.553,-2.5349,-2.54,-6.7338,-6.618,-6.506,-6.4562,-6.4293,-6.2584,-6.1863,-6.1722,-6.1016,-6.0662,-6.0892,-6.1364,-6.1671,-6.0728,-6.109,-6.1484,-6.1145,-5.8749,-5.7783,-5.8201,-5.6551,-5.5068,-5.4531,-5.4343,-5.2803,-5.0685,-5.0932,-5.1173,-5.0986,-5.1648,-5.2202,-5.313,-5.1611,-5.1144,-5.1022,-5.0726,-5.1026,-5.2061,-5.2335,-5.2781,-5.3775,-5.3411,-5.3406,-5.3952,-5.2639,-5.1887,-5.1623,-5.0301,-4.9171,-4.8301,-4.7464,-4.7123,-4.7246,-4.6489,-4.6489,-4.7344,-4.7589,-4.7832,-4.8368,-4.9174,-4.9442,-4.9149,-4.9808,-4.954,-4.954,-4.8632,-4.7231,-4.5834,-4.6365,-4.6734,-4.6028,-4.4868,-4.2456,-3.9545,-3.8285,-3.743,-3.6536,-3.6366,-3.6352,-3.5802,-3.5745,-3.5783,-3.5821,-3.5821,-3.5802,-3.5802,-3.584,-3.584,-3.5953,-3.6032,-3.607,-3.5803,-3.5613,-3.5536,-3.5555,-3.5574,-3.5477,-3.5418,-3.4758,-3.3841,-3.1641,-2.8737,-2.8501,-2.7871,-2.715,-2.6879,-2.6814,-2.6749,-2.6554,-2.6204,-2.6308,-2.6399,-2.6197,-2.6,-2.6197,-6.8016,-6.7641,-6.5518,-6.4609,-6.4234,-6.2584,-6.1792,-6.1651,-6.0983,-6.0629,-6.1166,-6.2882,-6.2882,-6.1331,-6.1525,-6.1493,-6.0505,-5.8105,-5.7141,-5.6947,-5.6112,-5.5549,-5.5142,-5.3311,-5.2135,-5.1262,-4.9848,-4.9958,-5.1335,-5.1548,-5.1073,-5.0922,-5.1424,-5.1584,-5.1697,-5.0538,-5.1642,-5.3577,-5.2612,-5.2826,-5.4417,-5.4352,-5.459,-5.4541,-5.3741,-5.3172,-5.2839,-5.1458,-4.9832,-4.8521,-4.8588,-4.8442,-4.8198,-4.8124,-4.7856,-4.8002,-4.9027,-4.8881,-4.9052,-5.0418,-5.1663,-5.0906,-5.1516,-5.2972,-5.2483,-5.1244,-4.9693,-4.7884,-4.9243,-5.0167,-4.9106,-4.7292,-4.5268,-4.2722,-4.0594,-3.8507,-3.7075,-3.7217,-3.7301,-3.7244,-3.7301,-3.7282,-3.7175,-3.7111,-3.713,-3.713,-3.7092,-3.7016,-3.6998,-3.6979,-3.7296,-3.7143,-3.6913,-3.6756,-3.6561,-3.658,-3.6303,-3.6129,-3.5671,-3.4836,-3.3468,-3.1687,-3.0865,-2.874,-2.7256,-2.7294,-2.7269,-2.7191,-2.7061,-2.6879,-2.697,-2.7243,-2.7256,-2.6963,-2.6924,-6.9925,-6.7961,-6.6576,-6.5177,-6.3561,-6.2381,-6.1575,-6.1057,-6.0748,-6.0629,-6.0761,-6.1803,-6.1638,-6.0815,-6.0385,-6.0048,-5.9387,-5.713,-5.6034,-5.5881,-5.4938,-5.5389,-5.6302,-5.4091,-5.2228,-5.1032,-5.1283,-5.1659,-5.1601,-5.2102,-5.2566,-5.2663,-5.2541,-5.2581,-5.2504,-5.2103,-5.198,-5.2727,-5.3231,-5.3835,-5.4494,-5.464,-5.4933,-5.525,-5.4097,-5.296,-5.2398,-5.292,-5.2445,-5.1504,-5.1248,-5.054,-4.9247,-4.8612,-4.8271,-4.832,-4.8612,-4.9027,-4.9271,-5.054,-5.076,-5.0662,-5.1394,-5.2176,-5.2183,-5.1904,-5.1794,-5.0843,-5.0957,-5.0576,-5.0156,-4.7253,-4.5142,-4.5294,-4.4477,-4.2677,-3.9432,-3.8478,-3.8136,-3.7784,-3.7529,-3.7468,-3.7468,-3.7423,-3.7472,-3.7472,-3.7472,-3.7472,-3.7444,-3.7591,-3.7471,-3.7548,-3.7709,-3.7728,-3.7567,-3.7425,-3.714,-3.6923,-3.6587,-3.5903,-3.4354,-3.2512,-3.0861,-2.8654,-2.7385,-2.7385,-2.7385,-2.7385,-2.7385,-2.7385,-2.7282,-2.7385,-2.7385,-2.7385,-2.7385,-7.1089,-6.8987,-6.7358,-6.5474,-6.3469,-6.2499,-6.1538,-6.0629,-6.0629,-6.0629,-6.0629,-6.0629,-6.0629,-6.0366,-5.9435,-5.8917,-5.867,-5.6582,-5.545,-5.5443,-5.5174,-5.5869,-5.702,-5.5913,-5.3732,-5.1586,-5.2042,-5.2207,-5.2201,-5.2663,-5.3591,-5.4421,-5.4201,-5.403,-5.417,-5.403,-5.3957,-5.3591,-5.4591,-5.5323,-5.5641,-5.5665,-5.6007,-5.647,-5.5006,-5.3713,-5.3054,-5.4347,-5.4396,-5.3005,-5.303,-5.22,-5.0589,-4.9613,-4.9247,-4.9271,-4.9515,-5.0101,-5.0736,-5.1419,-5.2029,-5.2005,-5.2541,-5.2975,-5.2974,-5.308,-5.3511,-5.3975,-5.327,-5.2307,-5.2276,-4.9065,-4.7869,-4.8384,-4.6964,-4.4124,-4.1563,-3.9921,-3.9016,-3.8604,-3.8383,-3.8386,-3.8616,-3.8463,-3.8421,-3.8402,-3.8364,-3.8364,-3.8402,-3.8437,-3.8326,-3.8352,-3.8257,-3.8478,-3.8649,-3.8763,-3.8597,-3.8437,-3.7855,-3.7297,-3.403,-3.1731,-2.9895,-2.8328,-2.77,-2.7385,-2.7385,-2.7385,-2.7385,-2.7385,-2.7385,-2.7385,-2.7385,-2.7385,-2.7385,-7.1414,-7.0664,-6.7731,-6.5648,-6.422,-6.3366,-6.2022,-6.1035,-6.0827,-6.0936,-6.0629,-6.0629,-6.0553,-6.0289,-5.9161,-5.893,-5.8526,-5.6586,-5.5606,-5.5869,-5.6787,-5.7323,-5.7643,-5.7719,-5.5913,-5.3146,-5.0942,-5.1039,-5.2908,-5.3152,-5.3786,-5.4787,-5.5714,-5.6007,-5.6178,-5.608,-5.6592,-5.691,-5.6446,-5.669,-5.7691,-5.7617,-5.7642,-5.7642,-5.6715,-5.6056,-5.608,-5.6153,-5.5275,-5.3469,-5.3127,-5.2541,-5.1492,-5.1175,-5.1272,-5.1272,-5.22,-5.2761,-5.3054,-5.4469,-5.5128,-5.5348,-5.586,-5.5568,-5.5611,-5.5762,-5.5905,-5.6126,-5.6495,-5.7007,-5.6031,-5.5206,-5.3997,-5.1633,-4.7324,-4.4573,-4.3225,-4.1513,-4.0244,-4.0829,-4.0433,-4.0433,-4.0734,-4.0262,-3.9712,-3.9674,-3.9655,-3.9636,-3.9617,-3.9562,-3.994,-3.9807,-3.9541,-3.9332,-3.9636,-3.9921,-3.9883,-3.9732,-3.8934,-3.7305,-3.3906,-3.1556,-2.9867,-2.8178,-2.7385,-2.7385,-2.7385,-2.7385,-2.7385,-2.7385,-2.7398,-2.7398,-2.7437,-2.7476,-2.745,-7.1928,-7.0235,-6.9151,-6.7472,-6.5661,-6.5325,-6.3987,-6.2286,-6.3146,-6.2441,-6.0827,-6.0629,-6.0211,-5.9323,-5.8221,-5.8183,-5.8783,-5.6671,-5.6044,-5.6887,-5.7323,-5.7934,-5.8379,-5.7163,-5.6427,-5.5755,-5.2735,-5.2075,-5.395,-5.4103,-5.5079,-5.6715,-5.7154,-5.7398,-5.7373,-5.7373,-5.7105,-5.691,-5.7178,-5.7105,-5.6861,-5.7495,-5.7886,-5.7837,-5.7569,-5.7373,-5.7373,-5.7373,-5.6373,-5.4469,-5.4128,-5.3298,-5.1797,-5.1552,-5.1552,-5.1577,-5.1919,-5.2249,-5.303,-5.3664,-5.4396,-5.5079,-5.5787,-5.6153,-5.6201,-5.6859,-5.7321,-5.7278,-5.7082,-5.7082,-5.7229,-5.7349,-5.6083,-5.3116,-5.1216,-4.8944,-4.5428,-4.3385,-4.2358,-4.2123,-4.1857,-4.1472,-4.1358,-4.098,-4.0623,-4.0016,-3.9997,-3.9997,-3.9997,-3.9997,-3.9997,-3.9997,-3.9997,-3.9997,-4.0452,-4.0433,-4.0263,-4.0052,-3.9415,-3.674,-3.3939,-3.2212,-3.0335,-2.8314,-2.7385,-2.7385,-2.7385,-2.7385,-2.7385,-2.7385,-2.7645,-2.8035,-2.8033,-2.7736,-2.7902,-7.2523,-7.0634,-6.989,-6.8385,-6.663,-6.6563,-6.5481,-6.3734,-6.452,-6.386,-6.224,-6.1119,-6.055,-6.0305,-5.9155,-5.8693,-5.8474,-5.7506,-5.7352,-5.8109,-5.8632,-5.9272,-5.9773,-5.8395,-5.7682,-5.7047,-5.466,-5.3577,-5.4139,-5.4469,-5.5543,-5.7081,-5.7715,-5.7886,-5.7886,-5.7886,-5.7593,-5.6983,-5.752,-5.7569,-5.7032,-5.7544,-5.7886,-5.7886,-5.7886,-5.7886,-5.7886,-5.7886,-5.691,-5.4738,-5.464,-5.364,-5.1736,-5.1552,-5.1552,-5.1601,-5.1785,-5.2322,-5.2956,-5.3371,-5.3908,-5.4616,-5.5299,-5.5665,-5.6201,-5.6862,-5.7422,-5.7642,-5.7229,-5.7106,-5.7642,-5.7082,-5.5987,-5.4027,-5.2755,-5.0233,-4.7234,-4.4729,-4.3311,-4.3079,-4.2928,-4.2796,-4.2294,-4.1522,-4.0942,-4.0604,-4.0206,-4.0016,-3.9997,-3.9997,-3.9997,-3.9997,-4.0016,-4.0529,-4.1307,-4.1383,-4.1117,-4.0837,-4.0098,-3.8093,-3.5987,-3.4263,-3.1898,-2.9892,-2.9026,-2.8957,-2.9138,-2.9021,-2.8216,-2.8268,-2.8723,-2.8983,-2.9106,-2.8999,-2.8751,-7.3046,-7.1927,-7.005,-6.8442,-6.7172,-6.7224,-6.635,-6.5035,-6.5167,-6.5035,-6.4395,-6.2157,-6.1669,-6.2706,-6.1483,-5.9951,-5.8134,-5.8719,-5.9156,-5.9475,-6.0581,-6.1108,-6.1166,-6.1054,-5.9306,-5.6607,-5.5598,-5.4635,-5.3069,-5.4006,-5.5153,-5.6324,-5.73,-5.7813,-5.7886,-5.7886,-5.7886,-5.7788,-5.7861,-5.7861,-5.7861,-5.7959,-5.8081,-5.8203,-5.8106,-5.8154,-5.8032,-5.8008,-5.6859,-5.4644,-5.4356,-5.3409,-5.1515,-5.1175,-5.1285,-5.1358,-5.2322,-5.2908,-5.3005,-5.3688,-5.4396,-5.4616,-5.4738,-5.5079,-5.6201,-5.6519,-5.7009,-5.7813,-5.7764,-5.7715,-5.7735,-5.6554,-5.5209,-5.4676,-5.1748,-4.9662,-4.8409,-4.5549,-4.3726,-4.3691,-4.3763,-4.3798,-4.3765,-4.2426,-4.1642,-4.134,-4.064,-4.0357,-4.0585,-4.0357,-4.0452,-4.0528,-4.0642,-4.1231,-4.4002,-4.3547,-4.3414,-4.3476,-4.2588,-4.1416,-3.9197,-3.6931,-3.4239,-3.2031,-3.074,-3.0294,-3.0736,-3.0541,-2.9879,-2.9242,-2.9671,-3.0253,-3.0355,-3.0149,-2.9987,-7.1351,-7.0993,-6.9747,-6.9013,-6.8652,-6.8652,-6.7797,-6.6646,-6.7557,-6.6864,-6.4936,-6.4182,-6.3599,-6.3088,-6.1914,-6.0972,-6.0167,-5.9592,-5.9824,-6.0755,-6.0992,-6.1166,-6.0941,-5.8955,-5.723,-5.613,-5.4043,-5.2605,-5.2201,-5.2956,-5.486,-5.7007,-5.6934,-5.7105,-5.7813,-5.7886,-5.7886,-5.7886,-5.7886,-5.7886,-5.8032,-5.8667,-5.9423,-6.0082,-6.018,-5.9838,-5.9106,-5.9082,-5.7402,-5.3731,-5.2885,-5.1275,-4.8576,-4.8997,-4.9453,-4.95,-5.1012,-5.1993,-5.1993,-5.2151,-5.2981,-5.4421,-5.464,-5.5397,-5.6934,-5.7373,-5.7569,-5.7886,-5.7886,-5.7886,-5.791,-5.7409,-5.7058,-5.673,-5.3273,-5.0878,-5.0329,-4.6922,-4.4498,-4.4517,-4.4517,-4.4554,-4.4517,-4.3703,-4.3053,-4.2852,-4.2408,-4.2161,-4.3186,-4.2559,-4.2275,-4.3578,-4.254,-4.2939,-4.4477,-4.4591,-4.4515,-4.4799,-4.4894,-4.295,-3.8804,-3.7928,-3.6227,-3.2495,-3.1393,-3.1112,-3.2333,-3.2826,-3.2514,-3.0813,-3.0294,-3.0774,-3.1429,-3.0813,-3.0619,-7.1185,-7.0625,-6.9609,-6.9276,-6.9276,-6.9276,-6.8718,-6.7994,-6.8877,-6.7941,-6.5964,-6.5336,-6.4397,-6.3282,-6.256,-6.1879,-6.122,-6.0493,-6.0581,-6.1108,-6.1166,-6.1166,-6.0941,-5.8574,-5.6961,-5.613,-5.3786,-5.2167,-5.1675,-5.2053,-5.381,-5.6251,-5.6397,-5.6788,-5.7813,-5.7886,-5.7886,-5.7886,-5.7886,-5.7362,-5.6495,-5.683,-5.7387,-5.8062,-5.8132,-5.7852,-5.7202,-5.7132,-5.568,-5.2618,-5.1742,-5.0188,-4.7254,-4.7679,-4.7757,-4.7492,-4.8581,-4.943,-5.0294,-5.0992,-5.2115,-5.3225,-5.3322,-5.4206,-5.6397,-5.6518,-5.7007,-5.7691,-5.7886,-5.7886,-5.7886,-5.7886,-5.7584,-5.6248,-5.3048,-5.046,-5.0124,-4.6914,-4.497,-4.4989,-4.4989,-4.497,-4.4894,-4.4553,-4.4306,-4.4192,-4.3907,-4.3812,-4.4648,-4.4192,-4.404,-4.4724,-4.4875,-4.5236,-4.6679,-4.6565,-4.6451,-4.6736,-4.6527,-4.4685,-4.0856,-3.9398,-3.7569,-3.3009,-3.2527,-3.2956,-3.4034,-3.4008,-3.393,-3.3008,-3.2203,-3.2281,-3.2722,-3.2281,-3.2108,-7.1463,-7.0578,-6.9557,-6.9276,-6.9276,-6.9276,-6.9244,-6.9211,-6.9244,-6.8405,-6.686,-6.5723,-6.4438,-6.3282,-6.313,-6.2376,-6.1279,-6.1166,-6.1137,-6.1166,-6.1166,-6.1166,-6.0799,-5.9334,-5.774,-5.6006,-5.4273,-5.2668,-5.1577,-5.1614,-5.2615,-5.4396,-5.5665,-5.6837,-5.7935,-5.8081,-5.7979,-5.7876,-5.7724,-5.636,-5.4097,-5.4057,-5.4079,-5.4166,-5.4187,-5.4144,-5.4397,-5.3971,-5.3062,-5.1115,-5.0867,-4.9416,-4.6944,-4.6768,-4.644,-4.551,-4.573,-4.644,-4.8166,-5.0134,-5.1224,-5.1407,-5.1601,-5.2672,-5.4695,-5.4814,-5.5592,-5.7373,-5.7886,-5.7886,-5.7886,-5.7886,-5.7082,-5.5102,-5.1902,-4.9237,-4.8286,-4.6264,-4.4989,-4.4989,-4.4989,-4.5008,-4.516,-4.5141,-4.5122,-4.5293,-4.5236,-4.5426,-4.5843,-4.5578,-4.5407,-4.5862,-4.6679,-4.8178,-4.9128,-4.8615,-4.8349,-4.9317,-4.8634,-4.5901,-4.2947,-4.0929,-3.9312,-3.4797,-3.3891,-3.3826,-3.4164,-3.4177,-3.4138,-3.3709,-3.3774,-3.4047,-3.4073,-3.3657,-3.3462,-6.978,-6.9557,-6.9331,-6.9276,-6.9276,-6.9276,-6.9276,-6.9276,-6.9276,-6.7861,-6.5777,-6.4661,-6.3274,-6.1777,-6.1725,-6.1502,-6.1279,-6.1166,-6.1166,-6.1166,-6.1166,-6.0572,-5.9306,-5.7713,-5.6006,-5.44,-5.2799,-5.1819,-5.165,-5.2273,-5.2932,-5.3518,-5.5299,-5.7203,-5.9106,-5.9155,-5.8539,-5.7617,-5.5808,-5.4874,-5.5161,-5.5226,-5.5595,-5.6246,-5.6311,-5.5986,-5.5248,-5.451,-5.2734,-4.9957,-4.8572,-4.6612,-4.3862,-4.4286,-4.4374,-4.3672,-4.485,-4.5851,-4.644,-4.8166,-4.9644,-5.0347,-5.1928,-5.3526,-5.5438,-5.5619,-5.6246,-5.7694,-5.7886,-5.7886,-5.791,-5.7886,-5.7082,-5.4792,-5.2462,-5.0018,-4.8327,-4.6264,-4.4989,-4.4989,-4.4989,-4.5274,-4.5787,-4.5957,-4.6204,-4.6698,-4.6888,-4.7495,-4.8444,-4.7666,-4.7609,-4.8482,-4.9184,-4.9602,-4.9849,-4.9583,-4.9583,-4.9849,-4.9621,-4.7227,-4.3599,-4.1974,-3.9802,-3.5498,-3.419,-3.419,-3.419,-3.419,-3.419,-3.419,-3.419,-3.419,-3.419,-3.4021,-3.406,-6.9609,-6.9276,-6.9276,-6.9276,-6.9276,-6.9276,-6.9276,-6.9276,-6.9276,-6.777,-6.5315,-6.4358,-6.295,-6.125,-6.1166,-6.1166,-6.1166,-6.1166,-6.1166,-6.1166,-6.1166,-6.0799,-5.9826,-5.7499,-5.5882,-5.4881,-5.2693,-5.1822,-5.2224,-5.3249,-5.4006,-5.4591,-5.6178,-5.7185,-5.7926,-5.8292,-5.7619,-5.5922,-5.3305,-5.188,-5.1921,-5.1572,-5.1777,-5.2661,-5.3112,-5.2886,-5.1827,-5.11,-4.9351,-4.6945,-4.5976,-4.4446,-4.2206,-4.2414,-4.2478,-4.1608,-4.2564,-4.3423,-4.4273,-4.528,-4.6944,-4.9321,-5.1268,-5.3258,-5.5345,-5.5719,-5.6319,-5.7691,-5.7886,-5.7886,-5.791,-5.681,-5.5186,-5.3341,-5.0309,-4.804,-4.6835,-4.561,-4.497,-4.5008,-4.5312,-4.5768,-4.6162,-4.6622,-4.7096,-4.7875,-4.8027,-4.8501,-4.9697,-4.9184,-4.8995,-4.9811,-5.002,-5.002,-5.002,-5.002,-5.002,-5.002,-5.002,-4.7835,-4.3459,-4.2267,-3.9893,-3.5566,-3.419,-3.419,-3.419,-3.419,-3.419,-3.419,-3.419,-3.419,-3.419,-3.419,-3.419,-6.9999,-6.9276,-6.9276,-6.9276,-6.9276,-6.9276,-6.9276,-6.9276,-6.9276,-6.777,-6.5278,-6.4351,-6.2936,-6.1166,-6.1166,-6.1166,-6.1166,-6.1166,-6.1166,-6.1195,-6.1054,-6.0799,-6.0429,-5.7472,-5.5962,-5.5746,-5.3201,-5.2444,-5.3518,-5.4591,-5.5641,-5.669,-5.7666,-5.7675,-5.685,-5.7364,-5.6236,-5.3288,-5.1005,-4.9116,-4.778,-4.7134,-4.6926,-4.7153,-4.8208,-4.8027,-4.6831,-4.6185,-4.5065,-4.3319,-4.3129,-4.2351,-4.0851,-4.0699,-4.0509,-4.0016,-3.9845,-4.0499,-4.2068,-4.2094,-4.3792,-4.766,-5.0222,-5.2198,-5.4069,-5.5359,-5.6538,-5.7593,-5.7861,-5.7886,-5.7735,-5.5777,-5.3808,-5.1712,-4.8182,-4.5492,-4.5064,-4.497,-4.4989,-4.4989,-4.5711,-4.6318,-4.654,-4.7088,-4.7951,-4.8691,-4.89,-4.9165,-4.983,-5.002,-5.002,-5.002,-5.002,-5.002,-5.002,-5.002,-5.002,-5.002,-5.002,-4.8426,-4.385,-4.2676,-4.0489,-3.5769,-3.4573,-3.4381,-3.419,-3.419,-3.419,-3.419,-3.419,-3.419,-3.419,-3.419,-3.419,-6.9384,-6.9276,-6.9276,-6.9276,-6.9276,-6.9276,-6.9276,-6.9276,0.0,0.0,0.0,-6.4029,-6.2612,-6.1279,-6.1166,-6.1166,-6.1166,-6.1166,-6.1166,-6.1195,-5.9913,-5.8574,-5.7109,-5.5285,-5.4012,-5.3665,-5.3894,-5.4616,-5.5665,-5.6788,-5.7886,-5.8862,-5.913,-5.9561,-6.0059,-5.9254,-5.6203,-5.0957,-5.0138,-4.9785,-4.9583,-4.9431,-4.8102,-4.5483,-4.6888,-4.6337,-4.3547,-4.3926,-4.3091,-4.0775,-3.9978,-3.9181,-3.8231,-3.8155,-3.8706,-3.9826,-3.9313,-3.9081,-3.9336,-3.8846,-4.0419,-4.4948,-4.9095,-5.1606,-5.2028,-5.5481,-5.7293,-5.6504,-5.7366,-5.7886,-5.7886,-5.7361,-5.5611,-5.1959,-5.0867,-4.8716,-4.5441,-4.4989,-4.4989,-4.5065,-4.573,-4.6508,-4.7032,-4.7989,-4.8824,-4.9583,-4.9716,-4.9887,-4.9982,-5.002,-5.002,-5.002,-5.002,-5.002,-5.002,-5.002,-5.002,-5.002,-4.9831,-4.8844,-4.6053,-4.3671,-4.1099,-3.7563,-3.5566,-3.4381,-3.419,-3.419,-3.419,-3.419,-3.419,-3.419,-3.419,-3.419,-3.419,-6.9276,0.0,-6.9276,-6.9276,0.0,-6.9276,-6.9276,-6.9276,-6.9276,-6.777,-6.5309,-6.3943,-6.2653,-6.1166,-6.1166,-6.1166,-6.1166,-6.1166,-6.1166,-6.1166,-6.0429,-5.9595,-5.872,-5.6253,-5.494,-5.4761,-5.4075,-5.4372,-5.5519,-5.7666,-5.9253,-6.0253,-6.0839,-6.079,-6.0145,-5.8261,-5.4972,-5.0001,-4.8748,-4.833,-4.8691,-4.833,-4.7514,-4.6318,-4.7039,0.0,0.0,0.0,0.0,0.0,0.0,0.0,0.0,0.0,0.0,-3.6181,-3.4188,-3.303,-3.2992,-3.3123,-3.5696,-4.1285,-4.4444,-4.4357,-4.0354,-5.0042,-5.509,-5.258,-5.5138,-5.7056,-5.6932,-5.5658,-5.388,-5.1799,-4.9537,-4.7415,-4.531,-4.4989,-4.4989,-4.5084,-4.6071,-4.6918,-4.7381,-4.8526,-4.9545,-4.9944,-5.002,-5.0001,-5.002,-5.002,-5.002,-5.002,-5.002,-5.002,-5.002,-5.002,-5.002,-4.9812,-4.8826,-4.7033,-4.4468,-4.1889,-3.934,-3.6756,-3.5172,-3.4177,-3.419,-3.419,-3.419,-3.419,-3.419,-3.419,-3.419,-3.419,-3.419,-6.9276,-6.9276,-6.9276,-6.9276,-6.9276,-6.9276,-6.9276,-6.9276,-6.9276,-6.777,-6.5178,-6.3659,-6.2297,-6.1279,-6.1166,-6.1166,-6.1166,-6.1166,-6.1166,-6.1166,-6.0941,-6.0656,-6.02,-5.723,-5.5864,-5.5653,-5.432,-5.4299,-5.5616,-5.8618,-6.0619,-6.1644,-6.2498,-6.2083,-6.0255,0.0,0.0,0.0,-4.7922,-4.7286,-4.7894,-4.7305,-4.6907,-4.6774,-4.7058,0.0,-4.4173,-4.2958,-4.1439,-3.9636,-3.9351,0.0,0.0,0.0,0.0,0.0,0.0,0.0,0.0,0.0,0.0,0.0,-3.8162,-3.6372,-3.0953,-4.3389,-5.0365,-4.7298,-5.2211,-5.5543,-5.5079,-5.3042,-5.1504,-5.0913,-4.7876,-4.5546,-4.4761,-4.4894,-4.4989,-4.5008,-4.6299,-4.7259,-4.7387,-4.8847,-4.9811,-4.9982,-5.002,-5.002,-5.002,-5.002,-5.002,-5.002,-5.002,-5.002,-5.002,-5.002,-5.002,-4.9812,-4.8027,-4.6035,-4.3655,-4.0917,-3.8153,-3.5769,-3.4573,-3.419,-3.419,-3.419,-3.419,-3.419,-3.419,-3.419,-3.419,-3.419,-3.419,-6.9276,-6.9276,-6.9276,-6.9276,-6.9276,-6.9276,-6.9276,-6.9276,-6.9276,-6.777,-6.5178,-6.2593,-6.1391,-6.1166,-6.1166,-6.1166,-6.1166,-6.1166,-6.1166,-6.1166,-5.9798,-5.8456,-5.6988,-5.5033,-5.3933,-5.3543,-5.4978,-5.6861,-5.8935,-6.1107,-6.2791,-6.384,-6.4011,-6.3938,-6.348,-5.8277,-5.3433,-4.8973,-4.929,-4.9583,-4.9697,-4.9602,-4.7837,-4.4515,-4.5635,-4.4572,-4.087,-4.1155,-4.0319,-3.7966,-3.7092,-3.6713,-3.6675,-3.4947,-3.3524,0.0,-3.005,0.0,0.0,0.0,0.0,0.0,0.0,0.0,0.0,-3.8817,-4.1761,-4.1227,-4.9014,-5.2981,-5.0809,-5.2009,-5.1777,-4.9321,-4.9051,-4.7662,-4.4423,-4.4534,-4.4989,-4.4989,-4.6036,-4.6931,-4.7297,-4.8311,-4.9222,-4.983,-4.9963,-4.9944,-5.0001,-5.0001,-5.002,-5.002,-5.002,-5.002,-5.002,-5.002,-5.002,-5.0039,-4.9433,-4.8635,-4.5649,-4.3084,-4.0703,-3.7952,-3.5579,-3.419,-3.419,-3.419,-3.419,-3.419,-3.419,-3.419,-3.419,-3.419,-3.419,-6.9276,-6.9276,-6.9276,-6.9276,-6.9276,-6.9276,-6.9276,-6.9276,-6.9276,-6.777,-6.5278,-6.3986,-6.2701,-6.1279,-6.1166,-6.1166,-6.1166,-6.1166,-6.1166,-6.1166,-5.9595,-5.8456,-5.774,-5.5159,-5.3679,-5.3577,-5.4106,-5.4957,-5.6007,-5.8057,-5.9643,-6.0741,-6.1351,-5.9637,-5.5645,-5.4524,-5.2629,-5.0152,-4.9558,-4.9545,-5.0001,-5.002,-4.8919,-4.6622,-4.6793,-4.5597,-4.2863,-4.2673,-4.1724,-3.9693,-3.8782,-3.8099,-3.7529,-3.2537,-3.0159,0.0,0.0,0.0,0.0,0.0,0.0,0.0,0.0,0.0,0.0,0.0,-3.7435,-4.5808,-5.0062,-5.0574,-4.5782,-4.6734,-4.7102,-4.5435,-4.3451,-4.2382,-4.2301,-4.2692,-4.3262,-4.4192,-4.5597,-4.6546,-4.6793,-4.7889,-4.8925,-4.9298,-4.9317,-4.9317,-4.9336,-4.9754,-5.002,-5.002,-5.002,-5.002,-5.002,-5.002,-5.002,-4.9831,-4.8826,-4.6841,-4.4273,-4.1692,-3.914,-3.6567,-3.4981,-3.419,-3.419,-3.419,-3.419,-3.419,-3.419,-3.419,-3.419,-3.419,-3.419,-6.9276,-6.9025,-6.7764,-6.7402,-6.7698,-6.7698,-6.7896,-6.8191,-6.8224,-6.686,-6.4705,-6.4443,-6.2493,-5.9381,-5.8127,-5.8359,-5.9475,-5.9466,-6.0155,-6.1166,-5.9566,-5.872,-5.8099,-5.5285,-5.3657,-5.3216,-5.29,-5.2908,-5.3469,-5.5055,-5.6031,-5.6373,-5.6103,-5.3135,-4.7658,-4.9171,-4.9931,-4.9552,-4.8742,-4.8558,-4.9393,-4.9621,-4.9222,-4.8178,-4.7514,-4.6394,-4.4761,-4.3907,-4.2806,-4.1326,-3.9693,-3.8516,-3.7776,-3.0316,0.0,0.0,0.0,0.0,0.0,0.0,0.0,0.0,0.0,-3.1087,-3.0276,0.0,-3.3189,0.0,-4.5998,-4.4781,-4.2084,-4.2541,0.0,0.0,-3.8513,-3.7108,-3.9221,-3.9448,-4.0199,-4.2635,-4.429,-4.5384,-4.6185,-4.7437,-4.8157,-4.8235,-4.8292,-4.852,-4.871,-4.9203,-4.9583,-4.9925,-5.002,-5.002,-5.002,-5.002,-5.002,-5.002,-4.8445,-4.6053,-4.3459,-4.0917,-3.8138,-3.5769,-3.4777,-3.4177,-3.419,-3.419,-3.419,-3.419,-3.419,-3.419,-3.419,-3.419,-3.419,-6.9276,-6.8783,-6.3523,-6.2076,-6.3339,-6.326,-6.4049,-6.5265,-6.5265,-6.448,-6.3076,-6.1981,-5.8758,-5.3854,-4.9482,0.0,-5.424,-5.4509,-5.6991,-6.1195,-5.9566,-5.8099,-5.6472,-5.4755,-5.3035,-5.1686,-5.165,-5.2566,-5.4396,-5.4665,-5.381,-5.1907,-4.8105,-4.5455,-4.3804,-4.3104,-4.3658,-4.5424,-4.6188,-4.685,-4.7666,-4.8425,-4.8064,-4.6489,-4.6375,-4.5559,-4.3945,-4.3072,-4.2218,-4.1212,-3.751,-3.5384,-3.5118,0.0,0.0,0.0,0.0,0.0,0.0,0.0,0.0,0.0,0.0,0.0,0.0,0.0,0.0,0.0,-3.0094,0.0,-4.1065,-4.1913,0.0,0.0,0.0,-3.5436,-3.4742,-3.4136,-3.554,-3.9789,0.0,0.0,-4.5938,-4.6413,-4.6489,-4.6451,-4.7096,-4.7856,-4.8615,-4.8619,-4.8772,-4.9792,-5.0001,-5.002,-5.002,-5.002,-5.002,-5.002,-4.9849,-4.8617,-4.6053,-4.3459,-4.0917,-3.8153,-3.5769,-3.419,-3.419,-3.4138,-3.419,-3.4164,-3.4164,-3.4151,-3.4112,-3.4112,-3.4112,-6.4082,-5.9896,-5.8078,-5.7525,-5.8066,-5.8988,-6.0678,-6.2707,-6.3347,-6.1897,-5.8957,-5.8506,-5.5033,-4.9453,-4.757,0.0,0.0,0.0,-5.2534,-5.5787,-5.6289,-5.6675,-5.655,-5.4693,-5.3554,-5.293,-5.1927,-5.1858,-5.2688,-5.2712,-4.8368,-4.0071,0.0,0.0,-3.4987,-3.8403,-4.0495,-4.1174,-4.4002,-4.5881,-4.6736,-4.7552,-4.7419,-4.6299,-4.5749,-4.4932,-4.3793,-4.1743,-3.9868,-3.82,-3.3967,-3.0926,0.0,0.0,0.0,0.0,0.0,0.0,0.0,0.0,0.0,0.0,0.0,-2.2972,-2.4993,0.0,0.0,0.0,-2.0947,-2.4808,-3.1394,-3.5634,0.0,0.0,0.0,0.0,0.0,0.0,0.0,-3.5175,-3.7551,-3.9925,-4.2225,-4.3357,-4.4192,-4.4686,-4.5881,-4.685,-4.7172,0.0,-4.8608,-4.909,-4.9678,-5.002,-5.002,-5.002,-5.002,-5.002,-5.002,-4.9016,-4.6438,-4.3867,-4.1297,-3.854,-3.5972,-3.419,-3.419,-3.3605,-3.3333,-3.4021,-3.3644,-3.3177,-3.3138,-3.3545,-3.3754,-5.7006,0.0,0.0,0.0,0.0,-5.1663,-5.3534,-5.5969,-5.7131,-5.564,-5.2439,-5.2494,0.0,0.0,0.0,0.0,0.0,0.0,-4.8444,-5.1254,-5.3794,-5.5535,-5.6288,-5.4351,-5.3291,-5.2788,-5.1417,-5.0226,-4.9101,-4.788,-4.1682,-3.0993,0.0,0.0,0.0,0.0,-3.6686,-3.7738,-4.2028,-4.4705,-4.5521,-4.6337,-4.6584,-4.6261,-4.5198,-4.3895,-4.2554,-3.9496,-3.6802,-3.4315,-2.8961,0.0,0.0,0.0,0.0,0.0,0.0,0.0,0.0,0.0,0.0,0.0,0.0,0.0,0.0,0.0,0.0,0.0,0.0,0.0,-2.537,-3.09,-3.3502,0.0,0.0,0.0,0.0,0.0,0.0,0.0,0.0,0.0,-3.7423,-3.9579,-4.1667,0.0,0.0,-4.5976,-4.6204,-4.6993,-4.7547,-4.8094,-4.8177,0.0,-4.8185,-4.8425,-4.8577,-4.8577,-4.8976,-4.8271,-4.529,-4.3021,-4.051,-3.7412,-3.5097,-3.3837,-3.4186,-3.2832,-3.1865,-3.3177,-3.2501,-3.158,-3.1748,-3.2513,-3.3219,0.0,0.0,0.0,0.0,0.0,0.0,0.0,0.0,-4.4866,-4.4672,0.0,-4.3405,0.0,0.0,0.0,0.0,0.0,-4.0036,0.0,0.0,-5.2918,-5.506,-5.4894,-5.3291,-5.1838,-5.0383,-4.9241,-4.6943,-4.3366,-3.9412,0.0,0.0,0.0,0.0,0.0,0.0,-3.1116,-3.5118,-4.0092,-4.3015,-4.385,-4.4667,-4.5445,-4.6147,-4.4667,-4.2333,-3.9531,-3.6443,-3.3181,-2.9669,-2.2379,0.0,0.0,0.0,0.0,0.0,0.0,0.0,0.0,0.0,0.0,0.0,0.0,0.0,0.0,0.0,0.0,0.0,0.0,0.0,0.0,-2.949,0.0,0.0,0.0,0.0,0.0,0.0,0.0,0.0,0.0,0.0,-3.1859,-3.5118,-3.8858,-4.2104,0.0,0.0,0.0,0.0,-4.5578,-4.6398,-4.505,-4.4045,-4.4047,-4.4667,-4.516,-4.5198,0.0,0.0,-4.23,-4.0681,-3.8805,-3.4816,-3.3272,-3.3117,-3.4725,-3.1346,-2.9404,-3.1709,-3.0711,-2.9613,-2.9904,-3.1025,-3.2292,0.0,0.0,0.0,0.0,0.0,0.0,0.0,0.0,0.0,-4.1816,0.0,-3.87,0.0,0.0,0.0,0.0,0.0,0.0,0.0,0.0,-4.5327,-4.8366,-4.9075,-4.9952,-4.9195,0.0,-4.5158,-4.0548,0.0,0.0,0.0,0.0,0.0,0.0,0.0,0.0,-2.9525,-3.3554,-3.8864,-4.2123,-4.2977,-4.4268,-4.5122,-4.5388,-4.4344,-4.141,-3.6389,-3.2642,-2.9795,0.0,0.0,0.0,0.0,0.0,0.0,0.0,0.0,0.0,0.0,0.0,0.0,0.0,0.0,0.0,0.0,0.0,0.0,0.0,0.0,0.0,0.0,0.0,-2.8241,0.0,0.0,0.0,0.0,0.0,0.0,0.0,0.0,0.0,-2.7126,-3.1777,-3.5896,-3.8136,-4.2432,-4.5688,-4.6584,0.0,0.0,0.0,0.0,0.0,0.0,0.0,-4.3566,-4.4116,-4.2757,-4.1412,-4.0626,-3.9275,-3.8015,-3.7042,0.0,0.0,-2.8325,-2.7676,-2.7381,-2.6962,-2.7184,-2.7279,-2.664,-2.7421,-2.8118,0.0,0.0,0.0,0.0,0.0,0.0,0.0,0.0,0.0,-3.6943,-3.503,0.0,0.0,0.0,0.0,0.0,0.0,0.0,0.0,0.0,0.0,0.0,-4.4039,-4.595,0.0,0.0,0.0,0.0,0.0,0.0,0.0,0.0,0.0,0.0,0.0,0.0,-2.8997,-3.1991,-3.7806,-4.1117,-4.1686,-4.3566,-4.4572,-4.4553,-4.404,-4.1201,-3.5653,0.0,0.0,0.0,0.0,0.0,0.0,0.0,0.0,0.0,0.0,0.0,0.0,0.0,0.0,0.0,0.0,0.0,0.0,0.0,0.0,0.0,0.0,0.0,0.0,0.0,-2.5597,0.0,0.0,0.0,0.0,0.0,0.0,0.0,0.0,0.0,0.0,0.0,-3.284,-3.5702,-4.0839,-4.502,-4.7149,-4.9643,-5.0967,0.0,0.0,0.0,0.0,0.0,0.0,0.0,0.0,0.0,0.0,0.0,0.0,0.0,0.0,-2.7883,-2.3365,-2.4039,-2.4825,-2.2974,0.0,0.0,0.0,0.0,0.0,0.0,0.0,0.0,0.0,0.0,0.0,0.0,0.0,0.0,0.0,0.0,0.0,0.0,-2.66,0.0,0.0,0.0,0.0,0.0,0.0,0.0,0.0,0.0,0.0,0.0,0.0,0.0,0.0,0.0,0.0,0.0,0.0,0.0,0.0,0.0,0.0,-2.9268,-3.0307,-3.6688,-3.9997,-4.013,-4.2465,-4.3793,-4.3774,-4.3717,-4.1743,-3.7586,0.0,0.0,0.0,0.0,0.0,0.0,0.0,0.0,0.0,0.0,0.0,0.0,0.0,0.0,0.0,0.0,0.0,0.0,0.0,0.0,0.0,0.0,0.0,0.0,0.0,0.0,-2.4629,-2.7169,-2.8553,0.0,0.0,0.0,0.0,0.0,0.0,0.0,0.0,0.0,0.0,-3.932,-4.3298,-4.7631,-4.8561,-4.9323,-5.0045,-4.7148,-4.4671,-4.4642,-4.2818,-4.068,0.0,0.0,0.0,0.0,0.0,0.0,0.0,0.0,0.0,0.0,0.0,0.0,0.0,0.0,0.0,0.0,0.0,0.0,0.0,0.0,0.0,0.0,0.0,0.0,0.0,0.0,0.0,0.0,0.0,0.0,0.0,0.0,0.0,0.0,0.0,0.0,0.0,0.0,0.0,0.0,0.0,0.0,0.0,0.0,0.0,0.0,0.0,0.0,0.0,0.0,0.0,0.0,0.0,0.0,-2.9165,-3.2046,-3.663,-3.9655,-4.087,-4.2768,-4.3755,-4.3717,-4.2635,-4.0604,0.0,0.0,0.0,0.0,0.0,0.0,0.0,0.0,0.0,0.0,0.0,0.0,0.0,0.0,0.0,0.0,0.0,0.0,0.0,0.0,0.0,0.0,0.0,0.0,0.0,0.0,0.0,0.0,-2.8323,-2.8113,-2.6012,0.0,0.0,0.0,0.0,0.0,0.0,0.0,0.0,0.0,0.0,-4.4564,-4.7921,-5.0297,-5.1647,-5.1156,-5.0177,-4.8632,-4.6321,-4.4072,-4.1717,-3.917,0.0,0.0,0.0,0.0,0.0,0.0,0.0,0.0,0.0,0.0,0.0,0.0,0.0,0.0,0.0,0.0,0.0,0.0,0.0,0.0,0.0,0.0,0.0,0.0,0.0,0.0,0.0,0.0,0.0,0.0,0.0,0.0,0.0,0.0,0.0,0.0,0.0,0.0,0.0,0.0,0.0,0.0,0.0,0.0,0.0,0.0,0.0,0.0,0.0,0.0,0.0,0.0,0.0,-2.9684,-3.2414,-3.6292,-3.9067,-4.0756,-4.2427,-4.3452,-4.3755,-4.2142,-3.9484,0.0,0.0,0.0,0.0,0.0,0.0,0.0,0.0,0.0,0.0,0.0,0.0,0.0,0.0,0.0,0.0,0.0,0.0,0.0,0.0,0.0,0.0,0.0,0.0,0.0,0.0,0.0,0.0,-2.6103,-2.6698,-2.5679,0.0,0.0,0.0,0.0,0.0,0.0,0.0,0.0,0.0,0.0,-4.3214,-4.6633,-4.9825,0.0,0.0,-5.1052,-4.965,-4.8119,-4.5046,-4.1918,-3.8465,-3.4838,0.0,0.0,0.0,0.0,0.0,0.0,0.0,0.0,0.0,0.0,0.0,0.0,0.0,0.0,0.0,0.0,0.0,0.0,0.0,0.0,0.0,0.0,0.0,0.0,0.0,0.0,0.0,0.0,0.0,0.0,0.0,0.0,0.0,0.0,0.0,0.0,0.0,0.0,0.0,0.0,0.0,0.0,0.0,0.0,0.0,0.0,0.0,0.0,0.0,0.0,0.0,0.0,0.0,-3.204,-3.5807,-3.8596,-4.0241,-4.1767,-4.2825,-4.3547,-4.199,-3.8364,0.0,0.0,0.0,0.0,0.0,0.0,0.0,0.0,0.0,0.0,0.0,0.0,0.0,0.0,0.0,0.0,0.0,0.0,0.0,0.0,0.0,0.0,0.0,0.0,0.0,0.0,0.0,0.0,0.0,0.0,0.0,0.0,0.0,0.0,0.0,0.0,0.0,0.0,0.0,0.0,0.0,-4.0217,-4.4378,-4.7516,-5.0179,0.0,0.0,-4.8288,-4.9352,-4.5683,-4.1303,-3.7302,0.0,0.0,0.0,0.0,0.0,0.0,0.0,0.0,0.0,0.0,0.0,0.0,0.0,0.0,0.0,0.0,0.0,0.0,0.0,0.0,0.0,0.0,0.0,0.0,0.0,0.0,0.0,0.0,0.0,0.0,0.0,0.0,0.0,0.0,0.0,0.0,0.0,0.0,0.0,0.0,0.0,0.0,0.0,0.0,0.0,0.0,0.0,0.0,0.0,0.0,0.0,0.0,0.0,0.0,-3.4775,-3.784,-4.0216,-4.1914,-4.1756,-4.1686,-4.1876,-4.0225,0.0,0.0,0.0,0.0,0.0,0.0,0.0,0.0,0.0,0.0,0.0,0.0,0.0,0.0,0.0,0.0,0.0,0.0,0.0,0.0,0.0,0.0,0.0,0.0,0.0,0.0,0.0,-1.4957,0.0,0.0,0.0,0.0,0.0,0.0,0.0,0.0,0.0,0.0,0.0,0.0,0.0,0.0,-4.2227,-4.5782,-4.6246,-4.664,0.0,0.0,-4.584,-4.6043,-4.4104,-4.142,0.0,0.0,0.0,0.0,0.0,0.0,0.0,0.0,0.0,0.0,0.0,0.0,0.0,0.0,0.0,0.0,0.0,0.0,0.0,0.0,0.0,0.0,0.0,0.0,0.0,0.0,0.0,0.0,0.0,0.0,0.0,0.0,0.0,0.0,0.0,0.0,0.0,0.0,0.0,0.0,0.0,0.0,0.0,0.0,0.0,0.0,0.0,0.0,0.0,0.0,0.0,0.0,0.0,0.0,-3.2411,-3.5636,-3.7176,-3.9651,-4.3138,-4.189,-4.1458,-4.18,-4.0168,-3.6732,0.0,0.0,0.0,0.0,0.0,0.0,0.0,0.0,0.0,0.0,0.0,0.0,0.0,0.0,0.0,0.0,0.0,0.0,0.0,0.0,0.0,0.0,0.0,0.0,0.0,0.0,0.0,0.0,0.0,0.0,0.0,0.0,0.0,0.0,0.0,0.0,0.0,0.0,0.0,0.0,0.0,0.0,-4.2815,-4.2935,0.0,0.0,0.0,-4.2486,-4.3372,0.0,0.0,0.0,0.0,0.0,0.0,0.0,0.0,0.0,0.0,0.0,0.0,0.0,0.0,0.0,0.0,0.0,0.0,0.0,0.0,0.0,0.0,0.0,0.0,0.0,0.0,0.0,0.0,0.0,0.0,0.0,0.0,0.0,0.0,0.0,0.0,0.0,0.0,0.0,0.0,0.0,0.0,0.0,0.0,0.0,0.0,0.0,0.0,0.0,0.0,0.0,0.0,0.0,0.0,0.0,0.0,0.0,-3.5813,-3.6063,-3.8796,-4.3885,-4.2122,-4.1496,-4.2199,-4.068,-3.7073,0.0,0.0,0.0,0.0,0.0,0.0,0.0,0.0,0.0,0.0,0.0,0.0,0.0,0.0,0.0,0.0,0.0,0.0,0.0,0.0,0.0,0.0,0.0,0.0,0.0,0.0,0.0,0.0,0.0,0.0,0.0,0.0,0.0,0.0,0.0,0.0,0.0,0.0,0.0,0.0,0.0,-3.7959,-3.8406,-3.9276,-3.9769,0.0,0.0,-3.8686,-4.0932,-3.8792,0.0,0.0,0.0,0.0,0.0,0.0,0.0,0.0,0.0,0.0,0.0,0.0,0.0,0.0,0.0,0.0,0.0,0.0,0.0,0.0,0.0,0.0,0.0,0.0,0.0,0.0,0.0,0.0,0.0,0.0,0.0,0.0,0.0,0.0,0.0,0.0,0.0,0.0,0.0,0.0,0.0,0.0,0.0,0.0,0.0,0.0,0.0,0.0,0.0,0.0,0.0,0.0,0.0,0.0,0.0,0.0,-3.7953,-3.9982,-4.2499,-4.5143,-4.1975,-4.0319,-4.0452,-3.9503,-3.6219,0.0,0.0,0.0,0.0,0.0,0.0,0.0,0.0,0.0,0.0,0.0,0.0,0.0,0.0,0.0,0.0,0.0,0.0,0.0,0.0,0.0,0.0,0.0,0.0,0.0,0.0,0.0,0.0,0.0,0.0,0.0,0.0,0.0,0.0,0.0,0.0,0.0,0.0,0.0,0.0,0.0,-3.6686,-3.8187,-3.802,0.0,0.0,0.0,0.0,-3.763,-3.5982,0.0,0.0,0.0,0.0,0.0,0.0,0.0,0.0,0.0,0.0,0.0,0.0,0.0,0.0,0.0,0.0,0.0,0.0,0.0,0.0,0.0,0.0,0.0,0.0,0.0,0.0,0.0,0.0,0.0,0.0,0.0,0.0,0.0,0.0,0.0,0.0,0.0,0.0,0.0,0.0,0.0,0.0,0.0,0.0,0.0,0.0,0.0,0.0,0.0,0.0,0.0,0.0,0.0,0.0,0.0,0.0,-3.9869,-4.0154,-4.2023,-4.5435,-4.1994,-3.9505,-3.8574,-3.9073,-3.5939,0.0,0.0,0.0,0.0,0.0,0.0,0.0,0.0,0.0,0.0,0.0,0.0,0.0,0.0,0.0,0.0,0.0,0.0,0.0,0.0,0.0,0.0,0.0,0.0,0.0,0.0,0.0,0.0,0.0,0.0,0.0,0.0,0.0,0.0,0.0,0.0,0.0,0.0,0.0,0.0,-3.0843,-3.334,-3.45,0.0,0.0,0.0,0.0,0.0,0.0,-3.229,-3.1315,0.0,0.0,0.0,0.0,0.0,0.0,0.0,0.0,0.0,0.0,0.0,0.0,0.0,0.0,0.0,0.0,0.0,0.0,0.0,0.0,0.0,0.0,0.0,0.0,0.0,0.0,0.0,0.0,0.0,0.0,0.0,0.0,0.0,0.0,0.0,0.0,0.0,0.0,0.0,0.0,0.0,0.0,0.0,0.0,0.0,0.0,0.0,0.0,0.0,0.0,0.0,0.0,0.0,0.0,0.0,-4.112,-3.9052,-4.0449,-4.5414,-4.1994,-3.9201,-3.7619,-3.9071,-3.5682,-2.7357,0.0,0.0,0.0,0.0,0.0,0.0,0.0,0.0,0.0,0.0,0.0,0.0,0.0,0.0,0.0,0.0,0.0,0.0,0.0,0.0,0.0,0.0,0.0,0.0,0.0,0.0,0.0,0.0,0.0,0.0,0.0,0.0,0.0,0.0,0.0,0.0,0.0,0.0,0.0,-2.7181,-2.9562,0.0,0.0,0.0,0.0,0.0,0.0,0.0,0.0,-2.7837,0.0,0.0,0.0,0.0,0.0,0.0,0.0,0.0,0.0,0.0,0.0,0.0,0.0,0.0,0.0,0.0,0.0,0.0,0.0,0.0,0.0,0.0,0.0,0.0,0.0,0.0,0.0,0.0,0.0,0.0,0.0,0.0,0.0,0.0,0.0,0.0,0.0,0.0,0.0,0.0,0.0,0.0,0.0,0.0,0.0,0.0,0.0,0.0,0.0,0.0,0.0,0.0,0.0,0.0,0.0,0.0,-3.8985,-4.1159,-4.537,-4.1994,-3.9827,-3.9638,-3.9127,-3.5091,-2.7136,0.0,0.0,0.0,0.0,0.0,0.0,0.0,0.0,0.0,0.0,0.0,0.0,0.0,0.0,0.0,0.0,0.0,0.0,0.0,0.0,0.0,0.0,0.0,0.0,0.0,0.0,0.0,0.0,0.0,0.0,0.0,0.0,0.0,0.0,0.0,0.0,0.0,0.0,-2.0684,-2.4201,0.0,0.0,0.0,0.0,0.0,0.0,0.0,0.0,-2.5751,0.0,0.0,0.0,0.0,0.0,0.0,0.0,0.0,0.0,0.0,0.0,0.0,0.0,0.0,0.0,0.0,0.0,0.0,0.0,0.0,0.0,0.0,0.0,0.0,0.0,0.0,0.0,0.0,0.0,0.0,0.0,0.0,0.0,0.0,0.0,0.0,0.0,0.0,0.0,0.0,0.0,0.0,0.0,0.0,0.0,0.0,0.0,0.0,0.0,0.0,0.0,0.0,0.0,0.0,0.0,0.0,0.0,0.0,-3.9932,-4.4536,-4.1754,-3.9505,-3.833,-3.626,-3.3336,0.0,0.0,0.0,0.0,0.0,0.0,0.0,0.0,0.0,0.0,0.0,0.0,0.0,0.0,0.0,0.0,0.0,0.0,0.0,0.0,0.0,0.0,0.0,0.0,0.0,0.0,0.0,0.0,0.0,0.0,0.0,0.0,0.0,0.0,0.0,0.0,0.0,0.0,0.0,0.0,0.0,0.0,0.0,0.0,0.0,0.0,0.0,0.0,0.0,0.0,0.0,0.0,0.0,0.0,0.0,0.0,0.0,0.0,0.0,0.0,0.0,0.0,0.0,0.0,0.0,0.0,0.0,0.0,0.0,0.0,0.0,0.0,0.0,0.0,0.0,0.0,0.0,0.0,0.0,0.0,0.0,0.0,0.0,0.0,0.0,0.0,0.0,0.0,0.0,0.0,0.0,0.0,0.0,0.0,0.0,0.0,0.0,0.0,0.0,0.0,0.0,0.0,0.0,0.0,0.0,0.0,0.0,0.0,-3.864,-4.3605,-4.1308,-3.9183,-3.7619,-3.3254,-3.0923,0.0,0.0,0.0,0.0,0.0,0.0,0.0,0.0,0.0,0.0,0.0,0.0,0.0,0.0,0.0,0.0,0.0,0.0,0.0,0.0,0.0,0.0,0.0,0.0,0.0,0.0,0.0,0.0,0.0,0.0,0.0,0.0,0.0,0.0,0.0,0.0,0.0,0.0,0.0,0.0,0.0,0.0,0.0,0.0,0.0,0.0,0.0,0.0,-2.0205,0.0,0.0,0.0,0.0,0.0,0.0,0.0,0.0,0.0,0.0,0.0,0.0,0.0,0.0,0.0,0.0,0.0,0.0,0.0,0.0,0.0,0.0,0.0,0.0,0.0,0.0,0.0,0.0,0.0,0.0,0.0,0.0,0.0,0.0,0.0,0.0,0.0,0.0,0.0,0.0,0.0,0.0,0.0,0.0,0.0,0.0,0.0,0.0,0.0,0.0,0.0,0.0,0.0,0.0,0.0,0.0,0.0,0.0,0.0,-3.8316,-4.2675,-4.101,-3.9978,-3.9543,-3.1405,-2.7984,0.0,0.0,0.0,0.0,0.0,0.0,0.0,0.0,0.0,0.0,0.0,0.0,0.0,0.0,0.0,0.0,0.0,0.0,0.0,0.0,0.0,0.0,0.0,0.0,0.0,0.0,0.0,0.0,0.0,0.0,0.0,0.0,0.0,0.0,0.0,0.0,0.0,0.0,0.0,0.0,0.0,0.0,0.0,0.0,0.0,0.0,0.0,0.0,0.0,0.0,0.0,0.0,0.0,0.0,0.0,0.0,0.0,0.0,0.0,0.0,0.0,0.0,0.0,0.0,0.0,0.0,0.0,0.0,0.0,0.0,0.0,0.0,0.0,0.0,0.0,0.0,0.0,0.0,0.0,0.0,0.0,0.0,0.0,0.0,0.0,0.0,0.0,0.0,0.0,0.0,0.0,0.0,0.0,0.0,0.0,0.0,0.0,0.0,0.0,0.0,0.0,0.0,0.0,0.0,0.0,0.0,0.0,0.0,-3.4966,-3.9474,-3.8185,-3.7341,-3.7033,-2.9342,-2.7034,0.0,0.0,0.0,0.0,0.0,0.0,0.0,0.0,0.0,0.0,0.0,0.0,0.0,0.0,0.0,0.0,0.0,0.0,0.0,0.0,0.0,0.0,0.0,0.0,0.0,0.0,0.0,0.0,0.0,0.0,0.0,0.0,0.0,0.0,0.0,0.0,0.0,0.0,0.0,0.0,0.0,0.0,0.0,0.0,0.0,0.0,0.0,0.0,0.0,0.0,0.0,0.0,0.0,0.0,0.0,0.0,0.0,0.0,0.0,0.0,0.0,0.0,0.0,0.0,0.0,0.0,0.0,0.0,0.0,0.0,0.0,0.0,0.0,0.0,0.0,0.0,0.0,0.0,0.0,0.0,0.0,0.0,0.0,0.0,0.0,0.0,0.0,0.0,0.0,0.0,0.0,0.0,0.0,0.0,0.0,0.0,0.0,0.0,0.0,0.0,0.0,0.0,0.0,0.0,0.0,0.0,0.0,0.0,0.0,-3.5936,-3.4852,-3.4294,-3.4076,-2.7837,-2.6434,0.0,0.0,0.0,0.0,0.0,0.0,0.0,0.0,0.0,0.0,0.0,0.0,0.0,0.0,0.0,0.0,0.0,0.0,0.0,0.0,0.0,0.0,0.0,0.0,0.0,0.0,0.0,0.0,0.0,0.0,0.0,0.0,0.0,0.0,0.0,0.0,0.0,0.0,0.0,0.0,0.0,0.0,0.0,0.0,0.0,0.0,0.0,0.0,0.0,0.0,0.0,0.0,0.0,0.0,0.0,0.0,0.0,0.0,0.0,0.0,0.0,0.0,0.0,0.0,0.0,0.0,0.0,0.0,0.0,0.0,0.0,0.0,0.0,0.0,0.0,0.0,0.0,0.0,0.0,0.0,0.0,0.0,0.0,0.0,0.0,0.0,0.0,0.0,0.0,0.0,0.0,0.0,0.0,0.0,0.0,0.0,0.0,0.0,0.0,0.0,0.0,0.0,0.0,0.0,0.0,0.0,0.0,0.0,0.0,-3.2417,-3.1413,-3.1467,-3.2636,-2.7096,-2.5805,0.0,0.0,0.0,0.0,0.0,0.0,0.0,0.0,0.0,0.0,0.0,0.0,0.0,0.0,0.0,0.0,0.0,0.0,0.0,0.0,0.0,0.0,0.0,0.0,0.0,0.0,0.0,0.0,0.0,0.0,0.0,0.0,0.0,0.0,0.0,0.0,0.0,0.0,0.0,0.0,0.0,0.0,0.0,0.0,0.0,0.0,0.0,0.0,0.0,0.0,0.0,0.0,0.0,0.0,0.0,0.0,0.0,0.0,0.0,0.0,0.0,0.0,0.0,0.0,0.0,0.0,0.0,0.0,0.0,0.0,0.0,0.0,0.0,0.0,0.0,0.0,0.0,0.0,0.0,0.0,0.0,0.0,0.0,0.0,0.0,0.0,0.0,0.0,0.0,0.0,0.0,0.0,0.0,0.0,0.0,0.0,0.0,0.0,0.0,0.0,0.0,0.0,0.0,0.0,0.0,0.0,0.0,0.0,0.0,-2.7081,-2.6881,-2.8055,-3.0582,-2.5054,-2.4543,-2.9742,0.0,0.0,0.0,0.0,0.0,0.0,0.0,0.0,0.0,0.0,0.0,0.0,0.0,0.0,0.0,0.0,0.0,0.0,0.0,0.0,0.0,0.0,0.0,0.0,0.0,0.0,0.0,0.0,0.0,0.0,0.0,0.0,0.0,0.0,0.0,0.0,0.0,0.0,0.0,0.0,0.0,0.0,0.0,0.0,0.0,0.0,0.0,0.0,0.0,0.0,0.0,0.0,0.0,0.0,0.0,0.0,0.0,0.0,0.0,0.0,0.0,0.0,0.0,0.0,0.0,0.0,0.0,0.0,0.0,0.0,0.0,0.0,0.0,0.0,0.0,0.0,0.0,0.0,0.0,0.0,0.0,0.0,0.0,0.0,0.0,0.0,0.0,0.0,0.0,0.0,0.0,0.0,0.0,0.0,0.0,0.0,0.0,0.0,0.0,0.0,0.0,0.0,0.0,0.0,0.0,0.0,0.0,0.0,-2.4745,-2.5569,-2.6812,-2.8237,-2.5676,-2.574,0.0,0.0,0.0,0.0,0.0,0.0,0.0,0.0,0.0,0.0,0.0,0.0,0.0,0.0,0.0,0.0,0.0,0.0,0.0,0.0,0.0,0.0,0.0,0.0,0.0,0.0,0.0,0.0,0.0,0.0,0.0,0.0,0.0,0.0,0.0,0.0,0.0,0.0,0.0,0.0,0.0,0.0,0.0,0.0,0.0,0.0,0.0,0.0,0.0,0.0,0.0,0.0,0.0,0.0,0.0,0.0,0.0,0.0,0.0,0.0,0.0,0.0,0.0,0.0,0.0,0.0,0.0,0.0,0.0,0.0,0.0,0.0,0.0,0.0,0.0,0.0,0.0,0.0,0.0,0.0,0.0,0.0,0.0,0.0,0.0,0.0,0.0,0.0,0.0,0.0,0.0,0.0,0.0,0.0,0.0,0.0,0.0,0.0,0.0,0.0,0.0,0.0,0.0,0.0,0.0,0.0,0.0,0.0,-2.86,-2.6347,-2.783,-2.7937,-2.649,-2.9514,-2.9584,0.0,0.0,0.0,0.0,0.0,0.0,0.0,0.0,0.0,0.0,0.0,0.0,0.0,0.0,0.0,0.0,0.0,0.0,0.0,0.0,0.0,0.0,0.0,0.0,0.0,0.0,0.0,0.0,0.0,0.0,0.0,0.0,0.0,0.0,0.0,0.0,0.0,0.0,0.0,0.0,0.0,0.0,0.0,0.0,0.0,0.0,0.0,0.0,0.0,0.0,0.0,0.0,0.0,0.0,0.0,0.0,0.0,0.0,0.0,0.0,0.0,0.0,0.0,0.0,0.0,0.0,0.0,0.0,0.0,0.0,0.0,0.0,0.0,0.0,0.0,0.0,0.0,0.0,0.0,0.0,0.0,0.0,0.0,0.0,0.0,0.0,0.0,0.0,0.0,0.0,0.0,0.0,0.0,0.0,0.0,0.0,0.0,0.0,0.0,0.0,0.0,0.0,0.0,0.0,0.0,0.0,0.0,0.0,0.0,-2.4824,0.0,-2.6962,0.0,-2.8341,-2.8081,0.0,0.0,0.0,0.0,0.0,0.0,0.0,0.0,0.0,0.0,0.0,0.0,0.0,0.0,0.0,0.0,0.0,0.0,0.0,0.0,0.0,0.0,0.0,0.0,0.0,0.0,0.0,0.0,0.0,0.0,0.0,0.0,0.0,0.0,0.0,0.0,0.0,0.0,0.0,0.0,0.0,0.0,0.0,0.0,0.0,0.0,0.0,0.0,0.0,0.0,0.0,0.0,0.0,0.0,0.0,0.0,0.0,0.0,0.0,0.0,0.0,0.0,0.0,0.0,0.0,0.0,0.0,0.0,0.0,0.0,0.0,0.0,0.0,0.0,0.0,0.0,0.0,0.0,0.0,0.0,0.0,0.0,0.0,0.0,0.0,0.0,0.0,0.0,0.0,0.0,0.0,0.0,0.0,0.0,0.0,0.0,0.0,0.0,0.0,0.0,0.0,0.0,0.0,0.0,0.0,0.0,0.0,0.0,0.0,-2.703,-2.5103,-2.6503,-3.1144,-2.9758,-2.9428,0.0,0.0,0.0,0.0,0.0,0.0,0.0,0.0,0.0,0.0,0.0,0.0,0.0,0.0,0.0,0.0,0.0,0.0,0.0,0.0,0.0,0.0,0.0,0.0,0.0,0.0,0.0,0.0,0.0,0.0,0.0,0.0,0.0,0.0,0.0,0.0,0.0,0.0,0.0,0.0,0.0,0.0,0.0,0.0,0.0,0.0,0.0,0.0,0.0,0.0,0.0,0.0,0.0,0.0,0.0,0.0,0.0,0.0,0.0,0.0,0.0,0.0,0.0,0.0,0.0,0.0,0.0,0.0,0.0,0.0,0.0,0.0,0.0,0.0,0.0,0.0,0.0,0.0,0.0,0.0,0.0,0.0,0.0,0.0,0.0,0.0,0.0,0.0,0.0,0.0,0.0,0.0,0.0,0.0,0.0,0.0,0.0,0.0,0.0,0.0,0.0,0.0,0.0,0.0,0.0,0.0,0.0,0.0,0.0,0.0,-2.8562,-2.6896,-2.7679,-3.3264,-3.3351,0.0,0.0,0.0,0.0,0.0,0.0,0.0,0.0,0.0,0.0,0.0,0.0,0.0,0.0,0.0,0.0,0.0,0.0,0.0,0.0,0.0,0.0,0.0,0.0,0.0,0.0,0.0,0.0,0.0,0.0,0.0,0.0,0.0,0.0,0.0,0.0,0.0,0.0,0.0,0.0,0.0,0.0,0.0,0.0,0.0,0.0,0.0,0.0,0.0,0.0,0.0,0.0,0.0,0.0,0.0,0.0,0.0,0.0,0.0,0.0,0.0,0.0,0.0,0.0,0.0,0.0,0.0,0.0,0.0,0.0,0.0,0.0,0.0,0.0,0.0,0.0,0.0,0.0,0.0,0.0,0.0,0.0,0.0,0.0,0.0,0.0,0.0,0.0,0.0,0.0,0.0,0.0,0.0,0.0,0.0,0.0,0.0,0.0,0.0,0.0,0.0,0.0,0.0,0.0,0.0,0.0,0.0,0.0,0.0,0.0,-2.9475,0.0,-2.8799,-3.0622,-3.1176,-3.0174,0.0,0.0,0.0,0.0,0.0,0.0,0.0,0.0,0.0,0.0,0.0,0.0,0.0,0.0,0.0,0.0,0.0,0.0,0.0,0.0,0.0,0.0,0.0,0.0,0.0,0.0,0.0,0.0,0.0,0.0,0.0,0.0,0.0,0.0,0.0,0.0,0.0,0.0,0.0,0.0,0.0,0.0,0.0,0.0,0.0,0.0,0.0,0.0,0.0,0.0,0.0,0.0,0.0,0.0,0.0,0.0,0.0,0.0,0.0,0.0,0.0,0.0,0.0,0.0,0.0,0.0,0.0,0.0,0.0,0.0,0.0,0.0,0.0,0.0,0.0,0.0,0.0,0.0,0.0,0.0,0.0,0.0,0.0,0.0,0.0,0.0,0.0,0.0,0.0,0.0,0.0,0.0,0.0,0.0,0.0,0.0,0.0,0.0,0.0,0.0,0.0,0.0,0.0,0.0,0.0,0.0,0.0,0.0,0.0,0.0,0.0,-2.9861,-3.0257,-3.0494,0.0,0.0,0.0,0.0,0.0,0.0,0.0,0.0,0.0,0.0,0.0,0.0,0.0,0.0,0.0,0.0,0.0,0.0,0.0,0.0,0.0,0.0,0.0,0.0,0.0,0.0,0.0,0.0,0.0,0.0,0.0,0.0,0.0,0.0,0.0,0.0,0.0,0.0,0.0,0.0,0.0,0.0,0.0,0.0,0.0,0.0,0.0,0.0,0.0,0.0,0.0,0.0,0.0,0.0,0.0,0.0,0.0,0.0,0.0,0.0,0.0,0.0,0.0,0.0,0.0,0.0,0.0,0.0,0.0,0.0,0.0,0.0,0.0,0.0,0.0,0.0,0.0,0.0,0.0,0.0,0.0,0.0,0.0,0.0,0.0,0.0,0.0,0.0,0.0,0.0,0.0,0.0,0.0,0.0,0.0,0.0,0.0,0.0,0.0,0.0,0.0,0.0,0.0,0.0,0.0,0.0,0.0,0.0,0.0,0.0,0.0,-3.2555,-3.1371,-3.1535,0.0,-2.9613,0.0,0.0,0.0,0.0,0.0,0.0,0.0,0.0,0.0,0.0,0.0,0.0,0.0,0.0,0.0,0.0,0.0,0.0,0.0,0.0,0.0,0.0,0.0,0.0,0.0,0.0,0.0,0.0,0.0,0.0,0.0,0.0,0.0,0.0,0.0,0.0,0.0,0.0,0.0,0.0,0.0,0.0,0.0,0.0,0.0,0.0,0.0,0.0,0.0,0.0,0.0,0.0,0.0,0.0,0.0,0.0,0.0,0.0,0.0,0.0,0.0,0.0,0.0,0.0,0.0,0.0,0.0,0.0,0.0,0.0,0.0,0.0,0.0,0.0,0.0,0.0,0.0,0.0,0.0,0.0,0.0,0.0,0.0,0.0,0.0,0.0,0.0,0.0,0.0,0.0,0.0,0.0,0.0,0.0,0.0,0.0,0.0,0.0,0.0,0.0,0.0,0.0,0.0,0.0,0.0,0.0,0.0,0.0,0.0,0.0,0.0,0.0,-3.3582,-3.2417,-3.1108,0.0,0.0,0.0,0.0,0.0,0.0,0.0,0.0,0.0,0.0,0.0,0.0,0.0,0.0,0.0,0.0,0.0,0.0,0.0,0.0,0.0,0.0,0.0,0.0,0.0,0.0,0.0,0.0,0.0,0.0,0.0,0.0,0.0,0.0,0.0,0.0,0.0,0.0,0.0,0.0,0.0,0.0,0.0,0.0,0.0,0.0,0.0,0.0,0.0,0.0,0.0,0.0,0.0,0.0,0.0,0.0,0.0,0.0,0.0,0.0,0.0,0.0,0.0,0.0,0.0,0.0,0.0,0.0,0.0,0.0,0.0,0.0,0.0,0.0,0.0,0.0,0.0,0.0,0.0,0.0,0.0,0.0,0.0,0.0,0.0,0.0,0.0,0.0,0.0,0.0,0.0,0.0,0.0,0.0,0.0,0.0,0.0,0.0,0.0,0.0,0.0,0.0,0.0,0.0,0.0,0.0,0.0,0.0,0.0,0.0,-3.747,-3.6997,-3.4703,-3.3143,-3.2392,0.0,0.0,0.0,0.0,0.0,0.0,0.0,0.0,0.0,0.0,0.0,0.0,0.0,0.0,0.0,0.0,0.0,0.0,0.0,0.0,0.0,0.0,0.0,0.0,0.0,0.0,0.0,0.0,0.0,0.0,0.0,0.0,0.0,0.0,0.0,0.0,0.0,0.0,0.0,0.0,0.0,0.0,0.0,0.0,0.0,0.0,0.0,0.0,0.0,0.0,0.0,0.0,0.0,0.0,0.0,0.0,0.0,0.0,0.0,0.0,0.0,0.0,0.0,0.0,0.0,0.0,0.0,0.0,0.0,0.0,0.0,0.0,0.0,0.0,0.0,0.0,0.0,0.0,0.0,0.0,0.0,0.0,0.0,0.0,0.0,0.0,0.0,0.0,0.0,0.0,0.0,0.0,0.0,0.0,0.0,0.0,0.0,0.0,0.0,0.0,0.0,0.0,0.0,0.0,0.0,0.0,0.0,0.0,0.0,0.0,0.0,0.0,0.0,0.0,-3.3083,0.0,0.0,0.0,0.0,0.0,0.0,0.0,0.0,0.0,0.0,0.0,0.0,0.0,0.0,0.0,0.0,0.0,0.0,0.0,0.0,0.0,0.0,0.0,0.0,0.0,0.0,0.0,0.0,0.0,0.0,0.0,0.0,0.0,0.0,0.0,0.0,0.0,0.0,0.0,0.0,0.0,0.0,0.0,0.0,0.0,0.0,0.0,0.0,0.0,0.0,0.0,0.0,0.0,0.0,0.0,0.0,0.0,0.0,0.0,0.0,0.0,0.0,0.0,0.0,0.0,0.0,0.0,0.0,0.0,0.0,0.0,0.0,0.0,0.0,0.0,0.0,0.0,0.0,0.0,0.0,0.0,0.0,0.0,0.0,0.0,0.0,0.0,0.0,0.0,0.0,0.0,0.0,0.0,0.0,0.0,0.0,0.0,0.0,0.0,0.0,0.0,0.0,0.0,0.0,0.0,0.0,0.0,0.0,0.0,0.0,0.0,0.0,0.0,0.0,0.0,0.0,0.0,0.0,0.0,0.0,0.0,0.0,0.0,0.0,0.0,0.0,0.0,0.0,0.0,0.0,0.0,0.0,0.0,0.0,0.0,0.0,0.0,0.0,0.0,0.0,0.0,0.0,0.0,0.0,0.0,0.0,0.0,0.0,0.0,0.0,0.0,0.0,0.0,0.0,0.0,0.0,0.0,0.0,0.0,0.0,0.0,0.0,0.0,0.0,0.0,0.0,0.0,0.0,0.0,0.0,0.0,0.0,0.0,0.0,0.0,0.0,0.0,0.0,0.0,0.0,0.0,0.0,0.0,0.0,0.0,0.0,0.0,0.0,0.0,0.0,0.0,0.0,0.0,0.0,0.0,0.0,0.0,0.0,0.0,0.0,0.0,0.0,0.0,0.0,0.0,0.0,0.0,0.0,0.0,0.0,0.0,0.0,0.0,0.0,0.0,0.0,0.0,0.0,0.0,0.0,0.0,0.0,0.0,0.0,0.0,0.0,0.0,0.0,0.0,0.0,0.0,0.0,0.0,0.0,0.0,0.0,0.0,0.0,0.0,0.0,0.0,0.0,0.0,0.0,0.0,0.0,0.0,0.0,0.0,0.0,0.0,0.0,0.0,0.0,0.0,0.0,0.0,0.0,0.0,0.0,0.0,0.0,0.0,0.0,0.0,0.0,0.0,0.0,0.0,0.0,0.0,0.0,0.0,0.0,0.0,0.0,0.0,0.0,0.0,0.0,0.0,0.0,0.0,0.0,0.0,0.0,0.0,0.0,0.0,0.0,0.0,0.0,0.0,0.0,0.0,0.0,0.0,0.0,0.0,0.0,0.0,0.0,0.0,0.0,0.0,0.0,0.0,0.0,0.0,0.0,0.0,0.0,0.0,0.0,0.0,0.0,0.0,0.0,0.0,0.0,0.0,0.0,0.0,0.0,0.0,0.0,0.0,0.0,0.0,0.0,0.0,0.0,0.0,0.0,0.0,0.0,0.0,0.0,0.0,0.0,0.0,0.0,0.0,0.0,0.0,0.0,0.0,0.0,0.0,0.0,0.0,0.0,0.0,0.0,0.0,0.0,0.0,0.0,0.0,0.0,0.0,0.0,0.0,0.0,0.0,0.0,0.0,0.0,0.0,0.0,0.0,0.0,0.0,0.0,0.0,0.0,0.0,0.0,0.0,0.0,0.0,0.0,0.0,0.0,0.0,0.0,0.0,0.0,0.0,0.0,0.0,0.0,0.0,0.0,0.0,0.0,0.0,0.0,0.0,0.0,0.0,0.0,0.0,0.0,0.0,0.0,0.0,0.0,0.0,0.0,0.0,0.0,0.0,0.0,0.0,0.0,0.0,0.0,0.0,0.0,0.0,0.0,0.0,0.0,0.0,0.0,0.0,0.0,0.0,0.0,0.0,0.0,0.0,0.0,0.0,0.0,0.0,0.0,0.0,0.0,0.0,0.0,0.0,0.0,0.0,0.0,0.0,0.0,0.0,0.0,0.0,0.0,0.0,0.0,0.0,0.0,0.0,0.0,0.0,0.0,0.0,0.0,0.0,0.0,0.0,0.0,0.0,0.0,0.0,0.0,0.0,0.0,0.0,0.0,0.0,0.0,0.0,0.0,0.0,0.0,0.0,0.0,0.0,0.0,0.0,0.0,0.0,0.0,0.0,0.0,0.0,0.0,0.0,0.0,0.0,0.0,0.0,0.0,0.0,0.0,0.0,0.0,0.0,0.0,0.0,0.0,0.0,0.0,0.0,0.0,0.0,0.0,0.0,0.0,0.0,0.0,0.0,0.0,0.0,0.0,0.0,0.0,0.0,0.0,0.0,0.0,0.0,0.0,0.0,0.0,0.0,0.0,0.0,0.0,0.0,0.0,0.0,0.0,0.0,0.0,0.0,0.0,0.0,0.0,0.0,0.0,0.0,0.0,0.0,0.0,0.0,0.0,0.0,0.0,0.0,0.0,0.0,0.0,0.0,0.0,0.0,0.0,0.0,0.0,0.0,0.0,0.0,0.0,0.0,0.0,0.0,0.0,0.0,0.0,0.0,0.0,0.0,0.0,0.0,0.0,0.0,0.0,0.0,0.0,0.0,0.0,0.0,0.0,0.0,0.0,0.0,0.0,0.0,0.0,0.0,0.0,0.0,0.0,0.0,0.0,0.0,0.0,0.0,0.0,0.0,0.0,0.0,0.0,0.0,0.0,0.0,0.0,0.0,0.0,0.0,0.0,0.0,0.0,0.0,0.0,0.0,0.0,0.0,0.0,0.0,0.0,0.0,0.0,0.0,0.0,0.0,0.0,0.0,0.0,0.0,0.0,0.0,0.0,0.0,0.0,0.0,0.0,0.0,0.0,0.0,0.0,0.0,0.0,0.0,0.0,0.0,0.0,0.0,0.0,0.0,0.0,0.0,0.0,0.0,0.0,0.0,0.0,0.0,0.0,0.0,0.0,0.0,0.0,0.0,0.0,0.0,0.0,0.0,0.0,0.0,0.0,0.0,0.0,0.0,0.0,0.0,0.0,0.0,0.0,0.0,0.0,0.0,0.0,0.0,0.0,0.0,0.0,0.0,0.0,0.0,0.0,0.0,0.0,0.0,0.0,0.0,0.0,0.0,0.0,0.0,0.0,0.0,0.0,0.0,0.0,0.0,0.0,0.0,0.0,0.0,0.0,0.0,0.0,0.0,0.0,0.0,0.0,0.0,0.0,0.0,0.0,0.0,0.0,0.0,0.0,0.0,0.0,0.0,0.0,0.0,0.0,0.0,0.0,0.0,0.0,0.0,0.0,0.0,0.0,0.0,0.0,0.0,0.0,0.0,0.0,0.0,0.0,0.0,0.0,0.0,0.0,0.0,0.0,0.0,0.0,0.0,0.0,0.0,0.0,0.0,0.0,0.0,0.0,0.0,0.0,0.0,0.0,0.0,0.0,0.0,0.0,0.0,0.0,0.0,0.0,0.0,0.0,0.0,0.0,0.0,0.0,0.0,0.0,0.0,0.0,0.0,0.0,0.0,0.0,0.0,0.0,0.0,0.0,0.0,0.0,0.0,0.0,0.0,0.0,0.0,0.0,0.0,0.0,0.0,0.0,0.0,0.0,0.0,0.0,0.0,0.0,0.0,0.0,0.0,0.0,0.0,0.0,0.0,0.0,0.0,0.0,0.0,0.0,0.0,0.0,0.0,0.0,0.0,0.0,0.0,0.0,0.0,0.0,0.0,0.0,0.0,0.0,0.0,0.0,0.0,0.0,0.0,0.0,0.0,0.0,0.0,0.0,0.0,0.0,0.0,0.0,0.0,0.0,0.0,0.0,0.0,0.0,0.0,0.0,0.0,0.0,0.0,0.0,0.0,0.0,0.0,0.0,0.0,0.0,0.0,0.0,0.0,0.0,0.0,0.0,0.0,0.0,0.0,0.0,0.0,0.0,0.0,0.0,0.0,0.0,0.0,0.0,0.0,0.0,0.0,0.0,0.0,0.0,0.0,0.0,0.0,0.0,0.0,0.0,0.0,0.0,0.0,0.0,0.0,0.0,0.0,0.0,0.0,0.0,0.0,0.0,0.0,0.0,0.0,0.0,0.0,0.0,0.0,0.0,0.0,0.0,0.0,0.0,0.0,0.0,0.0,0.0,0.0,0.0,0.0,0.0,0.0,0.0,0.0,0.0,0.0,0.0,0.0,0.0,0.0,0.0,0.0,0.0,0.0,0.0,0.0,0.0,0.0,0.0,0.0,0.0,0.0,0.0,0.0,0.0,0.0,0.0,0.0,0.0,0.0,0.0,0.0,0.0,0.0,0.0,0.0,0.0,0.0,0.0,0.0,0.0,0.0,0.0,0.0,0.0,0.0,0.0,0.0,0.0,0.0,0.0,0.0,0.0]}],[{"header":{"parameterUnit":"kt","parameterCategory":2,"dx":1,"dy":1,"la1":29.587661999999998,"la2":31.0,"lo1":-88.76705300000003,"lo2":-86.6583820000003,"nx":115,"ny":88,"refTime":"2022-10-06T00:00:00:Z","depth":0,"parameterNumber":2,"parameterNumberName":"V-component_of_WINDS"},"data":[-0.1828,-0.3124,-0.4556,-0.572,-0.6368,-0.7278,-0.78,-0.7805,-0.8074,-0.8737,-0.9085,-0.8693,-0.9593,-1.2305,-1.1053,-1.1046,-1.1523,-1.2161,-1.2807,-1.357,-1.3996,-1.4789,-1.5098,-1.4339,-1.6419,-1.8151,-1.9616,-2.0516,-2.071,-2.3094,-2.4765,-2.4971,-2.8254,-2.923,-2.9575,-3.0341,-3.0809,-3.0931,-3.1842,-3.3171,-3.4036,-3.5393,-3.7533,-3.9209,-4.0564,-4.0797,-4.1452,-4.2491,-4.3018,-4.3604,-4.3885,-4.4246,-4.4218,-4.3859,-4.3747,-4.3721,-4.3373,-4.317,-4.3254,-4.3395,-4.3069,-4.3837,-4.3723,-4.4047,-4.3964,-4.372,-4.4552,-4.6076,-4.6185,-4.5798,-4.6088,-4.5749,-4.5901,-4.646,-4.6763,-4.7024,-4.7169,-4.7169,-4.7277,-4.7346,-4.7346,-4.7486,-4.7788,-4.7879,-4.7973,-4.8094,-4.826,-4.8405,-4.8559,-4.8491,-4.8468,-4.8549,-4.8622,-4.8735,-4.8767,-4.8782,-4.8875,-4.9166,-4.93,-4.9704,-4.9839,-4.9511,-5.0156,-5.1172,-5.1044,-5.0947,-5.0758,-5.1323,-5.1154,-5.2623,-5.3921,-5.4417,-5.5333,-5.5784,-5.5958,-0.4689,-0.4945,-0.5205,-0.6894,-0.9372,-0.8457,-0.7929,-0.8193,-0.9378,-0.9507,-0.8715,-0.9753,-1.0152,-1.0803,-1.0545,-1.1808,-1.2815,-1.3823,-1.4457,-1.5098,-1.5728,-1.6357,-1.6367,-1.599,-1.7141,-1.8886,-2.0845,-2.0994,-2.0762,-2.2791,-2.444,-2.5153,-2.6263,-2.7373,-2.9162,-3.0117,-3.0289,-3.0567,-3.1855,-3.2992,-3.3694,-3.4569,-3.6964,-3.8514,-3.961,-4.0649,-4.231,-4.3252,-4.307,-4.353,-4.4037,-4.4394,-4.4405,-4.4435,-4.4515,-4.4675,-4.4339,-4.4291,-4.4488,-4.4348,-4.4048,-4.3696,-4.3455,-4.3444,-4.3444,-4.3546,-4.3945,-4.4552,-4.4772,-4.4912,-4.5599,-4.5894,-4.6254,-4.6683,-4.676,-4.691,-4.6984,-4.6984,-4.7205,-4.7481,-4.7379,-4.7241,-4.745,-4.7581,-4.7711,-4.7775,-4.7924,-4.8094,-4.8197,-4.8124,-4.791,-4.7904,-4.7792,-4.804,-4.8294,-4.8394,-4.8473,-4.8819,-4.9434,-5.0306,-5.0773,-5.0467,-5.0861,-5.2328,-5.365,-5.3929,-5.3821,-5.3767,-5.5536,-5.7123,-5.7183,-5.6633,-5.7323,-5.7563,-5.7865,-0.5724,-0.676,-0.7676,-0.9114,-1.0159,-0.963,-0.9869,-1.0505,-1.0532,-1.0532,-1.0897,-1.1589,-1.3008,-1.4728,-1.3714,-1.4466,-1.5738,-1.5728,-1.6241,-1.7119,-1.7879,-1.8004,-1.8377,-1.8626,-1.901,-1.927,-2.1103,-2.1822,-2.1239,-2.2777,-2.444,-2.5389,-2.7379,-2.8743,-2.9691,-3.0724,-3.087,-3.0049,-3.2286,-3.3418,-3.4082,-3.3911,-3.5268,-3.7987,-3.9155,-4.0218,-4.1933,-4.3431,-4.3846,-4.4566,-4.4785,-4.5062,-4.5008,-4.4894,-4.4817,-4.5015,-4.5064,-4.4597,-4.4527,-4.4478,-4.4355,-4.3742,-4.3379,-4.3258,-4.3225,-4.4673,-4.5005,-4.4276,-4.4456,-4.4446,-4.5131,-4.528,-4.5602,-4.5819,-4.5913,-4.6166,-4.633,-4.6411,-4.6689,-4.6952,-4.7095,-4.6946,-4.6952,-4.7062,-4.7062,-4.7132,-4.731,-4.7445,-4.7666,-4.7681,-4.7295,-4.7048,-4.6627,-4.6738,-4.8074,-4.8598,-4.87,-4.8923,-4.9353,-5.0027,-5.0634,-5.0818,-5.1764,-5.3716,-5.5234,-5.6088,-5.699,-5.7213,-5.865,-5.9101,-5.8836,-5.8552,-5.8904,-5.907,-5.9007,-0.7287,-0.8591,-0.9894,-1.0552,-1.0552,-1.0552,-1.1175,-1.2305,-1.1816,-1.2695,-1.3968,-1.403,-1.4921,-1.6377,-1.5476,-1.599,-1.7391,-1.738,-1.8276,-1.9022,-1.9641,-1.9888,-2.0393,-2.0011,-2.0626,-2.1007,-2.1361,-2.1943,-2.3138,-2.4559,-2.5877,-2.6213,-2.7379,-2.9141,-2.9955,-3.0612,-3.0836,-3.0181,-3.1908,-3.3221,-3.3653,-3.3329,-3.3955,-3.6562,-3.8187,-3.9276,-4.1593,-4.3175,-4.4293,-4.5612,-4.578,-4.5864,-4.5864,-4.5372,-4.5012,-4.4936,-4.5406,-4.5283,-4.5241,-4.5281,-4.51,-4.4478,-4.4037,-4.355,-4.3939,-4.5594,-4.6048,-4.5101,-4.4597,-4.4477,-4.4529,-4.4469,-4.4547,-4.4654,-4.4762,-4.5086,-4.5505,-4.5723,-4.5936,-4.6243,-4.6536,-4.6512,-4.642,-4.6428,-4.6349,-4.6534,-4.6754,-4.6905,-4.7097,-4.7884,-4.7641,-4.7915,-4.7044,-4.7339,-4.8458,-4.9356,-4.9885,-5.0126,-5.0436,-5.0314,-5.0264,-5.1991,-5.4076,-5.5659,-5.6725,-5.7674,-5.8552,-5.9303,-5.9443,-5.9568,-5.9423,-5.934,-5.9605,-5.9657,-5.9682,-1.0159,-1.0288,-1.0416,-1.0681,-1.0552,-1.0674,-1.0803,-1.106,-1.3823,-1.598,-1.7005,-1.599,-1.5738,-1.6743,-1.6618,-1.7255,-1.8015,-1.8525,-1.9022,-2.0393,-2.0639,-2.0885,-2.0762,-2.0762,-2.1714,-2.2414,-2.3003,-2.3604,-2.5978,-2.6797,-2.7048,-2.7396,-2.809,-2.8798,-2.9842,-3.0407,-3.0407,-3.0181,-3.1505,-3.2786,-3.2786,-3.3524,-3.4786,-3.6355,-3.7051,-3.829,-4.1098,-4.2632,-4.3381,-4.5043,-4.5864,-4.5864,-4.6169,-4.6205,-4.669,-4.6897,-4.7121,-4.6814,-4.641,-4.6486,-4.6244,-4.5966,-4.5852,-4.5562,-4.5494,-4.654,-4.6638,-4.5895,-4.5712,-4.5568,-4.5586,-4.5613,-4.5468,-4.5527,-4.5667,-4.5886,-4.6178,-4.643,-4.6685,-4.7031,-4.7271,-4.7047,-4.6969,-4.7387,-4.7528,-4.6643,-4.6503,-4.6445,-4.7056,-4.8402,-4.8905,-4.9591,-4.9482,-4.9849,-5.0263,-4.9918,-5.0651,-5.1379,-5.1851,-5.1917,-5.2531,-5.4276,-5.6324,-5.7045,-5.7728,-5.8855,-5.9397,-5.9593,-5.972,-5.9834,-5.9864,-5.9947,-5.9969,-5.9917,-5.9868,-1.0552,-1.0674,-1.1552,-1.2057,-1.2185,-1.3078,-1.3578,-1.3806,-1.4954,-1.6502,-1.7868,-1.7427,-1.7676,-1.8365,-1.8501,-1.8762,-1.9529,-1.9517,-1.9888,-2.0639,-2.0639,-2.1239,-2.1835,-2.2172,-2.2897,-2.3859,-2.4559,-2.5153,-2.5743,-2.6814,-2.7628,-2.7744,-2.8798,-2.9369,-2.9747,-3.0031,-2.9993,-3.0464,-3.1323,-3.2458,-3.2786,-3.3091,-3.5208,-3.6585,-3.565,-3.8066,-4.1379,-4.2083,-4.356,-4.5413,-4.5864,-4.5864,-4.6032,-4.6169,-4.65,-4.6797,-4.7567,-4.761,-4.735,-4.753,-4.7406,-4.7118,-4.7121,-4.7,-4.71,-4.7101,-4.6972,-4.7071,-4.6941,-4.6865,-4.6931,-4.698,-4.6822,-4.6629,-4.6804,-4.6958,-4.7174,-4.733,-4.7584,-4.794,-4.7917,-4.7704,-4.7917,-4.8349,-4.8373,-4.771,-4.7312,-4.7401,-4.8398,-4.9311,-4.9945,-5.058,-5.1146,-5.177,-5.0699,-5.0081,-5.0756,-5.1464,-5.2465,-5.3978,-5.515,-5.6228,-5.6968,-5.7818,-5.8552,-5.8858,-5.9093,-5.9472,-5.9833,-5.9893,-5.9927,-5.9816,-5.9758,-5.981,-5.9861,-1.0548,-1.0665,-1.1846,-1.256,-1.3307,-1.5844,-1.6994,-1.6961,-1.7058,-1.7563,-1.8773,-1.8778,-1.9307,-2.0516,-2.0639,-2.0516,-2.0516,-2.0639,-2.0885,-2.0885,-2.0885,-2.2065,-2.2762,-2.3244,-2.4321,-2.5271,-2.5995,-2.6347,-2.6931,-2.7628,-2.8321,-2.8321,-2.9255,-2.9728,-3.005,-3.0202,-3.0335,-3.0869,-3.2435,-3.2988,-3.3108,-3.4254,-3.5627,-3.6893,-3.6275,-3.8414,-4.1098,-4.2083,-4.3471,-4.5328,-4.578,-4.5864,-4.5864,-4.5864,-4.6169,-4.6335,-4.6797,-4.728,-4.717,-4.7616,-4.7732,-4.7309,-4.792,-4.7818,-4.7509,-4.7447,-4.7701,-4.8133,-4.8385,-4.8297,-4.8345,-4.8196,-4.7972,-4.7758,-4.7592,-4.7979,-4.8582,-4.8509,-4.7995,-4.8345,-4.8711,-4.8574,-4.8711,-4.9138,-4.9242,-4.8907,-4.8894,-4.9375,-4.9985,-5.0234,-5.0706,-5.1147,-5.1797,-5.2735,-5.1828,-5.122,-5.1468,-5.1841,-5.3618,-5.524,-5.5927,-5.6599,-5.7477,-5.7989,-5.8112,-5.8374,-5.8681,-5.9209,-5.9608,-5.9725,-5.9927,-5.9684,-5.9531,-5.959,-5.9645,-1.0852,-1.0805,-1.0672,-1.1823,-1.3832,-1.8049,-2.016,-2.0257,-2.0245,-2.0245,-2.0393,-2.0257,-2.0367,-2.0516,-2.0639,-2.0639,-2.0762,-2.0885,-2.1714,-2.2172,-2.1957,-2.3259,-2.3963,-2.4187,-2.5491,-2.6797,-2.7628,-2.809,-2.9501,-2.9669,-2.9613,-2.9747,-2.9728,-3.0087,-3.0524,-3.0847,-3.1405,-3.232,-3.3756,-3.4478,-3.4819,-3.6186,-3.7247,-3.7617,-3.776,-3.9429,-4.1265,-4.2439,-4.3649,-4.4957,-4.5864,-4.5864,-4.5864,-4.5864,-4.65,-4.6959,-4.717,-4.6797,-4.6417,-4.6388,-4.661,-4.7126,-4.8007,-4.8248,-4.8019,-4.7882,-4.8453,-4.9069,-4.9492,-4.9492,-4.9691,-4.9489,-4.9282,-4.9023,-4.876,-4.9157,-4.988,-4.9703,-4.9062,-4.9052,-4.9502,-4.968,-4.9828,-4.9769,-4.9951,-4.9727,-4.9856,-5.0358,-5.0808,-5.1037,-5.1221,-5.1683,-5.2331,-5.3367,-5.3717,-5.3273,-5.3256,-5.3091,-5.4798,-5.5556,-5.6187,-5.6808,-5.7154,-5.7394,-5.7553,-5.7761,-5.7993,-5.8507,-5.9207,-5.9673,-5.9934,-5.9997,-6.0976,-6.0653,-6.0691,-1.3027,-1.3261,-1.5167,-1.6297,-1.7061,-1.8739,-1.9952,-2.0542,-2.0639,-2.0639,-2.0639,-2.0639,-2.0639,-2.0639,-2.0639,-2.0872,-2.2065,-2.2186,-2.3003,-2.4202,-2.3739,-2.4916,-2.5962,-2.643,-2.7116,-2.8435,-2.9255,-2.9329,-3.0145,-3.0543,-3.0524,-3.0221,-2.9974,-3.0619,-3.1398,-3.1878,-3.2545,-3.3802,-3.5246,-3.641,-3.7155,-3.8033,-3.94,-3.9447,-3.9274,-3.9972,-4.2093,-4.3083,-4.3292,-4.5043,-4.5864,-4.5864,-4.5864,-4.5864,-4.6032,-4.6282,-4.6417,-4.6252,-4.6169,-4.6252,-4.6417,-4.6582,-4.6715,-4.6789,-4.6839,-4.7555,-4.856,-4.9611,-4.9998,-5.0111,-5.0334,-5.1064,-5.0931,-5.0963,-5.0765,-5.0733,-5.1145,-5.1141,-5.0685,-5.0788,-5.1103,-5.1098,-5.1193,-5.0975,-5.0685,-5.0654,-5.0677,-5.1118,-5.1585,-5.1682,-5.1713,-5.184,-5.2254,-5.2595,-5.3025,-5.3767,-5.4214,-5.452,-5.5023,-5.5541,-5.607,-5.6297,-5.6501,-5.6753,-5.7054,-5.7256,-5.737,-5.7862,-5.8776,-5.9355,-6.0101,-6.1208,-6.2215,-6.2639,-6.2988,-1.4339,-1.4584,-1.7189,-1.9088,-2.0154,-1.9903,-2.0172,-2.0703,-2.062,-2.0639,-2.0652,-2.121,-2.1333,-2.1605,-2.2065,-2.2912,-2.3604,-2.3724,-2.4559,-2.5759,-2.5287,-2.6564,-2.7751,-2.8241,-2.877,-3.0084,-3.0771,-3.0844,-3.0771,-3.136,-3.1208,-3.098,-3.1151,-3.1492,-3.2271,-3.3002,-3.3308,-3.4724,-3.6567,-3.792,-3.8799,-3.9718,-4.0713,-4.15,-4.0224,-4.1213,-4.42,-4.4038,-4.5102,-4.7144,-4.6824,-4.6737,-4.6679,-4.5923,-4.5894,-4.5864,-4.5864,-4.5864,-4.6086,-4.6335,-4.65,-4.6199,-4.6032,-4.6086,-4.5948,-4.6634,-4.7951,-4.9219,-4.9948,-5.0038,-5.0635,-5.1387,-5.1587,-5.1686,-5.1916,-5.1883,-5.1719,-5.1719,-5.1916,-5.1916,-5.1916,-5.175,-5.1682,-5.1377,-5.134,-5.1383,-5.1286,-5.1718,-5.1818,-5.185,-5.1883,-5.1883,-5.1916,-5.1916,-5.2143,-5.304,-5.3687,-5.4039,-5.4535,-5.549,-5.568,-5.5766,-5.6141,-5.6779,-5.6818,-5.6886,-5.7101,-5.748,-5.8345,-5.9674,-6.1117,-6.2343,-6.2929,-6.3532,-6.4229,-1.4721,-1.4814,-1.6664,-1.9625,-2.2554,-2.1916,-2.1439,-2.1347,-2.088,-2.077,-2.0907,-2.192,-2.2604,-2.2926,-2.3604,-2.4575,-2.5034,-2.5389,-2.6112,-2.7116,-2.6951,-2.7635,-2.8814,-2.9755,-3.0159,-3.1217,-3.1739,-3.2062,-3.2149,-3.2442,-3.2404,-3.2271,-3.2366,-3.2584,-3.2669,-3.3429,-3.3917,-3.4426,-3.6928,-3.7794,-3.8811,-4.055,-4.1628,-4.2182,-4.1732,-4.2485,-4.466,-4.4898,-4.566,-4.7621,-4.7478,-4.7344,-4.7317,-4.6537,-4.6272,-4.6068,-4.5981,-4.5981,-4.5894,-4.5952,-4.6007,-4.5923,-4.5864,-4.5864,-4.5864,-4.6399,-4.7354,-4.974,-5.008,-4.9917,-5.0431,-5.1253,-5.122,-5.1387,-5.1752,-5.1818,-5.1423,-5.1324,-5.1719,-5.1916,-5.1916,-5.1916,-5.1916,-5.1916,-5.1916,-5.1982,-5.1949,-5.1883,-5.1883,-5.1883,-5.1883,-5.1916,-5.1916,-5.1916,-5.2014,-5.2679,-5.3302,-5.3473,-5.4223,-5.5637,-5.6172,-5.6871,-5.7053,-5.6812,-5.7386,-5.8155,-5.7822,-5.739,-5.8792,-6.0332,-6.1918,-6.371,-6.3605,-6.4015,-6.4763,-1.6999,-1.7389,-2.0219,-2.2067,-2.3009,-2.2782,-2.2416,-2.1919,-2.1774,-2.1524,-2.1266,-2.1524,-2.218,-2.2892,-2.3739,-2.4844,-2.6699,-2.7168,-2.8046,-2.8724,-2.9283,-3.0089,-3.0778,-3.1229,-3.1492,-3.1932,-3.2338,-3.2489,-3.2726,-3.3182,-3.3337,-3.3394,-3.3581,-3.4146,-3.4336,-3.466,-3.5277,-3.6143,-3.7739,-3.8363,-4.0814,-4.2003,-4.2587,-4.3691,-4.317,-4.3982,-4.4967,-4.529,-4.5818,-4.6799,-4.7406,-4.7185,-4.7274,-4.7269,-4.7377,-4.6911,-4.6533,-4.6766,-4.6475,-4.6475,-4.6824,-4.633,-4.6126,-4.6068,-4.6057,-4.6626,-4.7406,-4.9802,-5.023,-5.0252,-5.0463,-5.1646,-5.1978,-5.1971,-5.2276,-5.2146,-5.1715,-5.1356,-5.1719,-5.1949,-5.1916,-5.1916,-5.1916,-5.1916,-5.2114,-5.2541,-5.2607,-5.2738,-5.2772,-5.2772,-5.2475,-5.2146,-5.2377,-5.2278,-5.2048,-5.2998,-5.3911,-5.419,-5.5323,-5.6444,-5.7629,-5.9156,-5.971,-5.9008,-5.8925,-5.9496,-5.9827,-6.0056,-6.0643,-6.1273,-6.3733,-6.6305,-6.6088,-6.5423,-6.5921,-1.8501,-1.9495,-2.2255,-2.3399,-2.3386,-2.3269,-2.2945,-2.2529,-2.222,-2.1946,-2.1828,-2.3178,-2.4454,-2.5726,-2.6301,-2.7768,-2.9237,-2.9492,-3.0039,-3.0915,-3.136,-3.1663,-3.2024,-3.248,-3.303,-3.3087,-3.3391,-3.3486,-3.3574,-3.3998,-3.4172,-3.5561,-3.6669,-3.6789,-3.6889,-3.7263,-3.7581,-3.8473,-3.9356,-4.0252,-4.2526,-4.3031,-4.3891,-4.4835,-4.4171,-4.4683,-4.5575,-4.5182,-4.5916,-4.6778,-4.7319,-4.7297,-4.7217,-4.7964,-4.7994,-4.7405,-4.8045,-4.822,-4.7871,-4.8075,-4.8249,-4.7464,-4.7377,-4.7493,-4.7755,-4.7979,-4.8361,-4.8665,-4.9837,-5.1524,-5.1837,-5.2668,-5.3195,-5.3092,-5.2926,-5.2632,-5.2305,-5.1915,-5.1949,-5.2048,-5.2015,-5.2212,-5.2179,-5.2114,-5.2672,-5.3231,-5.3496,-5.3726,-5.399,-5.4156,-5.3228,-5.2732,-5.3821,-5.4021,-5.4218,-5.4322,-5.4457,-5.5475,-5.6544,-5.7472,-5.8381,-6.0141,-6.1251,-6.1042,-6.0756,-6.159,-6.2233,-6.2661,-6.3058,-6.3475,-6.5465,-6.7708,-6.7686,-6.7108,-6.7265,-1.938,-2.1262,-2.3162,-2.3892,-2.3879,-2.3411,-2.3118,-2.3087,-2.2742,-2.2559,-2.2801,-2.5642,-2.8028,-2.9517,-3.0405,-3.1358,-3.23,-3.2376,-3.2168,-3.2187,-3.2698,-3.2943,-3.3601,-3.4192,-3.4757,-3.4727,-3.5403,-3.5666,-3.5436,-3.5984,-3.7499,-3.9503,-3.9019,-3.9585,-3.965,-3.9147,-3.9399,-3.9775,-4.0646,-4.1774,-4.2768,-4.363,-4.4507,-4.4718,-4.4952,-4.5509,-4.6856,-4.6576,-4.6844,-4.7864,-4.7686,-4.7306,-4.7265,-4.8227,-4.8613,-4.8503,-4.913,-4.9965,-5.0227,-5.0431,-5.0198,-4.9994,-4.9791,-4.9736,-4.9948,-5.0033,-4.8687,-4.7519,-5.0159,-5.2056,-5.3365,-5.4594,-5.486,-5.4607,-5.4054,-5.3831,-5.3579,-5.3029,-5.2603,-5.2278,-5.2541,-5.3133,-5.3264,-5.3494,-5.3988,-5.4711,-5.5076,-5.4977,-5.5277,-5.5142,-5.4143,-5.3575,-5.4831,-5.5895,-5.6158,-5.624,-5.6018,-5.6685,-5.7744,-5.8487,-5.9653,-6.0368,-6.1799,-6.1953,-6.279,-6.3761,-6.4526,-6.4354,-6.4502,-6.5358,-6.589,-6.6509,-6.6667,-6.6701,-6.7145,-2.1419,-2.3175,-2.3775,-2.3918,-2.3918,-2.3762,-2.3672,-2.3853,-2.479,-2.4735,-2.4657,-2.675,-2.9005,-3.0173,-3.0818,-3.1857,-3.247,-3.2395,-3.2395,-3.322,-3.4127,-3.5081,-3.561,-3.7262,-3.8263,-3.8598,-3.8177,-3.8494,-3.8641,-3.8895,-3.9147,-3.99,-4.0522,-4.0252,-4.0127,-4.0398,-4.0522,-4.0522,-4.1016,-4.1774,-4.2526,-4.3152,-4.3891,-4.46,-4.4952,-4.5069,-4.5418,-4.5534,-4.5509,-4.6491,-4.6758,-4.6943,-4.6923,-4.8661,-4.988,-4.9346,-5.0706,-5.1856,-5.2641,-5.3164,-5.2874,-5.1972,-5.1216,-5.1759,-5.2165,-5.1309,-4.9973,-4.902,-5.1118,-5.2092,-5.303,-5.4466,-5.5636,-5.5941,-5.534,-5.529,-5.5102,-5.4463,-5.397,-5.4036,-5.4349,-5.4645,-5.5106,-5.5171,-5.5566,-5.6256,-5.6393,-5.6261,-5.6228,-5.6162,-5.5022,-5.3717,-5.5343,-5.7045,-5.6519,-5.6035,-5.7216,-5.7892,-5.8731,-5.9898,-6.1815,-6.2834,-6.2944,-6.3781,-6.4736,-6.5283,-6.5191,-6.5446,-6.5715,-6.5715,-6.5751,-6.5822,-6.591,-6.5942,-6.6295,-2.2887,-2.3918,-2.3918,-2.3918,-2.3918,-2.3918,-2.3918,-2.4088,-2.5054,-2.53,-2.5646,-2.7842,-2.979,-3.1282,-3.2373,-3.2966,-3.3458,-3.4074,-3.3979,-3.4159,-3.5654,-3.6738,-3.7364,-3.887,-4.0025,-3.971,-4.0149,-4.0646,-4.1995,-4.2117,-4.2117,-4.2238,-4.2261,-4.1995,-4.248,-4.2238,-4.2117,-4.1995,-4.214,-4.2601,-4.3248,-4.363,-4.401,-4.4859,-4.4835,-4.4952,-4.4952,-4.4952,-4.4952,-4.5185,-4.6428,-4.6806,-4.735,-4.9692,-5.2009,-5.0757,-5.279,-5.4444,-5.5243,-5.5927,-5.5549,-5.4502,-5.3873,-5.3709,-5.3932,-5.3171,-5.1928,-5.1513,-5.2562,-5.4044,-5.5422,-5.6485,-5.7417,-5.7639,-5.7401,-5.7214,-5.6813,-5.6077,-5.5636,-5.5989,-5.6355,-5.721,-5.7867,-5.7933,-5.8229,-5.8558,-5.8459,-5.8262,-5.8065,-5.7769,-5.6527,-5.5015,-5.6617,-5.8262,-5.7243,-5.6749,-5.8437,-5.8973,-5.9894,-6.1058,-6.3284,-6.4446,-6.4537,-6.5041,-6.552,-6.5608,-6.568,-6.5715,-6.5715,-6.5715,-6.5715,-6.5751,-6.5787,-6.5767,-6.5886,-2.3918,-2.3918,-2.3918,-2.3918,-2.3918,-2.3918,-2.4062,-2.4361,-2.4871,-2.553,-2.7096,-2.9282,-3.1169,-3.2438,-3.4629,-3.5534,-3.5536,-3.5669,-3.5593,-3.5189,-3.6998,-3.8088,-3.8133,-3.965,-4.0994,-4.1262,-4.1016,-4.2359,-4.3725,-4.4341,-4.46,-4.4483,-4.4341,-4.4718,-4.4223,-4.4105,-4.4952,-4.4835,-4.4718,-4.4718,-4.4718,-4.4718,-4.4718,-4.4835,-4.4952,-4.4952,-4.4952,-4.4952,-4.5185,-4.5302,-4.6655,-4.7513,-4.8669,-5.1584,-5.3193,-5.4678,-5.6218,-5.7818,-5.7352,-5.7818,-5.7789,-5.6771,-5.6451,-5.6012,-5.5447,-5.446,-5.4099,-5.3971,-5.4995,-5.6297,-5.7532,-5.9112,-6.0101,-5.9744,-5.8872,-5.8404,-5.8541,-5.7764,-5.7298,-5.7508,-5.7991,-5.9084,-5.9709,-6.0202,-6.0629,-6.0629,-6.0563,-6.0399,-6.0202,-5.984,-5.8859,-5.8359,-5.9371,-5.9643,-5.8952,-5.9183,-6.0065,-6.0221,-6.0806,-6.1593,-6.2817,-6.3651,-6.4469,-6.5217,-6.5539,-6.568,-6.5715,-6.5715,-6.5715,-6.5715,-6.5715,-6.5715,-6.5715,-6.5715,-6.5715,-2.3918,-2.3918,-2.3918,-2.3918,-2.3918,-2.3918,-2.462,-2.6254,-2.7583,-2.836,-2.9385,-3.2051,-3.3127,-3.3226,-3.4721,-3.5988,-3.5988,-3.6789,-3.6413,-3.607,-3.8496,-4.0042,-4.0596,-4.2117,-4.3677,-4.3509,-4.3629,-4.4223,-4.4859,-4.5098,-4.5001,-4.4952,-4.4952,-4.4952,-4.4952,-4.4952,-4.4952,-4.4952,-4.4952,-4.4952,-4.4952,-4.4952,-4.4952,-4.4952,-4.4952,-4.4952,-4.4952,-4.4952,-4.5418,-4.6428,-4.7271,-4.8341,-5.047,-5.2378,-5.446,-5.6707,-5.9126,-5.9039,-5.8748,-5.9068,-5.9446,-5.8138,-5.8225,-5.7229,-5.6446,-5.6044,-5.569,-5.4176,-5.451,-5.5695,-5.7778,-5.8166,-5.8949,-5.9735,-5.9651,-5.8998,-5.9415,-5.9296,-5.8763,-5.9046,-5.9765,-6.0136,-6.0235,-6.0629,-6.0629,-6.0629,-6.0629,-6.0629,-6.0629,-6.0629,-6.0629,-6.0629,-6.0629,-6.0629,-6.0629,-6.0629,-6.0629,-6.0705,-6.1131,-6.1755,-6.2415,-6.3144,-6.3836,-6.4735,-6.5162,-6.568,-6.5715,-6.5715,-6.5715,-6.5715,-6.5715,-6.5715,-6.5715,-6.5715,-6.5715,-2.3918,-2.3918,-2.3918,-2.3918,-2.3918,-2.3918,-2.4478,-2.5475,-2.7273,-2.8646,-3.0162,-3.235,-3.3569,-3.3941,-3.521,-3.5496,-3.5821,-3.6504,-3.69,-3.7579,-3.9506,-4.1041,-4.3192,-4.4009,-4.513,-4.5635,-4.5733,-4.5468,-4.5049,-4.5464,-4.5489,-4.5147,-4.4952,-4.4952,-4.4952,-4.4952,-4.4952,-4.4952,-4.4952,-4.4952,-4.4952,-4.4952,-4.4952,-4.4952,-4.4952,-4.4952,-4.4952,-4.4952,-4.5649,-4.6995,-4.7865,-4.9712,-5.2107,-5.4627,-5.6984,-5.8967,-6.0464,-6.0552,-6.0028,-6.029,-6.0755,-5.9475,-5.9156,-5.8388,-5.7285,-5.687,-5.6161,-5.4723,-5.4348,-5.6034,-5.7596,-5.8547,-5.9355,-6.0289,-6.0146,-6.0113,-6.0301,-6.0068,-6.0092,-6.0257,-6.0399,-6.0432,-6.0629,-6.0629,-6.0629,-6.0629,-6.0629,-6.0629,-6.0629,-6.0629,-6.0629,-6.0629,-6.0629,-6.0629,-6.0629,-6.0629,-6.0629,-6.0748,-6.1131,-6.186,-6.2618,-6.3526,-6.4174,-6.462,-6.5052,-6.5663,-6.5715,-6.5715,-6.5715,-6.5715,-6.5715,-6.5715,-6.5715,-6.5715,-6.5715,-2.3918,-2.3918,-2.3918,-2.3918,-2.3918,-2.4335,-2.4763,-2.5122,-2.7242,-2.878,-3.0844,-3.2314,-3.4041,-3.4832,-3.5327,-3.5346,-3.565,-3.6451,-3.7485,-3.9136,-4.002,-4.1939,-4.418,-4.4895,-4.5492,-4.6367,-4.6514,-4.5928,-4.5464,-4.5977,-4.5855,-4.5147,-4.4952,-4.4952,-4.4952,-4.4952,-4.4952,-4.4952,-4.4952,-4.4952,-4.4952,-4.4952,-4.4952,-4.4952,-4.4952,-4.4952,-4.4952,-4.4976,-4.5649,-4.7195,-4.8745,-5.1013,-5.3726,-5.6697,-5.8822,-6.0261,-6.0988,-6.1108,-6.093,-6.1137,-6.1166,-6.0934,-6.0348,-5.9043,-5.8166,-5.758,-5.6446,-5.521,-5.5402,-5.6792,-5.757,-5.8336,-5.9692,-6.0211,-6.0101,-6.0289,-6.052,-6.0553,-6.0553,-6.0629,-6.0629,-6.0629,-6.0629,-6.0629,-6.0629,-6.0629,-6.0629,-6.0629,-6.0629,-6.0629,-6.0629,-6.0629,-6.0629,-6.0629,-6.0629,-6.0629,-6.0629,-6.0824,-6.109,-6.1789,-6.2585,-6.3651,-6.4562,-6.4905,-6.5361,-6.5663,-6.5715,-6.5715,-6.5715,-6.5715,-6.5715,-6.5715,-6.5715,-6.5715,-6.5715,-2.3918,-2.3918,-2.3918,-2.3918,-2.4192,-2.5461,-2.6985,-2.8552,-3.0685,-3.2214,-3.4887,-3.5384,-3.5307,-3.601,-3.6561,-3.658,-3.639,-3.6909,-3.8583,-4.0208,-4.0944,-4.2572,-4.4325,-4.5015,-4.5513,-4.6538,-4.6976,-4.6243,-4.5754,-4.5952,-4.6461,-4.5078,-4.4884,-4.4952,-4.4952,-4.4952,-4.4952,-4.4952,-4.4952,-4.4952,-4.4952,-4.4952,-4.4952,-4.4952,-4.4952,-4.4952,-4.4952,-4.4952,-4.5624,-4.722,-4.9316,-5.2043,-5.4946,-5.7392,-5.9126,-5.9592,-6.0668,-6.0992,-6.122,-6.1166,-6.1166,-6.1166,-6.0988,-6.0304,-5.9108,-5.8184,-5.7103,-5.5954,-5.4851,-5.5837,-5.9283,-5.8463,-5.772,-5.872,-5.9242,-5.9675,-6.0366,-6.0629,-6.0629,-6.0629,-6.0629,-6.0629,-6.0629,-6.0629,-6.0629,-6.0629,-6.0629,-6.0629,-6.0629,-6.0629,-6.0629,-6.0629,-6.0629,-6.0629,-6.0629,-6.0629,-6.0629,-6.0781,-6.0899,-6.1497,-6.214,-6.3307,-6.4293,-6.4905,-6.5415,-6.561,-6.5715,-6.5715,-6.5715,-6.5715,-6.5715,-6.5715,-6.5715,-6.5715,-6.5715,-2.3918,-2.3918,-2.3918,-2.3918,-2.4205,-2.5858,-2.7125,-2.8367,-3.0983,-3.2974,-3.413,-3.5228,-3.5489,-3.5496,-3.5972,-3.6295,-3.6356,-3.7173,-3.9157,-4.1723,-4.1967,-4.3594,-4.5702,-4.5641,-4.5615,-4.7078,-4.8107,-4.8081,-4.7655,-4.8056,-4.7823,-4.6072,-4.522,-4.5166,-4.4952,-4.4952,-4.4952,-4.5001,-4.4952,-4.4952,-4.4952,-4.4952,-4.4952,-4.4952,-4.4952,-4.4952,-4.4976,-4.4952,-4.6199,-4.8386,-5.0794,-5.3061,-5.4573,-5.6638,-5.8399,-5.917,-6.0011,-6.0435,-6.1133,-6.1166,-6.1166,-6.1166,-6.1166,-6.0507,-5.9507,-5.9576,-5.8748,-5.7247,-5.5577,-5.4847,-5.8078,-5.6826,-5.7348,-5.8555,-5.8885,-5.9435,-6.0366,-6.0629,-6.0629,-6.0629,-6.0629,-6.0629,-6.0629,-6.0629,-6.0629,-6.0629,-6.0629,-6.0629,-6.0629,-6.0629,-6.0629,-6.0629,-6.0629,-6.0629,-6.0629,-6.0629,-6.0629,-6.0705,-6.1016,-6.1718,-6.2821,-6.3656,-6.4418,-6.4805,-6.5468,-6.5628,-6.6357,-6.5751,-6.5715,-6.5894,-6.5965,-6.5787,-6.5894,-6.6393,-6.6464,-2.3918,-2.3918,-2.3918,-2.3918,-2.4335,-2.6281,-2.7266,-2.767,-3.127,-3.3127,-3.3496,-3.494,-3.5488,-3.5346,-3.5726,-3.5612,-3.5937,-3.7347,-3.9274,-4.2636,-4.2315,-4.4692,-4.6683,-4.67,-4.6535,-4.7888,-5.001,-5.0582,-5.0297,-5.0738,-5.0272,-4.81,-4.7235,-4.6104,-4.5814,-4.597,-4.593,-4.583,-4.6345,-4.6726,-4.7068,-4.7169,-4.7169,-4.7027,-4.6403,-4.583,-4.5516,-4.5418,-4.6831,-4.9504,-5.1645,-5.2835,-5.3941,-5.5898,-5.7457,-5.8222,-5.8794,-5.965,-6.0348,-6.0842,-6.122,-6.0901,-6.0847,-6.0822,-5.9878,-6.0627,-6.0153,-5.8301,-5.5709,-5.4502,-5.6166,-5.6582,-5.7398,-5.8472,-5.8998,-5.9355,-6.0366,-6.0629,-6.0629,-6.0629,-6.0629,-6.0629,-6.0629,-6.0629,-6.0629,-6.0629,-6.0629,-6.0629,-6.0629,-6.0629,-6.0629,-6.0629,-6.0629,-6.0629,-6.0629,-6.0629,-6.0629,-6.0705,-6.1503,-6.2381,-6.4251,-6.5413,-6.6443,-6.6528,-6.6284,-6.6696,-6.7749,-6.7249,-6.6464,-6.6357,-6.6357,-6.7107,-6.7642,-6.7285,-6.7356,-2.3918,-2.3918,-2.3918,-2.3918,-2.462,-2.767,-2.9199,-2.9888,-3.3011,-3.4888,-3.5564,-3.668,-3.6322,-3.6162,-3.6333,-3.639,-3.5384,-3.7591,-3.8688,-3.9722,-4.1869,-4.4125,-4.6758,-4.72,-4.8013,-4.8989,-5.1448,-5.2245,-5.2663,-5.3718,-5.2949,-5.113,-5.0414,-4.9278,-4.778,-4.8191,-4.8721,-4.8667,-4.9471,-5.0539,-5.1253,-5.1253,-5.1253,-5.1058,-4.9648,-4.8003,-4.744,-4.7108,-4.8522,-5.1277,-5.1118,-5.2355,-5.3739,-5.5287,-5.6247,-5.6492,-5.7886,-5.8661,-5.8458,-5.997,-6.0668,-5.9883,-6.0552,-6.1108,-6.0726,-6.0532,-5.9941,-5.7761,-5.5214,-5.407,-5.442,-5.5014,-5.6482,-5.8504,-5.9159,-5.958,-6.0289,-6.0629,-6.0629,-6.0629,-6.0629,-6.0629,-6.0629,-6.0629,-6.0629,-6.0629,-6.0629,-6.0629,-6.0629,-6.0629,-6.0629,-6.0629,-6.0629,-6.0629,-6.0695,-6.0695,-6.0728,-6.0804,-6.1852,-6.3571,-6.5449,-6.7316,-6.8456,-6.9306,-6.9359,-6.9564,-6.9711,-6.8748,-6.7749,-6.7535,-6.8034,-6.8962,-6.9782,-6.9302,-6.9159,-2.4217,-2.4049,-2.5034,-2.5447,-2.6013,-2.9459,-3.1102,-3.1663,-3.3886,-3.5213,-3.5517,-3.5934,-3.584,-3.5574,-3.5896,-3.5859,-3.6091,-3.8256,-3.9443,-4.0063,-4.3235,-4.4943,-4.5711,-4.6967,-4.8181,-4.9364,-5.1806,-5.3297,-5.436,-5.5524,-5.5091,-5.3508,-5.2038,-5.0815,-4.9779,-5.0306,-5.0463,-5.072,-5.1699,-5.2988,-5.3934,-5.3501,-5.3528,-5.3629,-5.1773,-5.0169,-4.9641,-4.8869,-5.0638,-5.3797,-5.428,-5.4142,-5.478,-5.4851,-5.4968,-5.568,-5.6538,-5.7411,-5.7614,-5.8399,-5.8807,-5.8574,-5.8661,-5.9039,-5.9264,-5.9107,-5.867,-5.6988,-5.4958,-5.3822,-5.3767,-5.403,-5.5787,-5.8579,-6.097,-6.2221,-6.1833,-6.1879,-6.1517,-6.0892,-6.0629,-6.0629,-6.0629,-6.0629,-6.0629,-6.0695,-6.0925,-6.0859,-6.0827,-6.0629,-6.0629,-6.0629,-6.0629,-6.0892,-6.1057,-6.109,-6.1122,-6.1199,-6.2266,-6.4547,-6.6648,-6.8984,-6.9506,-6.9931,-7.1621,-7.2494,-7.203,-7.1352,-7.0175,-6.9604,-6.9854,-7.046,-7.1107,-7.1091,-7.1234,-2.4676,-2.4415,-2.5956,-2.6578,-2.7125,-3.0693,-3.2204,-3.2473,-3.4171,-3.5023,-3.5156,-3.525,-3.5248,-3.5061,-3.527,-3.5498,-3.6377,-3.8701,-4.046,-4.1514,-4.4782,-4.6003,-4.5757,-4.7032,-4.881,-5.0685,-5.3204,-5.5117,-5.6625,-5.7867,-5.747,-5.5987,-5.4864,-5.3894,-5.3066,-5.3454,-5.3535,-5.391,-5.4909,-5.6108,-5.7415,-5.7027,-5.6772,-5.7352,-5.4987,-5.3497,-5.3224,-5.1862,-5.3193,-5.7055,-5.6816,-5.6408,-5.6057,-5.5404,-5.5404,-5.6173,-5.6463,-5.7003,-5.7643,-5.8603,-5.8923,-5.8574,-5.9359,-5.9039,-5.9039,-5.8215,-5.7551,-5.7364,-5.5012,-5.3998,-5.5097,-5.5656,-5.6855,-5.9464,-6.2476,-6.4182,-6.3602,-6.3306,-6.2964,-6.201,-6.1912,-6.1977,-6.2043,-6.2043,-6.201,-6.201,-6.2076,-6.2076,-6.2273,-6.2096,-6.2162,-6.1702,-6.1374,-6.155,-6.1583,-6.1616,-6.1759,-6.1968,-6.3685,-6.6059,-6.7854,-7.0242,-7.0543,-7.0754,-7.3102,-7.3849,-7.3671,-7.3493,-7.2957,-7.1994,-7.228,-7.2529,-7.2965,-7.2915,-7.2965,-2.4924,-2.4954,-2.6139,-2.6762,-2.7266,-3.0693,-3.2339,-3.2608,-3.4152,-3.5004,-3.5137,-3.5577,-3.5577,-3.5231,-3.5881,-3.5861,-3.5818,-3.8641,-4.0383,-4.1564,-4.4235,-4.6611,-4.6682,-4.8424,-5.0346,-5.2622,-5.5606,-5.8236,-6.0106,-6.0623,-6.0329,-5.936,-5.968,-5.934,-5.7415,-5.8137,-5.8886,-5.9503,-6.0257,-6.1579,-6.3715,-6.392,-6.3917,-6.3859,-6.0477,-5.8282,-5.7917,-5.6403,-5.6078,-5.7316,-5.7905,-5.773,-5.744,-5.7352,-5.7032,-5.7207,-5.8428,-5.8254,-5.8458,-6.0086,-6.1569,-6.0668,-6.1395,-6.285,-6.1722,-5.9734,-5.896,-5.9662,-5.6647,-5.5472,-5.8263,-5.9454,-6.0346,-6.1297,-6.372,-6.5046,-6.4869,-6.4788,-6.4608,-6.4509,-6.4608,-6.4575,-6.4066,-6.4279,-6.4312,-6.4312,-6.4246,-6.4114,-6.4082,-6.4049,-6.3952,-6.369,-6.3296,-6.3344,-6.3325,-6.3358,-6.3517,-6.4184,-6.604,-6.7639,-6.9002,-7.117,-7.2274,-7.3431,-7.4884,-7.4991,-7.492,-7.4706,-7.4349,-7.3849,-7.4099,-7.4848,-7.4884,-7.4586,-7.4479,-2.5451,-2.5072,-2.6561,-2.7666,-2.8799,-3.1102,-3.2912,-3.4019,-3.4721,-3.5004,-3.508,-3.5323,-3.5229,-3.5289,-3.6463,-3.6798,-3.6929,-4.0003,-4.1652,-4.2109,-4.4488,-4.6271,-4.7663,-4.7437,-4.8704,-5.2157,-5.6459,-5.9426,-6.1224,-6.2093,-6.2646,-6.2762,-6.2616,-6.1837,-6.1204,-6.1546,-6.1401,-6.1463,-6.2879,-6.4158,-6.4943,-6.5118,-6.5467,-6.5845,-6.3339,-6.1463,-6.0544,-6.1147,-6.1405,-6.1108,-6.1075,-6.0232,-5.869,-5.7934,-5.7527,-5.7585,-5.7934,-5.8428,-5.8719,-6.0232,-6.0493,-6.0377,-6.125,-6.1633,-6.0829,-6.2407,-6.0912,-6.0324,-5.8879,-5.8956,-6.0306,-6.1029,-6.2419,-6.4687,-6.594,-6.6669,-6.7277,-6.6646,-6.6054,-6.5775,-6.5002,-6.4247,-6.4247,-6.4493,-6.4904,-6.4904,-6.4904,-6.4904,-6.5183,-6.6104,-6.5561,-6.5035,-6.4986,-6.5019,-6.5068,-6.515,-6.5312,-6.661,-6.8091,-6.8968,-7.0049,-7.2174,-7.3595,-7.4645,-7.5241,-7.5241,-7.5241,-7.5241,-7.5241,-7.5241,-7.4955,-7.5241,-7.5241,-7.5241,-7.5241,-2.7111,-2.6654,-2.8939,-3.0184,-3.0956,-3.2708,-3.3936,-3.5004,-3.5004,-3.5004,-3.5004,-3.5004,-3.5004,-3.5381,-3.678,-3.7534,-3.7919,-4.1869,-4.391,-4.4101,-4.528,-4.688,-4.7634,-4.6709,-4.7957,-5.2038,-5.6794,-6.0057,-6.1662,-6.2762,-6.3867,-6.4856,-6.4594,-6.4391,-6.4273,-6.4391,-6.4303,-6.3867,-6.5059,-6.5932,-6.631,-6.6339,-6.6746,-6.7299,-6.5554,-6.4012,-6.3227,-6.4769,-6.4827,-6.3169,-6.3198,-6.2209,-6.029,-5.9126,-5.869,-5.8719,-5.901,-5.9708,-6.0464,-6.1279,-6.2006,-6.1977,-6.2616,-6.23,-6.1751,-6.4391,-6.4626,-6.2091,-6.2647,-6.3453,-6.3134,-6.3083,-6.4988,-6.878,-6.93,-6.9932,-7.0913,-6.9495,-6.8264,-6.7887,-6.6482,-6.5822,-6.6215,-6.5953,-6.6547,-6.6515,-6.6449,-6.6449,-6.6515,-6.7938,-6.8088,-6.6763,-6.6598,-6.6646,-6.6942,-6.7139,-6.7191,-6.7938,-6.9001,-6.9778,-7.1344,-7.2976,-7.3993,-7.4769,-7.5085,-7.5241,-7.5241,-7.5241,-7.5241,-7.5241,-7.5241,-7.5241,-7.5241,-7.5241,-7.5241,-2.9581,-2.9995,-3.3218,-3.3811,-3.3431,-3.4944,-3.5628,-3.5061,-3.5118,-3.5004,-3.5004,-3.5004,-3.5136,-3.5513,-3.7148,-3.7724,-3.9106,-4.3813,-4.6247,-4.6466,-4.7439,-4.81,-4.8368,-4.8218,-4.9904,-5.3378,-5.7327,-6.0557,-6.3053,-6.3344,-6.41,-6.5292,-6.6397,-6.6746,-6.695,-6.6834,-6.7444,-6.7822,-6.727,-6.7561,-6.8753,-6.8666,-6.8695,-6.8695,-6.759,-6.6804,-6.6834,-6.6921,-6.5874,-6.3722,-6.3314,-6.2616,-6.1366,-6.0988,-6.1104,-6.1104,-6.2209,-6.2878,-6.3227,-6.4914,-6.5699,-6.5961,-6.6572,-6.6223,-6.569,-6.7345,-6.7818,-6.6298,-6.703,-6.7939,-6.6775,-6.6673,-6.8189,-7.2387,-7.2525,-7.3094,-7.4119,-7.3002,-7.1495,-7.1075,-7.0033,-7.0033,-7.0911,-7.0088,-6.8783,-6.8718,-6.8685,-6.8652,-6.8619,-6.887,-6.9178,-6.8948,-6.8487,-6.8126,-6.8652,-6.9145,-6.9079,-6.9166,-6.9879,-7.0161,-7.1487,-7.301,-7.3922,-7.4866,-7.5241,-7.5241,-7.5241,-7.5241,-7.5241,-7.5241,-7.5276,-7.5276,-7.5383,-7.549,-7.5419,-3.0903,-3.2008,-3.2983,-3.3824,-3.4363,-3.4917,-3.5469,-3.578,-3.5726,-3.5508,-3.5118,-3.5004,-3.5644,-3.6889,-3.8536,-4.0551,-4.3299,-4.5483,-4.7026,-4.7734,-4.81,-4.8612,-4.9204,-4.9691,-5.2161,-5.6244,-5.755,-6.017,-6.4011,-6.4478,-6.5641,-6.759,-6.8113,-6.8404,-6.8375,-6.8375,-6.8055,-6.7822,-6.8142,-6.8055,-6.7764,-6.852,-6.8986,-6.8928,-6.8608,-6.8375,-6.8375,-6.8375,-6.7183,-6.4914,-6.4507,-6.3518,-6.1457,-6.1166,-6.1166,-6.1195,-6.1602,-6.2267,-6.3198,-6.3954,-6.4827,-6.5641,-6.6485,-6.6921,-6.6682,-6.8063,-6.8617,-6.7959,-6.7429,-6.713,-6.7901,-6.8346,-6.8949,-7.0168,-7.1472,-7.2223,-7.27,-7.2923,-7.2998,-7.2959,-7.2499,-7.2195,-7.1997,-7.1339,-7.0361,-6.9309,-6.9276,-6.9276,-6.9276,-6.9276,-6.9276,-6.9276,-6.9276,-6.9276,-7.0066,-7.0033,-6.9737,-7.0077,-7.0741,-7.0202,-7.0756,-7.2349,-7.369,-7.4734,-7.5241,-7.5241,-7.5241,-7.5241,-7.5241,-7.5241,-7.5954,-7.7025,-7.65,-7.6204,-7.6143,-3.1534,-3.3313,-3.4846,-3.5789,-3.6177,-3.6141,-3.6297,-3.6612,-3.669,-3.6315,-3.5934,-3.5823,-3.6923,-3.8604,-4.0277,-4.3036,-4.6512,-4.7405,-4.8124,-4.8759,-4.9198,-4.9735,-5.0378,-5.0762,-5.332,-5.7047,-5.7099,-5.9503,-6.3951,-6.4914,-6.6194,-6.8026,-6.8782,-6.8986,-6.8986,-6.8986,-6.8637,-6.791,-6.8549,-6.8608,-6.7968,-6.8579,-6.8986,-6.8986,-6.8986,-6.8986,-6.8986,-6.8986,-6.7822,-6.5234,-6.5118,-6.3925,-6.1657,-6.1166,-6.1166,-6.1224,-6.1715,-6.2355,-6.3111,-6.3605,-6.4245,-6.5089,-6.5903,-6.6339,-6.6682,-6.7466,-6.8433,-6.8695,-6.7304,-6.7159,-6.8695,-6.9554,-6.9758,-7.0092,-7.1621,-7.309,-7.3082,-7.371,-7.464,-7.4993,-7.473,-7.4499,-7.3999,-7.2648,-7.1273,-7.0329,-6.9638,-6.9309,-6.9276,-6.9276,-6.9276,-6.9276,-6.9309,-6.9846,-7.1545,-7.1677,-7.1216,-7.1814,-7.1969,-7.2021,-7.4194,-7.6506,-7.6536,-7.787,-7.9209,-7.9558,-8.0057,-7.9736,-7.7524,-7.7667,-7.8915,-7.9629,-7.8896,-7.9138,-7.846,-3.1951,-3.4307,-3.8232,-3.9316,-3.8782,-3.8616,-3.8307,-3.7548,-3.7624,-3.7548,-3.7366,-3.7348,-3.8722,-4.1112,-4.2454,-4.4972,-4.8135,-4.9271,-4.9637,-4.9906,-5.0833,-5.1504,-5.1552,-5.1686,-5.3399,-5.636,-5.6825,-5.9104,-6.2966,-6.4361,-6.5728,-6.7124,-6.8288,-6.8898,-6.8986,-6.8986,-6.8986,-6.8869,-6.8957,-6.8957,-6.8957,-6.9073,-6.9218,-6.9364,-6.9247,-6.9306,-6.916,-6.9131,-6.8063,-6.5412,-6.5355,-6.4217,-6.194,-6.1532,-6.1391,-6.1478,-6.2355,-6.3053,-6.3169,-6.3983,-6.4827,-6.5089,-6.5234,-6.5641,-6.6682,-6.7059,-6.764,-6.8898,-6.884,-6.8782,-6.9112,-6.9838,-7.0665,-7.0934,-7.3562,-7.5032,-7.526,-7.5433,-7.6504,-7.7223,-7.657,-7.6244,-7.7355,-7.423,-7.2491,-7.1964,-7.0746,-6.9901,-7.0296,-6.9901,-7.0066,-7.0197,-7.0394,-7.1414,-7.6214,-7.5425,-7.5195,-7.5684,-7.5273,-7.5491,-7.9048,-8.1509,-8.1153,-8.1316,-8.2218,-8.3232,-8.4445,-8.391,-8.2091,-8.0342,-8.152,-8.256,-8.228,-8.2275,-8.1283,-3.5574,-3.6368,-3.886,-3.9845,-3.9636,-3.9636,-3.9143,-3.8478,-3.8416,-3.8022,-3.7491,-3.743,-4.0712,-4.5836,-4.6023,-4.7636,-5.0263,-5.0003,-5.0199,-5.098,-5.1406,-5.1552,-5.1819,-5.3786,-5.5509,-5.6622,-5.872,-6.0515,-6.1662,-6.3111,-6.5379,-6.7939,-6.7851,-6.8055,-6.8898,-6.8986,-6.8986,-6.8986,-6.8986,-6.8986,-6.916,-6.9916,-7.0818,-7.1603,-7.172,-7.1312,-7.044,-7.0411,-6.9635,-6.8157,-6.7084,-6.6222,-6.5646,-6.3855,-6.2731,-6.279,-6.2159,-6.1689,-6.1689,-6.2151,-6.314,-6.4856,-6.5118,-6.6019,-6.7851,-6.8375,-6.8608,-6.8986,-6.8986,-6.8986,-6.9015,-6.9334,-6.9525,-6.9744,-7.2324,-7.4029,-7.4266,-7.6196,-7.7462,-7.7889,-7.7495,-7.7561,-7.7495,-7.6079,-7.457,-7.4598,-7.3452,-7.3025,-7.48,-7.3715,-7.3222,-7.51,-7.3682,-7.4373,-7.7036,-7.7233,-7.7102,-7.7595,-7.7759,-7.8287,-8.1812,-8.1803,-8.1367,-8.5207,-8.4527,-8.548,-8.8833,-9.0189,-8.9333,-8.4659,-8.3232,-8.4552,-8.5768,-8.4659,-8.3558,-3.6075,-3.7158,-3.9183,-3.9997,-3.9997,-3.9997,-3.9674,-3.9256,-3.9167,-3.9424,-3.9635,-3.9647,-4.3029,-4.8558,-4.8004,-4.9001,-5.137,-5.076,-5.0833,-5.1504,-5.1552,-5.1552,-5.1819,-5.4145,-5.5731,-5.6622,-5.8955,-6.0543,-6.1311,-6.2035,-6.4129,-6.7037,-6.7212,-6.7677,-6.8898,-6.8986,-6.8986,-6.8986,-6.8986,-7.0208,-7.231,-7.3397,-7.4117,-7.4651,-7.4741,-7.4381,-7.3877,-7.3787,-7.2892,-7.1109,-7.0246,-6.9078,-6.7486,-6.5926,-6.4835,-6.4181,-6.3313,-6.2701,-6.2108,-6.1585,-6.1834,-6.3431,-6.3547,-6.4887,-6.7509,-6.7655,-6.7939,-6.8753,-6.8986,-6.8986,-6.8986,-6.8986,-6.9238,-7.0084,-7.2018,-7.3763,-7.4312,-7.6557,-7.7891,-7.7924,-7.7924,-7.7891,-7.7759,-7.7167,-7.674,-7.6543,-7.605,-7.5885,-7.7332,-7.6543,-7.628,-7.7463,-7.7726,-7.8351,-8.085,-8.0653,-8.0455,-8.0949,-8.0587,-8.145,-8.4702,-8.4972,-8.5382,-8.9475,-8.9368,-9.0546,-9.3507,-9.3435,-9.3221,-9.0688,-8.8477,-8.8691,-8.9904,-8.8691,-8.7622,-3.5435,-3.733,-3.9353,-3.9997,-3.9997,-3.9997,-3.9978,-3.9959,-3.9978,-4.1102,-4.28,-4.309,-4.512,-4.8558,-4.888,-4.9839,-5.1419,-5.1552,-5.1528,-5.1552,-5.1552,-5.1552,-5.1927,-5.3425,-5.5033,-5.6744,-5.8456,-6.0057,-6.1195,-6.1511,-6.2704,-6.4827,-6.6339,-6.7735,-6.9044,-6.9218,-6.9403,-6.9588,-6.9714,-7.2463,-7.7618,-7.7923,-7.7955,-7.8079,-7.8111,-7.8048,-7.7687,-7.7799,-7.6489,-7.4373,-7.3667,-7.1901,-6.8624,-6.7732,-6.6943,-6.5602,-6.5309,-6.4806,-6.3629,-6.2188,-6.159,-6.1536,-6.1769,-6.3051,-6.5764,-6.5615,-6.6252,-6.8375,-6.8986,-6.8986,-6.8986,-6.8986,-6.9554,-7.0845,-7.2429,-7.4038,-7.543,-7.6996,-7.7924,-7.7924,-7.7924,-7.7957,-7.822,-7.8187,-7.8154,-7.845,-7.8351,-7.868,-7.9403,-7.8943,-7.8647,-7.9436,-8.085,-8.3447,-8.5091,-8.4204,-8.3743,-8.542,-8.4236,-8.498,-8.7569,-8.8781,-8.9343,-9.1846,-9.3114,-9.2936,-9.3864,-9.3899,-9.3792,-9.2615,-9.2793,-9.3543,-9.3614,-9.2472,-9.1937,-3.8879,-3.9353,-3.9827,-3.9997,-3.9997,-3.9997,-3.9997,-3.9997,-3.9997,-4.1994,-4.4786,-4.5066,-4.7249,-5.0699,-5.0882,-5.1151,-5.1419,-5.1552,-5.1552,-5.1552,-5.1552,-5.2192,-5.3399,-5.5007,-5.6744,-5.8337,-5.9942,-6.0941,-6.1282,-6.2297,-6.3082,-6.378,-6.5903,-6.8171,-7.044,-7.0498,-7.1649,-7.3746,-7.5077,-7.6931,-7.9145,-7.9238,-7.9768,-8.0702,-8.0795,-8.0328,-7.9269,-7.821,-7.7451,-7.6927,-7.4794,-7.3165,-7.2282,-7.0189,-6.833,-6.6929,-6.5871,-6.5178,-6.4806,-6.3629,-6.3257,-6.4153,-6.3274,-6.3227,-6.4339,-6.4835,-6.6147,-6.8453,-6.8986,-6.8986,-6.9015,-6.8986,-6.9554,-7.1085,-7.254,-7.4155,-7.5494,-7.6996,-7.7924,-7.7924,-7.7924,-7.8417,-7.9305,-7.9601,-8.0028,-8.0883,-8.1212,-8.2264,-8.3908,-8.256,-8.2461,-8.3973,-8.519,-8.5913,-8.6341,-8.588,-8.588,-8.6341,-8.5946,-8.6982,-8.8899,-9.0013,-9.0994,-9.3083,-9.3935,-9.3935,-9.3935,-9.3935,-9.3935,-9.3935,-9.3935,-9.3935,-9.3935,-9.3471,-9.3578,-3.9183,-3.9997,-3.9997,-3.9997,-3.9997,-3.9997,-3.9997,-3.9997,-3.9997,-4.2142,-4.5522,-4.5695,-4.7868,-5.1394,-5.1552,-5.1552,-5.1552,-5.1552,-5.1552,-5.1552,-5.1552,-5.1927,-5.293,-5.5285,-5.6866,-5.7833,-6.0085,-6.1486,-6.2238,-6.346,-6.4361,-6.5059,-6.695,-6.9371,-7.1853,-7.263,-7.4081,-7.6267,-7.7198,-7.8754,-8.072,-8.0178,-8.0497,-8.187,-8.2572,-8.2221,-8.0961,-7.9443,-7.8217,-7.6984,-7.5395,-7.397,-7.2736,-7.1292,-6.9658,-6.8232,-6.746,-6.6865,-6.626,-6.5576,-6.4911,-6.4276,-6.3029,-6.2358,-6.2556,-6.4097,-6.6234,-6.8753,-6.8986,-6.8986,-6.9015,-6.9532,-7.0635,-7.2086,-7.3544,-7.5046,-7.6428,-7.743,-7.7891,-7.7957,-7.8483,-7.9272,-8.0359,-8.0751,-8.1573,-8.2921,-8.3184,-8.4006,-8.6078,-8.519,-8.4861,-8.6275,-8.6637,-8.6637,-8.6637,-8.6637,-8.6637,-8.6637,-8.6637,-8.7645,-8.96,-9.0127,-9.1203,-9.326,-9.3935,-9.3935,-9.3935,-9.3935,-9.3935,-9.3935,-9.3935,-9.3935,-9.3935,-9.3935,-9.3935,-3.8403,-3.9997,-3.9997,-3.9997,-3.9997,-3.9997,-3.9997,-3.9997,-3.9997,-4.2142,-4.5708,-4.5901,-4.8074,-5.1552,-5.1552,-5.1552,-5.1552,-5.1552,-5.1552,-5.1577,-5.1686,-5.1927,-5.2299,-5.5258,-5.6947,-5.7476,-6.0398,-6.25,-6.378,-6.5059,-6.631,-6.7561,-6.8724,-7.059,-7.3093,-7.4758,-7.6696,-7.9002,-7.8917,-8.0151,-8.2757,-8.1639,-8.1277,-8.1672,-8.3079,-8.3184,-8.1113,-7.9995,-7.8055,-7.503,-7.4702,-7.3353,-7.0756,-7.0493,-7.0164,-6.9309,-6.9013,-6.8411,-6.7323,-6.7038,-6.585,-6.3535,-6.2019,-6.1116,-6.0846,-6.3403,-6.6197,-6.8637,-6.8957,-6.8986,-6.9112,-7.0121,-7.1405,-7.317,-7.4549,-7.6087,-7.7661,-7.7891,-7.7924,-7.7924,-7.9173,-8.0225,-8.1017,-8.1972,-8.3053,-8.4335,-8.4697,-8.5157,-8.6308,-8.6637,-8.6637,-8.6637,-8.6637,-8.6637,-8.6637,-8.6637,-8.6637,-8.6637,-8.6637,-8.7364,-8.941,-8.9976,-9.094,-9.3182,-9.3714,-9.3825,-9.3935,-9.3935,-9.3935,-9.3935,-9.3935,-9.3935,-9.3935,-9.3935,-9.3935,-3.9656,-3.9997,-3.9997,-3.9997,-3.9997,-3.9997,-3.9997,-3.9997,0.0,0.0,0.0,-4.7379,-4.9359,-5.1419,-5.1552,-5.1552,-5.1552,-5.1552,-5.1552,-5.1577,-5.2774,-5.4145,-5.5633,-5.7499,-5.9724,-6.2008,-6.3662,-6.5089,-6.6339,-6.7677,-6.8986,-7.0149,-7.0469,-7.1297,-7.2857,-7.5502,-7.9526,-8.4807,-8.5117,-8.5368,-8.588,-8.5617,-8.3316,-7.8779,-8.1212,-8.0258,-7.5425,-7.6082,-7.4636,-7.0625,-6.9244,-6.7863,-6.6219,-6.6087,-6.7041,-6.8981,-6.8093,-6.735,-6.7113,-6.5948,-6.4683,-6.3306,-6.1998,-6.0423,-5.8292,-6.2435,-6.6199,-6.885,-6.8975,-6.8986,-6.8986,-6.9275,-7.0542,-7.3181,-7.3667,-7.5017,-7.7529,-7.7924,-7.7924,-7.8055,-7.9206,-8.0554,-8.1873,-8.3119,-8.4565,-8.588,-8.6111,-8.6407,-8.6571,-8.6637,-8.6637,-8.6637,-8.6637,-8.6637,-8.6637,-8.6637,-8.6637,-8.6637,-8.6746,-8.7218,-8.8467,-8.9539,-9.0707,-9.2392,-9.326,-9.3825,-9.3935,-9.3935,-9.3935,-9.3935,-9.3935,-9.3935,-9.3935,-9.3935,-9.3935,-3.9997,0.0,-3.9997,-3.9997,0.0,-3.9997,-3.9997,-3.9997,-3.9997,-4.2142,-4.573,-4.7749,-4.9613,-5.1552,-5.1552,-5.1552,-5.1552,-5.1552,-5.1552,-5.1552,-5.2299,-5.319,-5.4043,-5.6499,-5.8403,-5.9761,-6.2757,-6.4798,-6.6165,-6.8724,-7.0614,-7.1807,-7.2505,-7.2447,-7.1996,-7.6271,-8.1117,-8.6604,-8.4434,-8.371,-8.4335,-8.371,-8.2297,-8.0225,-8.1475,0.0,0.0,0.0,0.0,0.0,0.0,0.0,0.0,0.0,0.0,-6.2668,-5.9215,-5.721,-5.7144,-5.6232,-5.6575,-5.8688,-5.7921,-5.6015,-5.2829,-5.9112,-6.4788,-6.8523,-6.8395,-6.7997,-6.815,-6.9972,-7.1826,-7.3294,-7.4842,-7.6249,-7.7694,-7.7924,-7.7924,-7.8088,-7.9798,-8.1676,-8.2899,-8.4474,-8.5815,-8.6505,-8.6637,-8.6604,-8.6637,-8.6637,-8.6637,-8.6637,-8.6637,-8.6637,-8.6637,-8.6637,-8.6637,-8.6713,-8.7185,-8.7993,-8.9189,-9.0345,-9.1567,-9.2716,-9.345,-9.3899,-9.3935,-9.3935,-9.3935,-9.3935,-9.3935,-9.3935,-9.3935,-9.3935,-9.3935,-3.9997,-3.9997,-3.9997,-3.9997,-3.9997,-3.9997,-3.9997,-3.9997,-3.9997,-4.2142,-4.5851,-4.8189,-4.9999,-5.1419,-5.1552,-5.1552,-5.1552,-5.1552,-5.1552,-5.1552,-5.1819,-5.2035,-5.2562,-5.5509,-5.7096,-5.7883,-6.1941,-6.471,-6.6281,-6.9858,-7.2243,-7.3465,-7.4482,-7.3988,-7.2448,0.0,0.0,0.0,-8.2587,-8.1902,-8.2954,-8.1935,-8.1244,-8.1014,-8.1508,0.0,-7.651,-7.4406,-7.1775,-6.8652,-6.8159,0.0,0.0,0.0,0.0,0.0,0.0,0.0,0.0,0.0,0.0,0.0,-5.1106,-4.9832,-4.7892,-5.5039,-6.2196,-6.7548,-6.7129,-6.6194,-6.5641,-6.9126,-7.1873,-7.2711,-7.5151,-7.6938,-7.7529,-7.7759,-7.7924,-7.7957,-8.0192,-8.2268,-8.3332,-8.5034,-8.6275,-8.6571,-8.6637,-8.6637,-8.6637,-8.6637,-8.6637,-8.6637,-8.6637,-8.6637,-8.6637,-8.6637,-8.6637,-8.6713,-8.7541,-8.8433,-8.9505,-9.0831,-9.2109,-9.3182,-9.3714,-9.3935,-9.3935,-9.3935,-9.3935,-9.3935,-9.3935,-9.3935,-9.3935,-9.3935,-9.3935,-3.9997,-3.9997,-3.9997,-3.9997,-3.9997,-3.9997,-3.9997,-3.9997,-3.9997,-4.2142,-4.5851,-4.9566,-5.1285,-5.1552,-5.1552,-5.1552,-5.1552,-5.1552,-5.1552,-5.1552,-5.2905,-5.4273,-5.5758,-5.774,-5.9898,-6.2414,-6.5231,-6.7764,-7.0236,-7.2825,-7.4831,-7.6082,-7.6286,-7.6198,-7.5988,-7.8398,-7.9591,-7.9526,-8.3678,-8.588,-8.6078,-8.5913,-8.2856,-7.7102,-7.9042,-7.72,-7.0789,-7.1282,-6.9835,-6.5758,-6.4246,-6.3588,-6.3523,-6.0531,-5.8065,0.0,-5.2048,0.0,0.0,0.0,0.0,0.0,0.0,0.0,0.0,-5.1279,-5.7743,-6.5026,-6.4749,-6.314,-6.0552,-6.2813,-6.5975,-6.9466,-7.1369,-7.3393,-7.5793,-7.7135,-7.7924,-7.7924,-7.9336,-8.0879,-8.2334,-8.3678,-8.5256,-8.6308,-8.6538,-8.6505,-8.6604,-8.6604,-8.6637,-8.6637,-8.6637,-8.6637,-8.6637,-8.6637,-8.6637,-8.667,-8.6929,-8.7291,-8.8633,-8.9823,-9.0886,-9.2192,-9.3295,-9.3935,-9.3935,-9.3935,-9.3935,-9.3935,-9.3935,-9.3935,-9.3935,-9.3935,-9.3935,-3.9997,-3.9997,-3.9997,-3.9997,-3.9997,-3.9997,-3.9997,-3.9997,-3.9997,-4.2142,-4.5708,-4.7564,-4.943,-5.1419,-5.1552,-5.1552,-5.1552,-5.1552,-5.1552,-5.1552,-5.319,-5.4273,-5.5033,-5.762,-5.9616,-6.0825,-6.3631,-6.5496,-6.6746,-6.9189,-7.108,-7.2388,-7.3116,-7.2024,-6.9643,-7.4703,-7.8026,-7.9103,-8.3299,-8.5815,-8.6604,-8.6637,-8.473,-8.0751,-8.1047,-7.8976,-7.4241,-7.3912,-7.2268,-6.875,-6.7172,-6.5989,-6.5002,-5.6355,-5.1457,0.0,0.0,0.0,0.0,0.0,0.0,0.0,0.0,0.0,0.0,0.0,-4.4812,-4.7229,-5.6585,-6.0005,-5.456,-5.7711,-6.1385,-6.4588,-6.5029,-6.7171,-7.29,-7.3945,-7.4932,-7.6543,-7.8976,-8.062,-8.1047,-8.3789,-8.5602,-8.5387,-8.542,-8.542,-8.5453,-8.6176,-8.6637,-8.6637,-8.6637,-8.6637,-8.6637,-8.6637,-8.6637,-8.6746,-8.7185,-8.8095,-8.9286,-9.0436,-9.1652,-9.2831,-9.3562,-9.3935,-9.3935,-9.3935,-9.3935,-9.3935,-9.3935,-9.3935,-9.3935,-9.3935,-9.3935,-3.9997,-4.0053,-3.9124,-3.8915,-3.9086,-3.9086,-3.92,-3.937,-3.9389,-4.1375,-4.447,-4.4914,-4.6454,-4.895,-4.9208,-4.9404,-4.9906,-5.0565,-5.0925,-5.1552,-5.3165,-5.4043,-5.4654,-5.7499,-5.9072,-5.9623,-6.1665,-6.3053,-6.3722,-6.5612,-6.6775,-6.7183,-6.7457,-6.6205,-6.3821,-6.9898,-7.5081,-7.93,-8.1929,-8.4105,-8.5552,-8.5946,-8.5256,-8.3447,-8.2297,-8.0357,-7.7529,-7.605,-7.4143,-7.1578,-6.875,-6.6712,-6.543,-5.2508,0.0,0.0,0.0,0.0,0.0,0.0,0.0,0.0,0.0,-3.3925,-2.5404,0.0,-3.2472,0.0,-4.5599,-5.3368,-5.0377,-5.3482,0.0,0.0,-5.8463,-6.0259,-6.6917,-6.8672,-7.0692,-7.3847,-7.71,-7.9405,-7.9995,-8.2998,-8.4685,-8.3546,-8.3645,-8.4039,-8.4368,-8.5223,-8.588,-8.6472,-8.6637,-8.6637,-8.6637,-8.6637,-8.6637,-8.6637,-8.7397,-8.8467,-8.96,-9.0831,-9.2074,-9.3182,-9.3638,-9.3899,-9.3935,-9.3935,-9.3935,-9.3935,-9.3935,-9.3935,-9.3935,-9.3935,-9.3935,-3.9997,-3.9712,-3.6675,-3.584,-3.6385,-3.6523,-3.6979,-3.7681,-3.7681,-3.8935,-4.0962,-4.24,-4.2495,-4.1698,-4.2262,0.0,-4.5513,-4.7593,-4.9541,-5.1577,-5.3165,-5.4654,-5.6226,-5.7952,-5.9682,-6.1054,-6.1282,-6.2646,-6.4827,-6.5147,-6.4129,-6.186,-5.9141,-5.9777,-6.3735,-6.5123,-6.9867,-7.7891,-7.9599,-8.1146,-8.256,-8.3875,-8.325,-8.0521,-8.0324,-7.891,-7.6115,-7.4603,-7.3123,-7.1381,-6.4969,-6.1287,-6.0827,0.0,0.0,0.0,0.0,0.0,0.0,0.0,0.0,0.0,0.0,0.0,0.0,0.0,0.0,0.0,-3.2413,0.0,-5.0038,-5.0619,0.0,0.0,0.0,-5.3033,-5.6142,-6.0644,-6.5118,-6.9265,0.0,0.0,-7.9568,-8.039,-8.0521,-8.0455,-8.1573,-8.2888,-8.4204,-8.3368,-8.363,-8.6242,-8.6604,-8.6637,-8.6637,-8.6637,-8.6637,-8.6637,-8.6779,-8.7258,-8.8467,-8.96,-9.0831,-9.2109,-9.3182,-9.3935,-9.3935,-9.3792,-9.3935,-9.3864,-9.3864,-9.3828,-9.3721,-9.3721,-9.3721,-3.6998,-3.4755,-3.4553,-3.4736,-3.5235,-3.5619,-3.6639,-3.8052,-3.7128,-3.7191,-3.8104,-3.8724,-3.8893,-3.8637,-3.8866,0.0,0.0,0.0,-4.6275,-4.8495,-5.0905,-5.2619,-5.4135,-5.7383,-5.9217,-5.9826,-6.0799,-6.1802,-6.2791,-6.282,-5.7643,-4.7755,0.0,0.0,-5.1871,-5.8853,-6.544,-7.1315,-7.6214,-7.9469,-8.0949,-8.2362,-8.2132,-8.0192,-7.9239,-7.7825,-7.5852,-7.492,-7.1923,-6.6499,-6.2559,-5.7858,0.0,0.0,0.0,0.0,0.0,0.0,0.0,0.0,0.0,0.0,0.0,-2.4207,-1.9005,0.0,0.0,0.0,-2.4097,-3.0228,-3.8084,-4.2656,0.0,0.0,0.0,0.0,0.0,0.0,0.0,-6.0925,-6.4067,-6.778,-7.2768,-7.5096,-7.6543,-7.7398,-7.9469,-8.1146,-8.1705,0.0,-8.2934,-8.5026,-8.6045,-8.6637,-8.6637,-8.6637,-8.6637,-8.6637,-8.6637,-8.7078,-8.8265,-8.9444,-9.0617,-9.1906,-9.3104,-9.3935,-9.3935,-9.233,-9.158,-9.3471,-9.2437,-9.1152,-9.1045,-9.1543,-9.2113,-3.3079,0.0,0.0,0.0,0.0,-3.2597,-3.3615,-3.4804,-3.399,-3.3597,-3.3569,-3.4253,0.0,0.0,0.0,0.0,0.0,0.0,-4.3048,-4.5545,-4.9078,-5.1112,-5.2032,-5.5549,-5.7398,-5.7861,-5.863,-5.8807,-5.8516,-5.7062,-4.9674,-3.6936,0.0,0.0,0.0,0.0,-6.0161,-6.5364,-7.2795,-7.7431,-7.8844,-8.0258,-8.0686,-8.0127,-7.8285,-7.6801,-7.5598,-7.3122,-6.8492,-6.1588,-5.6231,0.0,0.0,0.0,0.0,0.0,0.0,0.0,0.0,0.0,0.0,0.0,0.0,0.0,0.0,0.0,0.0,0.0,0.0,0.0,-2.9056,-3.6019,-4.0282,0.0,0.0,0.0,0.0,0.0,0.0,0.0,0.0,0.0,-6.4493,-6.8553,-7.217,0.0,0.0,-7.9633,-8.0028,-8.058,-8.1531,-8.2882,-8.5153,0.0,-8.3882,-8.3875,-8.4138,-8.4138,-8.4828,-8.5319,-8.5179,-8.7237,-8.889,-8.8674,-9.0837,-9.1719,-8.9642,-8.7232,-8.7549,-9.1152,-8.9297,-8.6764,-8.7228,-8.8727,-9.0045,0.0,0.0,0.0,0.0,0.0,0.0,0.0,0.0,-2.7494,-2.7375,0.0,-2.9002,0.0,0.0,0.0,0.0,0.0,-3.6048,0.0,0.0,-4.8067,-5.0675,-5.0743,-5.2369,-5.3914,-5.5225,-5.421,-5.3059,-5.1681,-4.697,0.0,0.0,0.0,0.0,0.0,0.0,-5.3624,-6.0827,-6.9441,-7.4504,-7.5951,-7.7365,-7.8713,-7.9929,-7.7365,-7.5591,-7.4739,-6.7824,-6.2077,-5.7916,-4.416,0.0,0.0,0.0,0.0,0.0,0.0,0.0,0.0,0.0,0.0,0.0,0.0,0.0,0.0,0.0,0.0,0.0,0.0,0.0,0.0,-3.2042,0.0,0.0,0.0,0.0,0.0,0.0,0.0,0.0,0.0,0.0,-5.4905,-6.0827,-6.7304,-7.2926,0.0,0.0,0.0,0.0,-7.8548,-7.996,-8.3843,-8.4161,-7.7457,-7.7365,-7.822,-7.8285,0.0,0.0,-7.7907,-8.2041,-8.466,-8.1527,-8.5559,-8.6839,-7.8918,-7.7583,-8.0243,-8.7121,-8.3808,-8.0813,-8.2162,-8.4097,-8.6947,0.0,0.0,0.0,0.0,0.0,0.0,0.0,0.0,0.0,-2.6003,0.0,-2.4893,0.0,0.0,0.0,0.0,0.0,0.0,0.0,0.0,-3.9926,-4.2044,-4.2849,-4.6581,-4.7924,0.0,-4.8215,-4.5231,0.0,0.0,0.0,0.0,0.0,0.0,0.0,0.0,-4.9627,-5.5844,-6.6642,-7.2959,-7.4439,-7.6674,-7.8154,-7.8614,-7.6806,-7.3192,-6.7723,-6.2705,-5.7851,0.0,0.0,0.0,0.0,0.0,0.0,0.0,0.0,0.0,0.0,0.0,0.0,0.0,0.0,0.0,0.0,0.0,0.0,0.0,0.0,0.0,0.0,0.0,-3.2345,0.0,0.0,0.0,0.0,0.0,0.0,0.0,0.0,0.0,-4.6984,-5.504,-6.2175,-6.6054,-7.0618,-7.4192,-7.5647,0.0,0.0,0.0,0.0,0.0,0.0,0.0,-7.5458,-7.6411,-7.7136,-7.6272,-7.2543,-7.5045,-7.7514,-7.7226,0.0,0.0,-6.5142,-6.723,-7.1798,-7.3577,-7.0817,-6.8375,-6.9399,-7.097,-7.2776,0.0,0.0,0.0,0.0,0.0,0.0,0.0,0.0,0.0,-2.3197,-2.2103,0.0,0.0,0.0,0.0,0.0,0.0,0.0,0.0,0.0,0.0,0.0,-3.7117,-4.0653,0.0,0.0,0.0,0.0,0.0,0.0,0.0,0.0,0.0,0.0,0.0,0.0,-4.7552,-5.1951,-6.4182,-7.1216,-7.2203,-7.5458,-7.72,-7.7167,-7.628,-7.2087,-6.4319,0.0,0.0,0.0,0.0,0.0,0.0,0.0,0.0,0.0,0.0,0.0,0.0,0.0,0.0,0.0,0.0,0.0,0.0,0.0,0.0,0.0,0.0,0.0,0.0,0.0,-2.8805,0.0,0.0,0.0,0.0,0.0,0.0,0.0,0.0,0.0,0.0,0.0,-5.6311,-6.0309,-6.5674,-6.9992,-7.1914,-7.156,-7.2116,0.0,0.0,0.0,0.0,0.0,0.0,0.0,0.0,0.0,0.0,0.0,0.0,0.0,0.0,-6.5291,-5.0683,-5.5952,-6.1832,-5.946,0.0,0.0,0.0,0.0,0.0,0.0,0.0,0.0,0.0,0.0,0.0,0.0,0.0,0.0,0.0,0.0,0.0,0.0,-1.8539,0.0,0.0,0.0,0.0,0.0,0.0,0.0,0.0,0.0,0.0,0.0,0.0,0.0,0.0,0.0,0.0,0.0,0.0,0.0,0.0,0.0,0.0,-4.7296,-4.8975,-6.2284,-6.9276,-6.9507,-7.3551,-7.5852,-7.5819,-7.5721,-7.2301,-6.5101,0.0,0.0,0.0,0.0,0.0,0.0,0.0,0.0,0.0,0.0,0.0,0.0,0.0,0.0,0.0,0.0,0.0,0.0,0.0,0.0,0.0,0.0,0.0,0.0,0.0,0.0,-2.5616,-3.0709,-3.3878,0.0,0.0,0.0,0.0,0.0,0.0,0.0,0.0,0.0,0.0,-6.1425,-6.604,-6.8981,-6.9352,-6.9791,-7.114,-7.0229,-6.9449,-6.9738,-7.0562,-7.046,0.0,0.0,0.0,0.0,0.0,0.0,0.0,0.0,0.0,0.0,0.0,0.0,0.0,0.0,0.0,0.0,0.0,0.0,0.0,0.0,0.0,0.0,0.0,0.0,0.0,0.0,0.0,0.0,0.0,0.0,0.0,0.0,0.0,0.0,0.0,0.0,0.0,0.0,0.0,0.0,0.0,0.0,0.0,0.0,0.0,0.0,0.0,0.0,0.0,0.0,0.0,0.0,0.0,0.0,-4.5341,-4.9582,-6.1569,-6.8685,-7.0789,-7.4077,-7.5787,-7.5721,-7.3847,-7.0329,0.0,0.0,0.0,0.0,0.0,0.0,0.0,0.0,0.0,0.0,0.0,0.0,0.0,0.0,0.0,0.0,0.0,0.0,0.0,0.0,0.0,0.0,0.0,0.0,0.0,0.0,0.0,0.0,-3.2726,-3.3653,-3.1696,0.0,0.0,0.0,0.0,0.0,0.0,0.0,0.0,0.0,0.0,-6.1056,-6.4761,-6.6444,-6.7612,-6.8506,-7.0022,-7.1425,-7.236,-7.0189,-6.8076,-6.7166,0.0,0.0,0.0,0.0,0.0,0.0,0.0,0.0,0.0,0.0,0.0,0.0,0.0,0.0,0.0,0.0,0.0,0.0,0.0,0.0,0.0,0.0,0.0,0.0,0.0,0.0,0.0,0.0,0.0,0.0,0.0,0.0,0.0,0.0,0.0,0.0,0.0,0.0,0.0,0.0,0.0,0.0,0.0,0.0,0.0,0.0,0.0,0.0,0.0,0.0,0.0,0.0,0.0,-4.5276,-4.9206,-6.04,-6.7665,-7.0592,-7.3485,-7.526,-7.5787,-7.2992,-6.8389,0.0,0.0,0.0,0.0,0.0,0.0,0.0,0.0,0.0,0.0,0.0,0.0,0.0,0.0,0.0,0.0,0.0,0.0,0.0,0.0,0.0,0.0,0.0,0.0,0.0,0.0,0.0,0.0,-3.0028,-3.1817,-3.0739,0.0,0.0,0.0,0.0,0.0,0.0,0.0,0.0,0.0,0.0,-5.5561,-5.9153,-6.292,0.0,0.0,-6.8678,-7.0907,-7.0672,-6.8707,-6.6117,-6.3389,-5.9144,0.0,0.0,0.0,0.0,0.0,0.0,0.0,0.0,0.0,0.0,0.0,0.0,0.0,0.0,0.0,0.0,0.0,0.0,0.0,0.0,0.0,0.0,0.0,0.0,0.0,0.0,0.0,0.0,0.0,0.0,0.0,0.0,0.0,0.0,0.0,0.0,0.0,0.0,0.0,0.0,0.0,0.0,0.0,0.0,0.0,0.0,0.0,0.0,0.0,0.0,0.0,0.0,0.0,-4.8179,-5.9007,-6.6182,-6.9003,-7.198,-7.4175,-7.5425,-7.2729,-6.6449,0.0,0.0,0.0,0.0,0.0,0.0,0.0,0.0,0.0,0.0,0.0,0.0,0.0,0.0,0.0,0.0,0.0,0.0,0.0,0.0,0.0,0.0,0.0,0.0,0.0,0.0,0.0,0.0,0.0,0.0,0.0,0.0,0.0,0.0,0.0,0.0,0.0,0.0,0.0,0.0,0.0,-5.0334,-5.3359,-5.9469,-6.3367,0.0,0.0,-6.8011,-6.5493,-6.5851,-6.4212,-5.7441,0.0,0.0,0.0,0.0,0.0,0.0,0.0,0.0,0.0,0.0,0.0,0.0,0.0,0.0,0.0,0.0,0.0,0.0,0.0,0.0,0.0,0.0,0.0,0.0,0.0,0.0,0.0,0.0,0.0,0.0,0.0,0.0,0.0,0.0,0.0,0.0,0.0,0.0,0.0,0.0,0.0,0.0,0.0,0.0,0.0,0.0,0.0,0.0,0.0,0.0,0.0,0.0,0.0,0.0,-4.8083,-5.8268,-6.4988,-6.7732,-7.0535,-7.2203,-7.2531,-6.9671,0.0,0.0,0.0,0.0,0.0,0.0,0.0,0.0,0.0,0.0,0.0,0.0,0.0,0.0,0.0,0.0,0.0,0.0,0.0,0.0,0.0,0.0,0.0,0.0,0.0,0.0,0.0,-1.6109,0.0,0.0,0.0,0.0,0.0,0.0,0.0,0.0,0.0,0.0,0.0,0.0,0.0,0.0,-5.0999,-5.456,-5.8926,-6.0782,0.0,0.0,-6.2804,-6.1379,-5.9603,-5.7801,0.0,0.0,0.0,0.0,0.0,0.0,0.0,0.0,0.0,0.0,0.0,0.0,0.0,0.0,0.0,0.0,0.0,0.0,0.0,0.0,0.0,0.0,0.0,0.0,0.0,0.0,0.0,0.0,0.0,0.0,0.0,0.0,0.0,0.0,0.0,0.0,0.0,0.0,0.0,0.0,0.0,0.0,0.0,0.0,0.0,0.0,0.0,0.0,0.0,0.0,0.0,0.0,0.0,0.0,-4.3602,-4.8159,-5.6434,-6.3148,-6.804,-7.0411,-7.1808,-7.24,-6.9572,-6.3621,0.0,0.0,0.0,0.0,0.0,0.0,0.0,0.0,0.0,0.0,0.0,0.0,0.0,0.0,0.0,0.0,0.0,0.0,0.0,0.0,0.0,0.0,0.0,0.0,0.0,0.0,0.0,0.0,0.0,0.0,0.0,0.0,0.0,0.0,0.0,0.0,0.0,0.0,0.0,0.0,0.0,0.0,-5.1251,-5.5202,0.0,0.0,0.0,-5.9839,-5.6015,0.0,0.0,0.0,0.0,0.0,0.0,0.0,0.0,0.0,0.0,0.0,0.0,0.0,0.0,0.0,0.0,0.0,0.0,0.0,0.0,0.0,0.0,0.0,0.0,0.0,0.0,0.0,0.0,0.0,0.0,0.0,0.0,0.0,0.0,0.0,0.0,0.0,0.0,0.0,0.0,0.0,0.0,0.0,0.0,0.0,0.0,0.0,0.0,0.0,0.0,0.0,0.0,0.0,0.0,0.0,0.0,0.0,-4.7742,-5.4485,-6.1488,-6.8555,-7.045,-7.1874,-7.309,-7.046,-6.4213,0.0,0.0,0.0,0.0,0.0,0.0,0.0,0.0,0.0,0.0,0.0,0.0,0.0,0.0,0.0,0.0,0.0,0.0,0.0,0.0,0.0,0.0,0.0,0.0,0.0,0.0,0.0,0.0,0.0,0.0,0.0,0.0,0.0,0.0,0.0,0.0,0.0,0.0,0.0,0.0,0.0,-4.8151,-4.6178,-4.9821,-5.1363,0.0,0.0,-5.6288,-5.0098,-4.9429,0.0,0.0,0.0,0.0,0.0,0.0,0.0,0.0,0.0,0.0,0.0,0.0,0.0,0.0,0.0,0.0,0.0,0.0,0.0,0.0,0.0,0.0,0.0,0.0,0.0,0.0,0.0,0.0,0.0,0.0,0.0,0.0,0.0,0.0,0.0,0.0,0.0,0.0,0.0,0.0,0.0,0.0,0.0,0.0,0.0,0.0,0.0,0.0,0.0,0.0,0.0,0.0,0.0,0.0,0.0,0.0,-4.6452,-5.5795,-6.2419,-6.5992,-6.8497,-6.9835,-7.0066,-6.8422,-6.2734,0.0,0.0,0.0,0.0,0.0,0.0,0.0,0.0,0.0,0.0,0.0,0.0,0.0,0.0,0.0,0.0,0.0,0.0,0.0,0.0,0.0,0.0,0.0,0.0,0.0,0.0,0.0,0.0,0.0,0.0,0.0,0.0,0.0,0.0,0.0,0.0,0.0,0.0,0.0,0.0,0.0,-4.5915,-4.5915,-4.6741,0.0,0.0,0.0,0.0,-4.5045,-4.365,0.0,0.0,0.0,0.0,0.0,0.0,0.0,0.0,0.0,0.0,0.0,0.0,0.0,0.0,0.0,0.0,0.0,0.0,0.0,0.0,0.0,0.0,0.0,0.0,0.0,0.0,0.0,0.0,0.0,0.0,0.0,0.0,0.0,0.0,0.0,0.0,0.0,0.0,0.0,0.0,0.0,0.0,0.0,0.0,0.0,0.0,0.0,0.0,0.0,0.0,0.0,0.0,0.0,0.0,0.0,0.0,-4.7726,-5.5015,-6.0858,-6.5191,-6.7861,-6.9471,-6.9949,-6.8712,-6.32,0.0,0.0,0.0,0.0,0.0,0.0,0.0,0.0,0.0,0.0,0.0,0.0,0.0,0.0,0.0,0.0,0.0,0.0,0.0,0.0,0.0,0.0,0.0,0.0,0.0,0.0,0.0,0.0,0.0,0.0,0.0,0.0,0.0,0.0,0.0,0.0,0.0,0.0,0.0,0.0,-4.2258,-4.4044,-4.4158,0.0,0.0,0.0,0.0,0.0,0.0,-4.0776,-3.9369,0.0,0.0,0.0,0.0,0.0,0.0,0.0,0.0,0.0,0.0,0.0,0.0,0.0,0.0,0.0,0.0,0.0,0.0,0.0,0.0,0.0,0.0,0.0,0.0,0.0,0.0,0.0,0.0,0.0,0.0,0.0,0.0,0.0,0.0,0.0,0.0,0.0,0.0,0.0,0.0,0.0,0.0,0.0,0.0,0.0,0.0,0.0,0.0,0.0,0.0,0.0,0.0,0.0,0.0,0.0,-4.9005,-5.3751,-5.913,-6.516,-6.7861,-6.9642,-7.0381,-6.9411,-6.4042,-5.3981,0.0,0.0,0.0,0.0,0.0,0.0,0.0,0.0,0.0,0.0,0.0,0.0,0.0,0.0,0.0,0.0,0.0,0.0,0.0,0.0,0.0,0.0,0.0,0.0,0.0,0.0,0.0,0.0,0.0,0.0,0.0,0.0,0.0,0.0,0.0,0.0,0.0,0.0,0.0,-3.9549,-4.1636,0.0,0.0,0.0,0.0,0.0,0.0,0.0,0.0,-3.7965,0.0,0.0,0.0,0.0,0.0,0.0,0.0,0.0,0.0,0.0,0.0,0.0,0.0,0.0,0.0,0.0,0.0,0.0,0.0,0.0,0.0,0.0,0.0,0.0,0.0,0.0,0.0,0.0,0.0,0.0,0.0,0.0,0.0,0.0,0.0,0.0,0.0,0.0,0.0,0.0,0.0,0.0,0.0,0.0,0.0,0.0,0.0,0.0,0.0,0.0,0.0,0.0,0.0,0.0,0.0,0.0,-5.3659,-5.9886,-6.5097,-6.7861,-6.9331,-6.9351,-6.8113,-6.2981,-5.3837,0.0,0.0,0.0,0.0,0.0,0.0,0.0,0.0,0.0,0.0,0.0,0.0,0.0,0.0,0.0,0.0,0.0,0.0,0.0,0.0,0.0,0.0,0.0,0.0,0.0,0.0,0.0,0.0,0.0,0.0,0.0,0.0,0.0,0.0,0.0,0.0,0.0,0.0,-3.2468,-3.5378,0.0,0.0,0.0,0.0,0.0,0.0,0.0,0.0,-3.6101,0.0,0.0,0.0,0.0,0.0,0.0,0.0,0.0,0.0,0.0,0.0,0.0,0.0,0.0,0.0,0.0,0.0,0.0,0.0,0.0,0.0,0.0,0.0,0.0,0.0,0.0,0.0,0.0,0.0,0.0,0.0,0.0,0.0,0.0,0.0,0.0,0.0,0.0,0.0,0.0,0.0,0.0,0.0,0.0,0.0,0.0,0.0,0.0,0.0,0.0,0.0,0.0,0.0,0.0,0.0,0.0,0.0,0.0,-5.948,-6.4198,-6.7474,-6.9471,-6.9866,-6.5415,-5.9525,0.0,0.0,0.0,0.0,0.0,0.0,0.0,0.0,0.0,0.0,0.0,0.0,0.0,0.0,0.0,0.0,0.0,0.0,0.0,0.0,0.0,0.0,0.0,0.0,0.0,0.0,0.0,0.0,0.0,0.0,0.0,0.0,0.0,0.0,0.0,0.0,0.0,0.0,0.0,0.0,0.0,0.0,0.0,0.0,0.0,0.0,0.0,0.0,0.0,0.0,0.0,0.0,0.0,0.0,0.0,0.0,0.0,0.0,0.0,0.0,0.0,0.0,0.0,0.0,0.0,0.0,0.0,0.0,0.0,0.0,0.0,0.0,0.0,0.0,0.0,0.0,0.0,0.0,0.0,0.0,0.0,0.0,0.0,0.0,0.0,0.0,0.0,0.0,0.0,0.0,0.0,0.0,0.0,0.0,0.0,0.0,0.0,0.0,0.0,0.0,0.0,0.0,0.0,0.0,0.0,0.0,0.0,0.0,-5.8379,-6.2857,-6.708,-6.9609,-7.0381,-6.3541,-5.6954,0.0,0.0,0.0,0.0,0.0,0.0,0.0,0.0,0.0,0.0,0.0,0.0,0.0,0.0,0.0,0.0,0.0,0.0,0.0,0.0,0.0,0.0,0.0,0.0,0.0,0.0,0.0,0.0,0.0,0.0,0.0,0.0,0.0,0.0,0.0,0.0,0.0,0.0,0.0,0.0,0.0,0.0,0.0,0.0,0.0,0.0,0.0,0.0,-3.8404,0.0,0.0,0.0,0.0,0.0,0.0,0.0,0.0,0.0,0.0,0.0,0.0,0.0,0.0,0.0,0.0,0.0,0.0,0.0,0.0,0.0,0.0,0.0,0.0,0.0,0.0,0.0,0.0,0.0,0.0,0.0,0.0,0.0,0.0,0.0,0.0,0.0,0.0,0.0,0.0,0.0,0.0,0.0,0.0,0.0,0.0,0.0,0.0,0.0,0.0,0.0,0.0,0.0,0.0,0.0,0.0,0.0,0.0,0.0,-5.654,-6.1515,-6.6595,-6.9244,-6.9187,-6.4391,-5.7695,0.0,0.0,0.0,0.0,0.0,0.0,0.0,0.0,0.0,0.0,0.0,0.0,0.0,0.0,0.0,0.0,0.0,0.0,0.0,0.0,0.0,0.0,0.0,0.0,0.0,0.0,0.0,0.0,0.0,0.0,0.0,0.0,0.0,0.0,0.0,0.0,0.0,0.0,0.0,0.0,0.0,0.0,0.0,0.0,0.0,0.0,0.0,0.0,0.0,0.0,0.0,0.0,0.0,0.0,0.0,0.0,0.0,0.0,0.0,0.0,0.0,0.0,0.0,0.0,0.0,0.0,0.0,0.0,0.0,0.0,0.0,0.0,0.0,0.0,0.0,0.0,0.0,0.0,0.0,0.0,0.0,0.0,0.0,0.0,0.0,0.0,0.0,0.0,0.0,0.0,0.0,0.0,0.0,0.0,0.0,0.0,0.0,0.0,0.0,0.0,0.0,0.0,0.0,0.0,0.0,0.0,0.0,0.0,-5.3843,-5.9922,-6.5807,-6.8417,-6.7503,-6.0159,-5.3634,0.0,0.0,0.0,0.0,0.0,0.0,0.0,0.0,0.0,0.0,0.0,0.0,0.0,0.0,0.0,0.0,0.0,0.0,0.0,0.0,0.0,0.0,0.0,0.0,0.0,0.0,0.0,0.0,0.0,0.0,0.0,0.0,0.0,0.0,0.0,0.0,0.0,0.0,0.0,0.0,0.0,0.0,0.0,0.0,0.0,0.0,0.0,0.0,0.0,0.0,0.0,0.0,0.0,0.0,0.0,0.0,0.0,0.0,0.0,0.0,0.0,0.0,0.0,0.0,0.0,0.0,0.0,0.0,0.0,0.0,0.0,0.0,0.0,0.0,0.0,0.0,0.0,0.0,0.0,0.0,0.0,0.0,0.0,0.0,0.0,0.0,0.0,0.0,0.0,0.0,0.0,0.0,0.0,0.0,0.0,0.0,0.0,0.0,0.0,0.0,0.0,0.0,0.0,0.0,0.0,0.0,0.0,0.0,0.0,-5.7232,-6.32,-6.5182,-6.2759,-5.5227,-4.9195,0.0,0.0,0.0,0.0,0.0,0.0,0.0,0.0,0.0,0.0,0.0,0.0,0.0,0.0,0.0,0.0,0.0,0.0,0.0,0.0,0.0,0.0,0.0,0.0,0.0,0.0,0.0,0.0,0.0,0.0,0.0,0.0,0.0,0.0,0.0,0.0,0.0,0.0,0.0,0.0,0.0,0.0,0.0,0.0,0.0,0.0,0.0,0.0,0.0,0.0,0.0,0.0,0.0,0.0,0.0,0.0,0.0,0.0,0.0,0.0,0.0,0.0,0.0,0.0,0.0,0.0,0.0,0.0,0.0,0.0,0.0,0.0,0.0,0.0,0.0,0.0,0.0,0.0,0.0,0.0,0.0,0.0,0.0,0.0,0.0,0.0,0.0,0.0,0.0,0.0,0.0,0.0,0.0,0.0,0.0,0.0,0.0,0.0,0.0,0.0,0.0,0.0,0.0,0.0,0.0,0.0,0.0,0.0,0.0,-5.3159,-5.7855,-5.8257,-5.4048,-5.0693,-4.5379,0.0,0.0,0.0,0.0,0.0,0.0,0.0,0.0,0.0,0.0,0.0,0.0,0.0,0.0,0.0,0.0,0.0,0.0,0.0,0.0,0.0,0.0,0.0,0.0,0.0,0.0,0.0,0.0,0.0,0.0,0.0,0.0,0.0,0.0,0.0,0.0,0.0,0.0,0.0,0.0,0.0,0.0,0.0,0.0,0.0,0.0,0.0,0.0,0.0,0.0,0.0,0.0,0.0,0.0,0.0,0.0,0.0,0.0,0.0,0.0,0.0,0.0,0.0,0.0,0.0,0.0,0.0,0.0,0.0,0.0,0.0,0.0,0.0,0.0,0.0,0.0,0.0,0.0,0.0,0.0,0.0,0.0,0.0,0.0,0.0,0.0,0.0,0.0,0.0,0.0,0.0,0.0,0.0,0.0,0.0,0.0,0.0,0.0,0.0,0.0,0.0,0.0,0.0,0.0,0.0,0.0,0.0,0.0,0.0,-4.5294,-5.0291,-5.2763,-5.2178,-4.6144,-4.1458,-3.8239,0.0,0.0,0.0,0.0,0.0,0.0,0.0,0.0,0.0,0.0,0.0,0.0,0.0,0.0,0.0,0.0,0.0,0.0,0.0,0.0,0.0,0.0,0.0,0.0,0.0,0.0,0.0,0.0,0.0,0.0,0.0,0.0,0.0,0.0,0.0,0.0,0.0,0.0,0.0,0.0,0.0,0.0,0.0,0.0,0.0,0.0,0.0,0.0,0.0,0.0,0.0,0.0,0.0,0.0,0.0,0.0,0.0,0.0,0.0,0.0,0.0,0.0,0.0,0.0,0.0,0.0,0.0,0.0,0.0,0.0,0.0,0.0,0.0,0.0,0.0,0.0,0.0,0.0,0.0,0.0,0.0,0.0,0.0,0.0,0.0,0.0,0.0,0.0,0.0,0.0,0.0,0.0,0.0,0.0,0.0,0.0,0.0,0.0,0.0,0.0,0.0,0.0,0.0,0.0,0.0,0.0,0.0,0.0,-4.0183,-4.5425,-4.8123,-4.7698,-4.2106,-3.7452,0.0,0.0,0.0,0.0,0.0,0.0,0.0,0.0,0.0,0.0,0.0,0.0,0.0,0.0,0.0,0.0,0.0,0.0,0.0,0.0,0.0,0.0,0.0,0.0,0.0,0.0,0.0,0.0,0.0,0.0,0.0,0.0,0.0,0.0,0.0,0.0,0.0,0.0,0.0,0.0,0.0,0.0,0.0,0.0,0.0,0.0,0.0,0.0,0.0,0.0,0.0,0.0,0.0,0.0,0.0,0.0,0.0,0.0,0.0,0.0,0.0,0.0,0.0,0.0,0.0,0.0,0.0,0.0,0.0,0.0,0.0,0.0,0.0,0.0,0.0,0.0,0.0,0.0,0.0,0.0,0.0,0.0,0.0,0.0,0.0,0.0,0.0,0.0,0.0,0.0,0.0,0.0,0.0,0.0,0.0,0.0,0.0,0.0,0.0,0.0,0.0,0.0,0.0,0.0,0.0,0.0,0.0,0.0,-3.0536,-3.906,-4.3896,-4.4278,-3.9833,-3.8463,-3.3439,0.0,0.0,0.0,0.0,0.0,0.0,0.0,0.0,0.0,0.0,0.0,0.0,0.0,0.0,0.0,0.0,0.0,0.0,0.0,0.0,0.0,0.0,0.0,0.0,0.0,0.0,0.0,0.0,0.0,0.0,0.0,0.0,0.0,0.0,0.0,0.0,0.0,0.0,0.0,0.0,0.0,0.0,0.0,0.0,0.0,0.0,0.0,0.0,0.0,0.0,0.0,0.0,0.0,0.0,0.0,0.0,0.0,0.0,0.0,0.0,0.0,0.0,0.0,0.0,0.0,0.0,0.0,0.0,0.0,0.0,0.0,0.0,0.0,0.0,0.0,0.0,0.0,0.0,0.0,0.0,0.0,0.0,0.0,0.0,0.0,0.0,0.0,0.0,0.0,0.0,0.0,0.0,0.0,0.0,0.0,0.0,0.0,0.0,0.0,0.0,0.0,0.0,0.0,0.0,0.0,0.0,0.0,0.0,0.0,-3.1916,0.0,-3.8685,0.0,-3.4842,-2.9982,0.0,0.0,0.0,0.0,0.0,0.0,0.0,0.0,0.0,0.0,0.0,0.0,0.0,0.0,0.0,0.0,0.0,0.0,0.0,0.0,0.0,0.0,0.0,0.0,0.0,0.0,0.0,0.0,0.0,0.0,0.0,0.0,0.0,0.0,0.0,0.0,0.0,0.0,0.0,0.0,0.0,0.0,0.0,0.0,0.0,0.0,0.0,0.0,0.0,0.0,0.0,0.0,0.0,0.0,0.0,0.0,0.0,0.0,0.0,0.0,0.0,0.0,0.0,0.0,0.0,0.0,0.0,0.0,0.0,0.0,0.0,0.0,0.0,0.0,0.0,0.0,0.0,0.0,0.0,0.0,0.0,0.0,0.0,0.0,0.0,0.0,0.0,0.0,0.0,0.0,0.0,0.0,0.0,0.0,0.0,0.0,0.0,0.0,0.0,0.0,0.0,0.0,0.0,0.0,0.0,0.0,0.0,0.0,0.0,-3.002,-3.1842,-3.4696,-3.8288,-3.2052,-2.7562,0.0,0.0,0.0,0.0,0.0,0.0,0.0,0.0,0.0,0.0,0.0,0.0,0.0,0.0,0.0,0.0,0.0,0.0,0.0,0.0,0.0,0.0,0.0,0.0,0.0,0.0,0.0,0.0,0.0,0.0,0.0,0.0,0.0,0.0,0.0,0.0,0.0,0.0,0.0,0.0,0.0,0.0,0.0,0.0,0.0,0.0,0.0,0.0,0.0,0.0,0.0,0.0,0.0,0.0,0.0,0.0,0.0,0.0,0.0,0.0,0.0,0.0,0.0,0.0,0.0,0.0,0.0,0.0,0.0,0.0,0.0,0.0,0.0,0.0,0.0,0.0,0.0,0.0,0.0,0.0,0.0,0.0,0.0,0.0,0.0,0.0,0.0,0.0,0.0,0.0,0.0,0.0,0.0,0.0,0.0,0.0,0.0,0.0,0.0,0.0,0.0,0.0,0.0,0.0,0.0,0.0,0.0,0.0,0.0,0.0,-3.2569,-3.2196,-3.1424,-2.9951,-2.5823,0.0,0.0,0.0,0.0,0.0,0.0,0.0,0.0,0.0,0.0,0.0,0.0,0.0,0.0,0.0,0.0,0.0,0.0,0.0,0.0,0.0,0.0,0.0,0.0,0.0,0.0,0.0,0.0,0.0,0.0,0.0,0.0,0.0,0.0,0.0,0.0,0.0,0.0,0.0,0.0,0.0,0.0,0.0,0.0,0.0,0.0,0.0,0.0,0.0,0.0,0.0,0.0,0.0,0.0,0.0,0.0,0.0,0.0,0.0,0.0,0.0,0.0,0.0,0.0,0.0,0.0,0.0,0.0,0.0,0.0,0.0,0.0,0.0,0.0,0.0,0.0,0.0,0.0,0.0,0.0,0.0,0.0,0.0,0.0,0.0,0.0,0.0,0.0,0.0,0.0,0.0,0.0,0.0,0.0,0.0,0.0,0.0,0.0,0.0,0.0,0.0,0.0,0.0,0.0,0.0,0.0,0.0,0.0,0.0,0.0,-2.834,0.0,-2.8055,-2.5582,-2.265,-1.9409,0.0,0.0,0.0,0.0,0.0,0.0,0.0,0.0,0.0,0.0,0.0,0.0,0.0,0.0,0.0,0.0,0.0,0.0,0.0,0.0,0.0,0.0,0.0,0.0,0.0,0.0,0.0,0.0,0.0,0.0,0.0,0.0,0.0,0.0,0.0,0.0,0.0,0.0,0.0,0.0,0.0,0.0,0.0,0.0,0.0,0.0,0.0,0.0,0.0,0.0,0.0,0.0,0.0,0.0,0.0,0.0,0.0,0.0,0.0,0.0,0.0,0.0,0.0,0.0,0.0,0.0,0.0,0.0,0.0,0.0,0.0,0.0,0.0,0.0,0.0,0.0,0.0,0.0,0.0,0.0,0.0,0.0,0.0,0.0,0.0,0.0,0.0,0.0,0.0,0.0,0.0,0.0,0.0,0.0,0.0,0.0,0.0,0.0,0.0,0.0,0.0,0.0,0.0,0.0,0.0,0.0,0.0,0.0,0.0,0.0,0.0,-2.3752,-2.1782,-1.9614,0.0,0.0,0.0,0.0,0.0,0.0,0.0,0.0,0.0,0.0,0.0,0.0,0.0,0.0,0.0,0.0,0.0,0.0,0.0,0.0,0.0,0.0,0.0,0.0,0.0,0.0,0.0,0.0,0.0,0.0,0.0,0.0,0.0,0.0,0.0,0.0,0.0,0.0,0.0,0.0,0.0,0.0,0.0,0.0,0.0,0.0,0.0,0.0,0.0,0.0,0.0,0.0,0.0,0.0,0.0,0.0,0.0,0.0,0.0,0.0,0.0,0.0,0.0,0.0,0.0,0.0,0.0,0.0,0.0,0.0,0.0,0.0,0.0,0.0,0.0,0.0,0.0,0.0,0.0,0.0,0.0,0.0,0.0,0.0,0.0,0.0,0.0,0.0,0.0,0.0,0.0,0.0,0.0,0.0,0.0,0.0,0.0,0.0,0.0,0.0,0.0,0.0,0.0,0.0,0.0,0.0,0.0,0.0,0.0,0.0,0.0,-1.9755,-1.885,-1.8575,0.0,-1.4284,0.0,0.0,0.0,0.0,0.0,0.0,0.0,0.0,0.0,0.0,0.0,0.0,0.0,0.0,0.0,0.0,0.0,0.0,0.0,0.0,0.0,0.0,0.0,0.0,0.0,0.0,0.0,0.0,0.0,0.0,0.0,0.0,0.0,0.0,0.0,0.0,0.0,0.0,0.0,0.0,0.0,0.0,0.0,0.0,0.0,0.0,0.0,0.0,0.0,0.0,0.0,0.0,0.0,0.0,0.0,0.0,0.0,0.0,0.0,0.0,0.0,0.0,0.0,0.0,0.0,0.0,0.0,0.0,0.0,0.0,0.0,0.0,0.0,0.0,0.0,0.0,0.0,0.0,0.0,0.0,0.0,0.0,0.0,0.0,0.0,0.0,0.0,0.0,0.0,0.0,0.0,0.0,0.0,0.0,0.0,0.0,0.0,0.0,0.0,0.0,0.0,0.0,0.0,0.0,0.0,0.0,0.0,0.0,0.0,0.0,0.0,0.0,-1.6018,-1.5636,-1.4589,0.0,0.0,0.0,0.0,0.0,0.0,0.0,0.0,0.0,0.0,0.0,0.0,0.0,0.0,0.0,0.0,0.0,0.0,0.0,0.0,0.0,0.0,0.0,0.0,0.0,0.0,0.0,0.0,0.0,0.0,0.0,0.0,0.0,0.0,0.0,0.0,0.0,0.0,0.0,0.0,0.0,0.0,0.0,0.0,0.0,0.0,0.0,0.0,0.0,0.0,0.0,0.0,0.0,0.0,0.0,0.0,0.0,0.0,0.0,0.0,0.0,0.0,0.0,0.0,0.0,0.0,0.0,0.0,0.0,0.0,0.0,0.0,0.0,0.0,0.0,0.0,0.0,0.0,0.0,0.0,0.0,0.0,0.0,0.0,0.0,0.0,0.0,0.0,0.0,0.0,0.0,0.0,0.0,0.0,0.0,0.0,0.0,0.0,0.0,0.0,0.0,0.0,0.0,0.0,0.0,0.0,0.0,0.0,0.0,0.0,-0.7965,-1.1047,-1.1864,-1.2392,-1.276,0.0,0.0,0.0,0.0,0.0,0.0,0.0,0.0,0.0,0.0,0.0,0.0,0.0,0.0,0.0,0.0,0.0,0.0,0.0,0.0,0.0,0.0,0.0,0.0,0.0,0.0,0.0,0.0,0.0,0.0,0.0,0.0,0.0,0.0,0.0,0.0,0.0,0.0,0.0,0.0,0.0,0.0,0.0,0.0,0.0,0.0,0.0,0.0,0.0,0.0,0.0,0.0,0.0,0.0,0.0,0.0,0.0,0.0,0.0,0.0,0.0,0.0,0.0,0.0,0.0,0.0,0.0,0.0,0.0,0.0,0.0,0.0,0.0,0.0,0.0,0.0,0.0,0.0,0.0,0.0,0.0,0.0,0.0,0.0,0.0,0.0,0.0,0.0,0.0,0.0,0.0,0.0,0.0,0.0,0.0,0.0,0.0,0.0,0.0,0.0,0.0,0.0,0.0,0.0,0.0,0.0,0.0,0.0,0.0,0.0,0.0,0.0,0.0,0.0,-0.9957,0.0,0.0,0.0,0.0,0.0,0.0,0.0,0.0,0.0,0.0,0.0,0.0,0.0,0.0,0.0,0.0,0.0,0.0,0.0,0.0,0.0,0.0,0.0,0.0,0.0,0.0,0.0,0.0,0.0,0.0,0.0,0.0,0.0,0.0,0.0,0.0,0.0,0.0,0.0,0.0,0.0,0.0,0.0,0.0,0.0,0.0,0.0,0.0,0.0,0.0,0.0,0.0,0.0,0.0,0.0,0.0,0.0,0.0,0.0,0.0,0.0,0.0,0.0,0.0,0.0,0.0,0.0,0.0,0.0,0.0,0.0,0.0,0.0,0.0,0.0,0.0,0.0,0.0,0.0,0.0,0.0,0.0,0.0,0.0,0.0,0.0,0.0,0.0,0.0,0.0,0.0,0.0,0.0,0.0,0.0,0.0,0.0,0.0,0.0,0.0,0.0,0.0,0.0,0.0,0.0,0.0,0.0,0.0,0.0,0.0,0.0,0.0,0.0,0.0,0.0,0.0,0.0,0.0,0.0,0.0,0.0,0.0,0.0,0.0,0.0,0.0,0.0,0.0,0.0,0.0,0.0,0.0,0.0,0.0,0.0,0.0,0.0,0.0,0.0,0.0,0.0,0.0,0.0,0.0,0.0,0.0,0.0,0.0,0.0,0.0,0.0,0.0,0.0,0.0,0.0,0.0,0.0,0.0,0.0,0.0,0.0,0.0,0.0,0.0,0.0,0.0,0.0,0.0,0.0,0.0,0.0,0.0,0.0,0.0,0.0,0.0,0.0,0.0,0.0,0.0,0.0,0.0,0.0,0.0,0.0,0.0,0.0,0.0,0.0,0.0,0.0,0.0,0.0,0.0,0.0,0.0,0.0,0.0,0.0,0.0,0.0,0.0,0.0,0.0,0.0,0.0,0.0,0.0,0.0,0.0,0.0,0.0,0.0,0.0,0.0,0.0,0.0,0.0,0.0,0.0,0.0,0.0,0.0,0.0,0.0,0.0,0.0,0.0,0.0,0.0,0.0,0.0,0.0,0.0,0.0,0.0,0.0,0.0,0.0,0.0,0.0,0.0,0.0,0.0,0.0,0.0,0.0,0.0,0.0,0.0,0.0,0.0,0.0,0.0,0.0,0.0,0.0,0.0,0.0,0.0,0.0,0.0,0.0,0.0,0.0,0.0,0.0,0.0,0.0,0.0,0.0,0.0,0.0,0.0,0.0,0.0,0.0,0.0,0.0,0.0,0.0,0.0,0.0,0.0,0.0,0.0,0.0,0.0,0.0,0.0,0.0,0.0,0.0,0.0,0.0,0.0,0.0,0.0,0.0,0.0,0.0,0.0,0.0,0.0,0.0,0.0,0.0,0.0,0.0,0.0,0.0,0.0,0.0,0.0,0.0,0.0,0.0,0.0,0.0,0.0,0.0,0.0,0.0,0.0,0.0,0.0,0.0,0.0,0.0,0.0,0.0,0.0,0.0,0.0,0.0,0.0,0.0,0.0,0.0,0.0,0.0,0.0,0.0,0.0,0.0,0.0,0.0,0.0,0.0,0.0,0.0,0.0,0.0,0.0,0.0,0.0,0.0,0.0,0.0,0.0,0.0,0.0,0.0,0.0,0.0,0.0,0.0,0.0,0.0,0.0,0.0,0.0,0.0,0.0,0.0,0.0,0.0,0.0,0.0,0.0,0.0,0.0,0.0,0.0,0.0,0.0,0.0,0.0,0.0,0.0,0.0,0.0,0.0,0.0,0.0,0.0,0.0,0.0,0.0,0.0,0.0,0.0,0.0,0.0,0.0,0.0,0.0,0.0,0.0,0.0,0.0,0.0,0.0,0.0,0.0,0.0,0.0,0.0,0.0,0.0,0.0,0.0,0.0,0.0,0.0,0.0,0.0,0.0,0.0,0.0,0.0,0.0,0.0,0.0,0.0,0.0,0.0,0.0,0.0,0.0,0.0,0.0,0.0,0.0,0.0,0.0,0.0,0.0,0.0,0.0,0.0,0.0,0.0,0.0,0.0,0.0,0.0,0.0,0.0,0.0,0.0,0.0,0.0,0.0,0.0,0.0,0.0,0.0,0.0,0.0,0.0,0.0,0.0,0.0,0.0,0.0,0.0,0.0,0.0,0.0,0.0,0.0,0.0,0.0,0.0,0.0,0.0,0.0,0.0,0.0,0.0,0.0,0.0,0.0,0.0,0.0,0.0,0.0,0.0,0.0,0.0,0.0,0.0,0.0,0.0,0.0,0.0,0.0,0.0,0.0,0.0,0.0,0.0,0.0,0.0,0.0,0.0,0.0,0.0,0.0,0.0,0.0,0.0,0.0,0.0,0.0,0.0,0.0,0.0,0.0,0.0,0.0,0.0,0.0,0.0,0.0,0.0,0.0,0.0,0.0,0.0,0.0,0.0,0.0,0.0,0.0,0.0,0.0,0.0,0.0,0.0,0.0,0.0,0.0,0.0,0.0,0.0,0.0,0.0,0.0,0.0,0.0,0.0,0.0,0.0,0.0,0.0,0.0,0.0,0.0,0.0,0.0,0.0,0.0,0.0,0.0,0.0,0.0,0.0,0.0,0.0,0.0,0.0,0.0,0.0,0.0,0.0,0.0,0.0,0.0,0.0,0.0,0.0,0.0,0.0,0.0,0.0,0.0,0.0,0.0,0.0,0.0,0.0,0.0,0.0,0.0,0.0,0.0,0.0,0.0,0.0,0.0,0.0,0.0,0.0,0.0,0.0,0.0,0.0,0.0,0.0,0.0,0.0,0.0,0.0,0.0,0.0,0.0,0.0,0.0,0.0,0.0,0.0,0.0,0.0,0.0,0.0,0.0,0.0,0.0,0.0,0.0,0.0,0.0,0.0,0.0,0.0,0.0,0.0,0.0,0.0,0.0,0.0,0.0,0.0,0.0,0.0,0.0,0.0,0.0,0.0,0.0,0.0,0.0,0.0,0.0,0.0,0.0,0.0,0.0,0.0,0.0,0.0,0.0,0.0,0.0,0.0,0.0,0.0,0.0,0.0,0.0,0.0,0.0,0.0,0.0,0.0,0.0,0.0,0.0,0.0,0.0,0.0,0.0,0.0,0.0,0.0,0.0,0.0,0.0,0.0,0.0,0.0,0.0,0.0,0.0,0.0,0.0,0.0,0.0,0.0,0.0,0.0,0.0,0.0,0.0,0.0,0.0,0.0,0.0,0.0,0.0,0.0,0.0,0.0,0.0,0.0,0.0,0.0,0.0,0.0,0.0,0.0,0.0,0.0,0.0,0.0,0.0,0.0,0.0,0.0,0.0,0.0,0.0,0.0,0.0,0.0,0.0,0.0,0.0,0.0,0.0,0.0,0.0,0.0,0.0,0.0,0.0,0.0,0.0,0.0,0.0,0.0,0.0,0.0,0.0,0.0,0.0,0.0,0.0,0.0,0.0,0.0,0.0,0.0,0.0,0.0,0.0,0.0,0.0,0.0,0.0,0.0,0.0,0.0,0.0,0.0,0.0,0.0,0.0,0.0,0.0,0.0,0.0,0.0,0.0,0.0,0.0,0.0,0.0,0.0,0.0,0.0,0.0,0.0,0.0,0.0,0.0,0.0,0.0,0.0,0.0,0.0,0.0,0.0,0.0,0.0,0.0,0.0,0.0,0.0,0.0,0.0,0.0,0.0,0.0,0.0,0.0,0.0,0.0,0.0,0.0,0.0,0.0,0.0,0.0,0.0,0.0,0.0,0.0,0.0,0.0,0.0,0.0,0.0,0.0,0.0,0.0,0.0,0.0,0.0,0.0,0.0,0.0,0.0,0.0,0.0,0.0,0.0,0.0,0.0,0.0,0.0,0.0,0.0,0.0,0.0,0.0,0.0,0.0,0.0,0.0,0.0,0.0,0.0,0.0,0.0,0.0,0.0,0.0,0.0,0.0,0.0,0.0,0.0,0.0,0.0,0.0,0.0,0.0,0.0,0.0,0.0,0.0,0.0,0.0,0.0,0.0,0.0,0.0,0.0,0.0,0.0,0.0,0.0,0.0,0.0,0.0,0.0,0.0,0.0,0.0,0.0,0.0,0.0,0.0,0.0,0.0,0.0,0.0,0.0,0.0,0.0,0.0,0.0,0.0,0.0,0.0,0.0,0.0,0.0,0.0,0.0,0.0,0.0,0.0,0.0,0.0,0.0,0.0,0.0,0.0,0.0,0.0,0.0,0.0,0.0,0.0,0.0,0.0,0.0,0.0,0.0,0.0,0.0,0.0,0.0,0.0,0.0,0.0,0.0,0.0,0.0,0.0,0.0,0.0,0.0,0.0,0.0,0.0,0.0,0.0,0.0,0.0,0.0,0.0,0.0,0.0,0.0,0.0,0.0,0.0,0.0,0.0,0.0,0.0,0.0,0.0]}]]]